<?xml version="1.0" encoding="UTF-8" standalone="no" ?>
<gpx xmlns="http://www.topografix.com/GPX/1/1" xmlns:xsi="http://www.w3.org/2001/XMLSchema-instance" xsi:schemaLocation="http://www.topografix.com/GPX/1/1 http://www.topografix.com/GPX/1/1/gpx.xsd" version="1.1" creator="VisuGPX - https://www.visugpx.com">
  <metadata>
    <name>20190926-Lantenot-Mignavillers</name>
    <desc><![CDATA[11ème jour de notre tour de France]]></desc>
  </metadata>
  <trk>
    <name><![CDATA[Tracé 20190926-103144]]></name>
    <trkseg>
      <trkpt lat="47.74957" lon="6.49643">
        <ele>335.374</ele>
        <time>2019-09-26T10:31:44Z</time>
      </trkpt>
      <trkpt lat="47.74957" lon="6.49643">
        <ele>335.374</ele>
        <time>2019-09-26T10:31:56Z</time>
      </trkpt>
      <trkpt lat="47.74957" lon="6.49643">
        <ele>335.374</ele>
        <time>2019-09-26T10:31:59Z</time>
      </trkpt>
      <trkpt lat="47.74957" lon="6.49643">
        <ele>335.374</ele>
        <time>2019-09-26T10:32:02Z</time>
      </trkpt>
      <trkpt lat="47.74957" lon="6.49643">
        <ele>335.374</ele>
        <time>2019-09-26T10:32:05Z</time>
      </trkpt>
      <trkpt lat="47.74957" lon="6.49643">
        <ele>332.545</ele>
        <time>2019-09-26T10:34:32Z</time>
      </trkpt>
      <trkpt lat="47.7496" lon="6.49636">
        <ele>329.837</ele>
        <time>2019-09-26T10:34:35Z</time>
      </trkpt>
      <trkpt lat="47.74953" lon="6.49637">
        <ele>322.531</ele>
        <time>2019-09-26T10:34:44Z</time>
      </trkpt>
      <trkpt lat="47.74947" lon="6.49643">
        <ele>321.53</ele>
        <time>2019-09-26T10:34:47Z</time>
      </trkpt>
      <trkpt lat="47.74941" lon="6.49644">
        <ele>319.811</ele>
        <time>2019-09-26T10:34:50Z</time>
      </trkpt>
      <trkpt lat="47.74937" lon="6.49636">
        <ele>319.569</ele>
        <time>2019-09-26T10:34:53Z</time>
      </trkpt>
      <trkpt lat="47.74933" lon="6.49624">
        <ele>318.324</ele>
        <time>2019-09-26T10:34:56Z</time>
      </trkpt>
      <trkpt lat="47.7493" lon="6.49615">
        <ele>316.875</ele>
        <time>2019-09-26T10:34:59Z</time>
      </trkpt>
      <trkpt lat="47.74929" lon="6.49612">
        <ele>316.4</ele>
        <time>2019-09-26T10:35:02Z</time>
      </trkpt>
      <trkpt lat="47.74929" lon="6.49612">
        <ele>316.4</ele>
        <time>2019-09-26T10:35:05Z</time>
      </trkpt>
      <trkpt lat="47.74929" lon="6.49611">
        <ele>316.192</ele>
        <time>2019-09-26T10:35:08Z</time>
      </trkpt>
      <trkpt lat="47.74926" lon="6.49599">
        <ele>316.289</ele>
        <time>2019-09-26T10:35:14Z</time>
      </trkpt>
      <trkpt lat="47.74924" lon="6.49588">
        <ele>316.774</ele>
        <time>2019-09-26T10:35:17Z</time>
      </trkpt>
      <trkpt lat="47.74919" lon="6.49574">
        <ele>317.171</ele>
        <time>2019-09-26T10:35:20Z</time>
      </trkpt>
      <trkpt lat="47.74916" lon="6.49562">
        <ele>316.362</ele>
        <time>2019-09-26T10:35:23Z</time>
      </trkpt>
      <trkpt lat="47.74913" lon="6.4955">
        <ele>315.923</ele>
        <time>2019-09-26T10:35:26Z</time>
      </trkpt>
      <trkpt lat="47.74906" lon="6.49536">
        <ele>316.433</ele>
        <time>2019-09-26T10:35:29Z</time>
      </trkpt>
      <trkpt lat="47.74895" lon="6.49522">
        <ele>316.678</ele>
        <time>2019-09-26T10:35:32Z</time>
      </trkpt>
      <trkpt lat="47.74885" lon="6.49509">
        <ele>316.664</ele>
        <time>2019-09-26T10:35:35Z</time>
      </trkpt>
      <trkpt lat="47.74876" lon="6.49495">
        <ele>316.972</ele>
        <time>2019-09-26T10:35:38Z</time>
      </trkpt>
      <trkpt lat="47.74865" lon="6.4948">
        <ele>316.788</ele>
        <time>2019-09-26T10:35:41Z</time>
      </trkpt>
      <trkpt lat="47.74856" lon="6.49466">
        <ele>316.407</ele>
        <time>2019-09-26T10:35:44Z</time>
      </trkpt>
      <trkpt lat="47.74848" lon="6.49451">
        <ele>315.604</ele>
        <time>2019-09-26T10:35:47Z</time>
      </trkpt>
      <trkpt lat="47.74838" lon="6.4944">
        <ele>315.179</ele>
        <time>2019-09-26T10:35:50Z</time>
      </trkpt>
      <trkpt lat="47.74826" lon="6.49445">
        <ele>315.238</ele>
        <time>2019-09-26T10:35:53Z</time>
      </trkpt>
      <trkpt lat="47.74813" lon="6.49447">
        <ele>315.794</ele>
        <time>2019-09-26T10:35:56Z</time>
      </trkpt>
      <trkpt lat="47.74801" lon="6.49451">
        <ele>316.137</ele>
        <time>2019-09-26T10:35:59Z</time>
      </trkpt>
      <trkpt lat="47.74789" lon="6.49458">
        <ele>316.719</ele>
        <time>2019-09-26T10:36:02Z</time>
      </trkpt>
      <trkpt lat="47.74778" lon="6.49465">
        <ele>317.243</ele>
        <time>2019-09-26T10:36:05Z</time>
      </trkpt>
      <trkpt lat="47.74767" lon="6.49473">
        <ele>318.191</ele>
        <time>2019-09-26T10:36:08Z</time>
      </trkpt>
      <trkpt lat="47.74757" lon="6.49483">
        <ele>319.226</ele>
        <time>2019-09-26T10:36:11Z</time>
      </trkpt>
      <trkpt lat="47.74747" lon="6.49493">
        <ele>320.339</ele>
        <time>2019-09-26T10:36:14Z</time>
      </trkpt>
      <trkpt lat="47.7474" lon="6.49503">
        <ele>321.162</ele>
        <time>2019-09-26T10:36:17Z</time>
      </trkpt>
      <trkpt lat="47.74732" lon="6.49513">
        <ele>321.394</ele>
        <time>2019-09-26T10:36:20Z</time>
      </trkpt>
      <trkpt lat="47.74726" lon="6.49525">
        <ele>322.203</ele>
        <time>2019-09-26T10:36:23Z</time>
      </trkpt>
      <trkpt lat="47.74721" lon="6.49539">
        <ele>323.338</ele>
        <time>2019-09-26T10:36:26Z</time>
      </trkpt>
      <trkpt lat="47.74716" lon="6.49554">
        <ele>323.635</ele>
        <time>2019-09-26T10:36:29Z</time>
      </trkpt>
      <trkpt lat="47.74712" lon="6.4957">
        <ele>323.324</ele>
        <time>2019-09-26T10:36:32Z</time>
      </trkpt>
      <trkpt lat="47.74706" lon="6.49584">
        <ele>322.783</ele>
        <time>2019-09-26T10:36:35Z</time>
      </trkpt>
      <trkpt lat="47.74701" lon="6.49597">
        <ele>321.854</ele>
        <time>2019-09-26T10:36:38Z</time>
      </trkpt>
      <trkpt lat="47.74696" lon="6.49608">
        <ele>321.617</ele>
        <time>2019-09-26T10:36:41Z</time>
      </trkpt>
      <trkpt lat="47.7469" lon="6.49617">
        <ele>322.573</ele>
        <time>2019-09-26T10:36:44Z</time>
      </trkpt>
      <trkpt lat="47.74683" lon="6.49627">
        <ele>323.866</ele>
        <time>2019-09-26T10:36:47Z</time>
      </trkpt>
      <trkpt lat="47.74676" lon="6.49636">
        <ele>325.006</ele>
        <time>2019-09-26T10:36:50Z</time>
      </trkpt>
      <trkpt lat="47.74668" lon="6.49644">
        <ele>325.562</ele>
        <time>2019-09-26T10:36:53Z</time>
      </trkpt>
      <trkpt lat="47.74661" lon="6.49652">
        <ele>325.655</ele>
        <time>2019-09-26T10:36:56Z</time>
      </trkpt>
      <trkpt lat="47.74654" lon="6.4966">
        <ele>325.564</ele>
        <time>2019-09-26T10:36:59Z</time>
      </trkpt>
      <trkpt lat="47.74648" lon="6.49667">
        <ele>325.689</ele>
        <time>2019-09-26T10:37:02Z</time>
      </trkpt>
      <trkpt lat="47.74641" lon="6.49674">
        <ele>325.207</ele>
        <time>2019-09-26T10:37:05Z</time>
      </trkpt>
      <trkpt lat="47.74635" lon="6.4968">
        <ele>325.328</ele>
        <time>2019-09-26T10:37:08Z</time>
      </trkpt>
      <trkpt lat="47.74628" lon="6.49686">
        <ele>325.488</ele>
        <time>2019-09-26T10:37:11Z</time>
      </trkpt>
      <trkpt lat="47.74623" lon="6.49691">
        <ele>325.86</ele>
        <time>2019-09-26T10:37:14Z</time>
      </trkpt>
      <trkpt lat="47.74617" lon="6.49698">
        <ele>326.084</ele>
        <time>2019-09-26T10:37:17Z</time>
      </trkpt>
      <trkpt lat="47.74609" lon="6.49706">
        <ele>326.343</ele>
        <time>2019-09-26T10:37:20Z</time>
      </trkpt>
      <trkpt lat="47.74602" lon="6.49714">
        <ele>326.755</ele>
        <time>2019-09-26T10:37:23Z</time>
      </trkpt>
      <trkpt lat="47.74593" lon="6.49721">
        <ele>327.722</ele>
        <time>2019-09-26T10:37:26Z</time>
      </trkpt>
      <trkpt lat="47.74586" lon="6.49728">
        <ele>329.199</ele>
        <time>2019-09-26T10:37:29Z</time>
      </trkpt>
      <trkpt lat="47.74579" lon="6.49737">
        <ele>329.977</ele>
        <time>2019-09-26T10:37:32Z</time>
      </trkpt>
      <trkpt lat="47.74571" lon="6.49746">
        <ele>329.796</ele>
        <time>2019-09-26T10:37:35Z</time>
      </trkpt>
      <trkpt lat="47.74562" lon="6.49757">
        <ele>329.505</ele>
        <time>2019-09-26T10:37:38Z</time>
      </trkpt>
      <trkpt lat="47.74551" lon="6.49768">
        <ele>328.872</ele>
        <time>2019-09-26T10:37:41Z</time>
      </trkpt>
      <trkpt lat="47.74541" lon="6.49779">
        <ele>327.871</ele>
        <time>2019-09-26T10:37:44Z</time>
      </trkpt>
      <trkpt lat="47.74532" lon="6.4979">
        <ele>327.03</ele>
        <time>2019-09-26T10:37:47Z</time>
      </trkpt>
      <trkpt lat="47.74522" lon="6.49801">
        <ele>326.869</ele>
        <time>2019-09-26T10:37:50Z</time>
      </trkpt>
      <trkpt lat="47.74512" lon="6.49813">
        <ele>326.506</ele>
        <time>2019-09-26T10:37:53Z</time>
      </trkpt>
      <trkpt lat="47.74502" lon="6.49825">
        <ele>326.129</ele>
        <time>2019-09-26T10:37:56Z</time>
      </trkpt>
      <trkpt lat="47.74493" lon="6.49836">
        <ele>325.498</ele>
        <time>2019-09-26T10:37:59Z</time>
      </trkpt>
      <trkpt lat="47.74483" lon="6.49847">
        <ele>325.196</ele>
        <time>2019-09-26T10:38:02Z</time>
      </trkpt>
      <trkpt lat="47.74474" lon="6.49858">
        <ele>325.396</ele>
        <time>2019-09-26T10:38:05Z</time>
      </trkpt>
      <trkpt lat="47.74463" lon="6.49869">
        <ele>326.482</ele>
        <time>2019-09-26T10:38:08Z</time>
      </trkpt>
      <trkpt lat="47.74455" lon="6.4988">
        <ele>327.019</ele>
        <time>2019-09-26T10:38:11Z</time>
      </trkpt>
      <trkpt lat="47.74446" lon="6.4989">
        <ele>327.081</ele>
        <time>2019-09-26T10:38:14Z</time>
      </trkpt>
      <trkpt lat="47.7444" lon="6.49902">
        <ele>327.453</ele>
        <time>2019-09-26T10:38:17Z</time>
      </trkpt>
      <trkpt lat="47.74434" lon="6.49913">
        <ele>327.296</ele>
        <time>2019-09-26T10:38:20Z</time>
      </trkpt>
      <trkpt lat="47.74427" lon="6.49923">
        <ele>327.591</ele>
        <time>2019-09-26T10:38:23Z</time>
      </trkpt>
      <trkpt lat="47.7442" lon="6.49934">
        <ele>328.079</ele>
        <time>2019-09-26T10:38:26Z</time>
      </trkpt>
      <trkpt lat="47.74412" lon="6.49945">
        <ele>328.406</ele>
        <time>2019-09-26T10:38:29Z</time>
      </trkpt>
      <trkpt lat="47.74404" lon="6.49958">
        <ele>328.54</ele>
        <time>2019-09-26T10:38:32Z</time>
      </trkpt>
      <trkpt lat="47.74396" lon="6.49971">
        <ele>328.362</ele>
        <time>2019-09-26T10:38:35Z</time>
      </trkpt>
      <trkpt lat="47.74389" lon="6.49985">
        <ele>328.319</ele>
        <time>2019-09-26T10:38:38Z</time>
      </trkpt>
      <trkpt lat="47.74381" lon="6.49998">
        <ele>328.227</ele>
        <time>2019-09-26T10:38:41Z</time>
      </trkpt>
      <trkpt lat="47.74374" lon="6.50012">
        <ele>328.325</ele>
        <time>2019-09-26T10:38:44Z</time>
      </trkpt>
      <trkpt lat="47.74367" lon="6.50026">
        <ele>328.276</ele>
        <time>2019-09-26T10:38:47Z</time>
      </trkpt>
      <trkpt lat="47.7436" lon="6.50039">
        <ele>328.813</ele>
        <time>2019-09-26T10:38:50Z</time>
      </trkpt>
      <trkpt lat="47.74353" lon="6.50051">
        <ele>329.404</ele>
        <time>2019-09-26T10:38:53Z</time>
      </trkpt>
      <trkpt lat="47.74347" lon="6.50063">
        <ele>329.565</ele>
        <time>2019-09-26T10:38:56Z</time>
      </trkpt>
      <trkpt lat="47.7434" lon="6.50073">
        <ele>329.173</ele>
        <time>2019-09-26T10:38:59Z</time>
      </trkpt>
      <trkpt lat="47.74334" lon="6.50082">
        <ele>329.195</ele>
        <time>2019-09-26T10:39:02Z</time>
      </trkpt>
      <trkpt lat="47.74329" lon="6.50091">
        <ele>329.519</ele>
        <time>2019-09-26T10:39:05Z</time>
      </trkpt>
      <trkpt lat="47.74323" lon="6.50098">
        <ele>329.522</ele>
        <time>2019-09-26T10:39:08Z</time>
      </trkpt>
      <trkpt lat="47.74317" lon="6.50107">
        <ele>329.633</ele>
        <time>2019-09-26T10:39:11Z</time>
      </trkpt>
      <trkpt lat="47.7431" lon="6.50116">
        <ele>329.932</ele>
        <time>2019-09-26T10:39:14Z</time>
      </trkpt>
      <trkpt lat="47.74304" lon="6.50125">
        <ele>330.495</ele>
        <time>2019-09-26T10:39:17Z</time>
      </trkpt>
      <trkpt lat="47.74296" lon="6.50134">
        <ele>330.67</ele>
        <time>2019-09-26T10:39:20Z</time>
      </trkpt>
      <trkpt lat="47.7429" lon="6.50142">
        <ele>330.439</ele>
        <time>2019-09-26T10:39:23Z</time>
      </trkpt>
      <trkpt lat="47.74283" lon="6.50151">
        <ele>330.569</ele>
        <time>2019-09-26T10:39:26Z</time>
      </trkpt>
      <trkpt lat="47.74276" lon="6.50159">
        <ele>330.716</ele>
        <time>2019-09-26T10:39:29Z</time>
      </trkpt>
      <trkpt lat="47.74269" lon="6.50168">
        <ele>331.14</ele>
        <time>2019-09-26T10:39:32Z</time>
      </trkpt>
      <trkpt lat="47.74262" lon="6.50176">
        <ele>331.516</ele>
        <time>2019-09-26T10:39:35Z</time>
      </trkpt>
      <trkpt lat="47.74254" lon="6.50184">
        <ele>331.584</ele>
        <time>2019-09-26T10:39:38Z</time>
      </trkpt>
      <trkpt lat="47.74246" lon="6.50193">
        <ele>331.317</ele>
        <time>2019-09-26T10:39:41Z</time>
      </trkpt>
      <trkpt lat="47.74239" lon="6.50202">
        <ele>331.097</ele>
        <time>2019-09-26T10:39:44Z</time>
      </trkpt>
      <trkpt lat="47.74232" lon="6.50211">
        <ele>330.987</ele>
        <time>2019-09-26T10:39:47Z</time>
      </trkpt>
      <trkpt lat="47.74225" lon="6.50221">
        <ele>331.428</ele>
        <time>2019-09-26T10:39:50Z</time>
      </trkpt>
      <trkpt lat="47.74217" lon="6.50231">
        <ele>331.661</ele>
        <time>2019-09-26T10:39:53Z</time>
      </trkpt>
      <trkpt lat="47.74209" lon="6.5024">
        <ele>331.754</ele>
        <time>2019-09-26T10:39:56Z</time>
      </trkpt>
      <trkpt lat="47.74201" lon="6.50249">
        <ele>331.72</ele>
        <time>2019-09-26T10:39:59Z</time>
      </trkpt>
      <trkpt lat="47.74192" lon="6.5026">
        <ele>331.583</ele>
        <time>2019-09-26T10:40:02Z</time>
      </trkpt>
      <trkpt lat="47.74184" lon="6.5027">
        <ele>331.354</ele>
        <time>2019-09-26T10:40:05Z</time>
      </trkpt>
      <trkpt lat="47.74174" lon="6.50281">
        <ele>331.181</ele>
        <time>2019-09-26T10:40:08Z</time>
      </trkpt>
      <trkpt lat="47.74163" lon="6.50294">
        <ele>331.144</ele>
        <time>2019-09-26T10:40:11Z</time>
      </trkpt>
      <trkpt lat="47.74153" lon="6.50306">
        <ele>331.243</ele>
        <time>2019-09-26T10:40:14Z</time>
      </trkpt>
      <trkpt lat="47.74143" lon="6.50319">
        <ele>331.514</ele>
        <time>2019-09-26T10:40:17Z</time>
      </trkpt>
      <trkpt lat="47.74132" lon="6.50331">
        <ele>331.59</ele>
        <time>2019-09-26T10:40:20Z</time>
      </trkpt>
      <trkpt lat="47.74122" lon="6.50342">
        <ele>331.814</ele>
        <time>2019-09-26T10:40:23Z</time>
      </trkpt>
      <trkpt lat="47.74113" lon="6.50353">
        <ele>331.675</ele>
        <time>2019-09-26T10:40:26Z</time>
      </trkpt>
      <trkpt lat="47.74103" lon="6.50365">
        <ele>331.299</ele>
        <time>2019-09-26T10:40:29Z</time>
      </trkpt>
      <trkpt lat="47.74093" lon="6.50376">
        <ele>331.011</ele>
        <time>2019-09-26T10:40:32Z</time>
      </trkpt>
      <trkpt lat="47.74082" lon="6.50388">
        <ele>331.026</ele>
        <time>2019-09-26T10:40:35Z</time>
      </trkpt>
      <trkpt lat="47.74073" lon="6.50399">
        <ele>331.086</ele>
        <time>2019-09-26T10:40:38Z</time>
      </trkpt>
      <trkpt lat="47.74064" lon="6.5041">
        <ele>331.418</ele>
        <time>2019-09-26T10:40:41Z</time>
      </trkpt>
      <trkpt lat="47.74056" lon="6.50419">
        <ele>331.636</ele>
        <time>2019-09-26T10:40:44Z</time>
      </trkpt>
      <trkpt lat="47.74049" lon="6.50427">
        <ele>331.886</ele>
        <time>2019-09-26T10:40:47Z</time>
      </trkpt>
      <trkpt lat="47.74043" lon="6.50435">
        <ele>332.599</ele>
        <time>2019-09-26T10:40:50Z</time>
      </trkpt>
      <trkpt lat="47.74038" lon="6.50443">
        <ele>332.983</ele>
        <time>2019-09-26T10:40:53Z</time>
      </trkpt>
      <trkpt lat="47.74033" lon="6.50451">
        <ele>333.408</ele>
        <time>2019-09-26T10:40:56Z</time>
      </trkpt>
      <trkpt lat="47.74028" lon="6.50459">
        <ele>333.842</ele>
        <time>2019-09-26T10:40:59Z</time>
      </trkpt>
      <trkpt lat="47.74021" lon="6.50467">
        <ele>334.135</ele>
        <time>2019-09-26T10:41:02Z</time>
      </trkpt>
      <trkpt lat="47.74015" lon="6.50477">
        <ele>334.669</ele>
        <time>2019-09-26T10:41:05Z</time>
      </trkpt>
      <trkpt lat="47.74008" lon="6.50486">
        <ele>335.002</ele>
        <time>2019-09-26T10:41:08Z</time>
      </trkpt>
      <trkpt lat="47.74002" lon="6.50496">
        <ele>335.315</ele>
        <time>2019-09-26T10:41:11Z</time>
      </trkpt>
      <trkpt lat="47.73997" lon="6.50506">
        <ele>335.904</ele>
        <time>2019-09-26T10:41:14Z</time>
      </trkpt>
      <trkpt lat="47.73992" lon="6.50516">
        <ele>336.314</ele>
        <time>2019-09-26T10:41:17Z</time>
      </trkpt>
      <trkpt lat="47.73986" lon="6.50526">
        <ele>336.844</ele>
        <time>2019-09-26T10:41:20Z</time>
      </trkpt>
      <trkpt lat="47.7398" lon="6.50536">
        <ele>337.15</ele>
        <time>2019-09-26T10:41:23Z</time>
      </trkpt>
      <trkpt lat="47.73975" lon="6.50546">
        <ele>337.58</ele>
        <time>2019-09-26T10:41:26Z</time>
      </trkpt>
      <trkpt lat="47.7397" lon="6.50556">
        <ele>337.841</ele>
        <time>2019-09-26T10:41:29Z</time>
      </trkpt>
      <trkpt lat="47.73965" lon="6.50566">
        <ele>338.092</ele>
        <time>2019-09-26T10:41:32Z</time>
      </trkpt>
      <trkpt lat="47.73959" lon="6.50576">
        <ele>338.351</ele>
        <time>2019-09-26T10:41:35Z</time>
      </trkpt>
      <trkpt lat="47.73954" lon="6.50586">
        <ele>339.054</ele>
        <time>2019-09-26T10:41:38Z</time>
      </trkpt>
      <trkpt lat="47.73948" lon="6.50596">
        <ele>339.277</ele>
        <time>2019-09-26T10:41:41Z</time>
      </trkpt>
      <trkpt lat="47.73942" lon="6.50609">
        <ele>339.813</ele>
        <time>2019-09-26T10:41:44Z</time>
      </trkpt>
      <trkpt lat="47.73935" lon="6.50621">
        <ele>340.167</ele>
        <time>2019-09-26T10:41:47Z</time>
      </trkpt>
      <trkpt lat="47.73927" lon="6.50635">
        <ele>339.928</ele>
        <time>2019-09-26T10:41:50Z</time>
      </trkpt>
      <trkpt lat="47.7392" lon="6.50649">
        <ele>339.692</ele>
        <time>2019-09-26T10:41:53Z</time>
      </trkpt>
      <trkpt lat="47.73913" lon="6.50665">
        <ele>339.548</ele>
        <time>2019-09-26T10:41:56Z</time>
      </trkpt>
      <trkpt lat="47.73905" lon="6.50679">
        <ele>339.591</ele>
        <time>2019-09-26T10:41:59Z</time>
      </trkpt>
      <trkpt lat="47.73897" lon="6.50694">
        <ele>339.43</ele>
        <time>2019-09-26T10:42:02Z</time>
      </trkpt>
      <trkpt lat="47.73888" lon="6.5071">
        <ele>339.724</ele>
        <time>2019-09-26T10:42:05Z</time>
      </trkpt>
      <trkpt lat="47.73881" lon="6.50724">
        <ele>340.46</ele>
        <time>2019-09-26T10:42:08Z</time>
      </trkpt>
      <trkpt lat="47.73873" lon="6.50739">
        <ele>340.837</ele>
        <time>2019-09-26T10:42:11Z</time>
      </trkpt>
      <trkpt lat="47.73864" lon="6.50754">
        <ele>341.048</ele>
        <time>2019-09-26T10:42:14Z</time>
      </trkpt>
      <trkpt lat="47.73857" lon="6.5077">
        <ele>341.49</ele>
        <time>2019-09-26T10:42:17Z</time>
      </trkpt>
      <trkpt lat="47.73849" lon="6.50784">
        <ele>342.189</ele>
        <time>2019-09-26T10:42:20Z</time>
      </trkpt>
      <trkpt lat="47.73841" lon="6.50797">
        <ele>343.22</ele>
        <time>2019-09-26T10:42:23Z</time>
      </trkpt>
      <trkpt lat="47.73834" lon="6.50812">
        <ele>344.066</ele>
        <time>2019-09-26T10:42:26Z</time>
      </trkpt>
      <trkpt lat="47.73827" lon="6.50827">
        <ele>344.731</ele>
        <time>2019-09-26T10:42:29Z</time>
      </trkpt>
      <trkpt lat="47.73817" lon="6.5084">
        <ele>345.522</ele>
        <time>2019-09-26T10:42:32Z</time>
      </trkpt>
      <trkpt lat="47.73807" lon="6.50857">
        <ele>345.957</ele>
        <time>2019-09-26T10:42:35Z</time>
      </trkpt>
      <trkpt lat="47.738" lon="6.50874">
        <ele>346.282</ele>
        <time>2019-09-26T10:42:38Z</time>
      </trkpt>
      <trkpt lat="47.7379" lon="6.50891">
        <ele>346.087</ele>
        <time>2019-09-26T10:42:41Z</time>
      </trkpt>
      <trkpt lat="47.73781" lon="6.50906">
        <ele>345.367</ele>
        <time>2019-09-26T10:42:44Z</time>
      </trkpt>
      <trkpt lat="47.73773" lon="6.5092">
        <ele>343.708</ele>
        <time>2019-09-26T10:42:47Z</time>
      </trkpt>
      <trkpt lat="47.73764" lon="6.50934">
        <ele>342.817</ele>
        <time>2019-09-26T10:42:50Z</time>
      </trkpt>
      <trkpt lat="47.73758" lon="6.50948">
        <ele>342.452</ele>
        <time>2019-09-26T10:42:53Z</time>
      </trkpt>
      <trkpt lat="47.7375" lon="6.50961">
        <ele>342.41</ele>
        <time>2019-09-26T10:42:56Z</time>
      </trkpt>
      <trkpt lat="47.73744" lon="6.50975">
        <ele>342.497</ele>
        <time>2019-09-26T10:42:59Z</time>
      </trkpt>
      <trkpt lat="47.73736" lon="6.50989">
        <ele>342.287</ele>
        <time>2019-09-26T10:43:02Z</time>
      </trkpt>
      <trkpt lat="47.73729" lon="6.51002">
        <ele>342.251</ele>
        <time>2019-09-26T10:43:05Z</time>
      </trkpt>
      <trkpt lat="47.73722" lon="6.51016">
        <ele>342.607</ele>
        <time>2019-09-26T10:43:08Z</time>
      </trkpt>
      <trkpt lat="47.73718" lon="6.51032">
        <ele>342.642</ele>
        <time>2019-09-26T10:43:11Z</time>
      </trkpt>
      <trkpt lat="47.7371" lon="6.5105">
        <ele>342.826</ele>
        <time>2019-09-26T10:43:14Z</time>
      </trkpt>
      <trkpt lat="47.737" lon="6.5107">
        <ele>342.504</ele>
        <time>2019-09-26T10:43:17Z</time>
      </trkpt>
      <trkpt lat="47.73691" lon="6.51089">
        <ele>341.909</ele>
        <time>2019-09-26T10:43:20Z</time>
      </trkpt>
      <trkpt lat="47.73681" lon="6.51109">
        <ele>341.406</ele>
        <time>2019-09-26T10:43:23Z</time>
      </trkpt>
      <trkpt lat="47.73672" lon="6.51128">
        <ele>340.844</ele>
        <time>2019-09-26T10:43:26Z</time>
      </trkpt>
      <trkpt lat="47.73663" lon="6.51145">
        <ele>340.146</ele>
        <time>2019-09-26T10:43:29Z</time>
      </trkpt>
      <trkpt lat="47.73654" lon="6.51163">
        <ele>339.945</ele>
        <time>2019-09-26T10:43:32Z</time>
      </trkpt>
      <trkpt lat="47.73644" lon="6.51181">
        <ele>339.727</ele>
        <time>2019-09-26T10:43:35Z</time>
      </trkpt>
      <trkpt lat="47.73634" lon="6.51197">
        <ele>339.879</ele>
        <time>2019-09-26T10:43:38Z</time>
      </trkpt>
      <trkpt lat="47.73624" lon="6.51212">
        <ele>339.941</ele>
        <time>2019-09-26T10:43:41Z</time>
      </trkpt>
      <trkpt lat="47.73614" lon="6.51226">
        <ele>340.571</ele>
        <time>2019-09-26T10:43:44Z</time>
      </trkpt>
      <trkpt lat="47.73604" lon="6.51242">
        <ele>341.733</ele>
        <time>2019-09-26T10:43:47Z</time>
      </trkpt>
      <trkpt lat="47.73594" lon="6.51259">
        <ele>342.832</ele>
        <time>2019-09-26T10:43:50Z</time>
      </trkpt>
      <trkpt lat="47.73582" lon="6.51274">
        <ele>343.881</ele>
        <time>2019-09-26T10:43:53Z</time>
      </trkpt>
      <trkpt lat="47.73572" lon="6.51287">
        <ele>344.988</ele>
        <time>2019-09-26T10:43:56Z</time>
      </trkpt>
      <trkpt lat="47.73565" lon="6.51303">
        <ele>346.173</ele>
        <time>2019-09-26T10:43:59Z</time>
      </trkpt>
      <trkpt lat="47.73557" lon="6.5132">
        <ele>346.912</ele>
        <time>2019-09-26T10:44:02Z</time>
      </trkpt>
      <trkpt lat="47.73549" lon="6.51337">
        <ele>347.329</ele>
        <time>2019-09-26T10:44:05Z</time>
      </trkpt>
      <trkpt lat="47.7354" lon="6.51354">
        <ele>347.509</ele>
        <time>2019-09-26T10:44:08Z</time>
      </trkpt>
      <trkpt lat="47.73531" lon="6.51373">
        <ele>347.726</ele>
        <time>2019-09-26T10:44:11Z</time>
      </trkpt>
      <trkpt lat="47.73518" lon="6.51391">
        <ele>348.63</ele>
        <time>2019-09-26T10:44:14Z</time>
      </trkpt>
      <trkpt lat="47.73507" lon="6.51414">
        <ele>348.952</ele>
        <time>2019-09-26T10:44:17Z</time>
      </trkpt>
      <trkpt lat="47.73495" lon="6.51444">
        <ele>348.834</ele>
        <time>2019-09-26T10:44:20Z</time>
      </trkpt>
      <trkpt lat="47.73483" lon="6.51478">
        <ele>347.746</ele>
        <time>2019-09-26T10:44:23Z</time>
      </trkpt>
      <trkpt lat="47.73469" lon="6.51513">
        <ele>345.462</ele>
        <time>2019-09-26T10:44:26Z</time>
      </trkpt>
      <trkpt lat="47.73452" lon="6.51551">
        <ele>343.528</ele>
        <time>2019-09-26T10:44:29Z</time>
      </trkpt>
      <trkpt lat="47.73435" lon="6.51592">
        <ele>343.02</ele>
        <time>2019-09-26T10:44:32Z</time>
      </trkpt>
      <trkpt lat="47.73419" lon="6.51638">
        <ele>340.754</ele>
        <time>2019-09-26T10:44:35Z</time>
      </trkpt>
      <trkpt lat="47.73399" lon="6.51689">
        <ele>335.971</ele>
        <time>2019-09-26T10:44:38Z</time>
      </trkpt>
      <trkpt lat="47.73382" lon="6.51739">
        <ele>331.952</ele>
        <time>2019-09-26T10:44:41Z</time>
      </trkpt>
      <trkpt lat="47.73365" lon="6.51786">
        <ele>328.061</ele>
        <time>2019-09-26T10:44:44Z</time>
      </trkpt>
      <trkpt lat="47.73349" lon="6.51829">
        <ele>324.619</ele>
        <time>2019-09-26T10:44:47Z</time>
      </trkpt>
      <trkpt lat="47.73336" lon="6.51868">
        <ele>321.706</ele>
        <time>2019-09-26T10:44:50Z</time>
      </trkpt>
      <trkpt lat="47.73324" lon="6.51903">
        <ele>319.201</ele>
        <time>2019-09-26T10:44:53Z</time>
      </trkpt>
      <trkpt lat="47.73314" lon="6.51935">
        <ele>316.533</ele>
        <time>2019-09-26T10:44:56Z</time>
      </trkpt>
      <trkpt lat="47.73304" lon="6.51964">
        <ele>314.864</ele>
        <time>2019-09-26T10:44:59Z</time>
      </trkpt>
      <trkpt lat="47.73294" lon="6.51991">
        <ele>314.242</ele>
        <time>2019-09-26T10:45:02Z</time>
      </trkpt>
      <trkpt lat="47.73284" lon="6.52016">
        <ele>313.987</ele>
        <time>2019-09-26T10:45:05Z</time>
      </trkpt>
      <trkpt lat="47.73276" lon="6.52041">
        <ele>313.714</ele>
        <time>2019-09-26T10:45:08Z</time>
      </trkpt>
      <trkpt lat="47.73268" lon="6.52063">
        <ele>313.323</ele>
        <time>2019-09-26T10:45:11Z</time>
      </trkpt>
      <trkpt lat="47.73261" lon="6.52085">
        <ele>313.046</ele>
        <time>2019-09-26T10:45:14Z</time>
      </trkpt>
      <trkpt lat="47.73253" lon="6.52108">
        <ele>312.65</ele>
        <time>2019-09-26T10:45:17Z</time>
      </trkpt>
      <trkpt lat="47.73245" lon="6.52128">
        <ele>312.865</ele>
        <time>2019-09-26T10:45:20Z</time>
      </trkpt>
      <trkpt lat="47.73237" lon="6.52149">
        <ele>313.218</ele>
        <time>2019-09-26T10:45:23Z</time>
      </trkpt>
      <trkpt lat="47.73229" lon="6.52171">
        <ele>313.448</ele>
        <time>2019-09-26T10:45:26Z</time>
      </trkpt>
      <trkpt lat="47.73222" lon="6.52191">
        <ele>313.527</ele>
        <time>2019-09-26T10:45:29Z</time>
      </trkpt>
      <trkpt lat="47.73214" lon="6.5221">
        <ele>313.878</ele>
        <time>2019-09-26T10:45:32Z</time>
      </trkpt>
      <trkpt lat="47.73208" lon="6.52228">
        <ele>313.77</ele>
        <time>2019-09-26T10:45:35Z</time>
      </trkpt>
      <trkpt lat="47.73204" lon="6.52246">
        <ele>313.894</ele>
        <time>2019-09-26T10:45:38Z</time>
      </trkpt>
      <trkpt lat="47.73197" lon="6.52264">
        <ele>314.398</ele>
        <time>2019-09-26T10:45:41Z</time>
      </trkpt>
      <trkpt lat="47.7319" lon="6.52282">
        <ele>315.742</ele>
        <time>2019-09-26T10:45:44Z</time>
      </trkpt>
      <trkpt lat="47.73182" lon="6.52302">
        <ele>316.261</ele>
        <time>2019-09-26T10:45:47Z</time>
      </trkpt>
      <trkpt lat="47.73176" lon="6.52323">
        <ele>316.772</ele>
        <time>2019-09-26T10:45:50Z</time>
      </trkpt>
      <trkpt lat="47.7317" lon="6.52343">
        <ele>317.068</ele>
        <time>2019-09-26T10:45:53Z</time>
      </trkpt>
      <trkpt lat="47.73163" lon="6.52363">
        <ele>317.203</ele>
        <time>2019-09-26T10:45:56Z</time>
      </trkpt>
      <trkpt lat="47.73155" lon="6.52383">
        <ele>317.49</ele>
        <time>2019-09-26T10:45:59Z</time>
      </trkpt>
      <trkpt lat="47.73148" lon="6.52403">
        <ele>317.511</ele>
        <time>2019-09-26T10:46:02Z</time>
      </trkpt>
      <trkpt lat="47.73142" lon="6.52422">
        <ele>317.73</ele>
        <time>2019-09-26T10:46:05Z</time>
      </trkpt>
      <trkpt lat="47.73135" lon="6.52441">
        <ele>317.806</ele>
        <time>2019-09-26T10:46:08Z</time>
      </trkpt>
      <trkpt lat="47.73129" lon="6.52461">
        <ele>317.654</ele>
        <time>2019-09-26T10:46:11Z</time>
      </trkpt>
      <trkpt lat="47.73123" lon="6.5248">
        <ele>317.723</ele>
        <time>2019-09-26T10:46:14Z</time>
      </trkpt>
      <trkpt lat="47.73116" lon="6.52498">
        <ele>317.986</ele>
        <time>2019-09-26T10:46:17Z</time>
      </trkpt>
      <trkpt lat="47.73109" lon="6.52517">
        <ele>318.302</ele>
        <time>2019-09-26T10:46:20Z</time>
      </trkpt>
      <trkpt lat="47.73102" lon="6.52537">
        <ele>318.454</ele>
        <time>2019-09-26T10:46:23Z</time>
      </trkpt>
      <trkpt lat="47.73095" lon="6.52558">
        <ele>318.335</ele>
        <time>2019-09-26T10:46:26Z</time>
      </trkpt>
      <trkpt lat="47.73087" lon="6.52577">
        <ele>318.235</ele>
        <time>2019-09-26T10:46:29Z</time>
      </trkpt>
      <trkpt lat="47.73079" lon="6.52596">
        <ele>318.87</ele>
        <time>2019-09-26T10:46:32Z</time>
      </trkpt>
      <trkpt lat="47.73073" lon="6.52617">
        <ele>319.638</ele>
        <time>2019-09-26T10:46:35Z</time>
      </trkpt>
      <trkpt lat="47.73066" lon="6.52637">
        <ele>319.864</ele>
        <time>2019-09-26T10:46:38Z</time>
      </trkpt>
      <trkpt lat="47.7306" lon="6.52657">
        <ele>319.884</ele>
        <time>2019-09-26T10:46:41Z</time>
      </trkpt>
      <trkpt lat="47.73053" lon="6.52675">
        <ele>319.811</ele>
        <time>2019-09-26T10:46:44Z</time>
      </trkpt>
      <trkpt lat="47.73048" lon="6.52694">
        <ele>319.644</ele>
        <time>2019-09-26T10:46:47Z</time>
      </trkpt>
      <trkpt lat="47.73042" lon="6.52711">
        <ele>320.015</ele>
        <time>2019-09-26T10:46:50Z</time>
      </trkpt>
      <trkpt lat="47.73037" lon="6.52726">
        <ele>320.285</ele>
        <time>2019-09-26T10:46:53Z</time>
      </trkpt>
      <trkpt lat="47.73032" lon="6.52742">
        <ele>320.156</ele>
        <time>2019-09-26T10:46:56Z</time>
      </trkpt>
      <trkpt lat="47.73027" lon="6.52758">
        <ele>320.132</ele>
        <time>2019-09-26T10:46:59Z</time>
      </trkpt>
      <trkpt lat="47.73022" lon="6.52773">
        <ele>320.361</ele>
        <time>2019-09-26T10:47:02Z</time>
      </trkpt>
      <trkpt lat="47.73017" lon="6.52787">
        <ele>320.572</ele>
        <time>2019-09-26T10:47:05Z</time>
      </trkpt>
      <trkpt lat="47.73011" lon="6.52801">
        <ele>320.244</ele>
        <time>2019-09-26T10:47:08Z</time>
      </trkpt>
      <trkpt lat="47.73006" lon="6.52815">
        <ele>319.937</ele>
        <time>2019-09-26T10:47:11Z</time>
      </trkpt>
      <trkpt lat="47.73002" lon="6.5283">
        <ele>320.125</ele>
        <time>2019-09-26T10:47:14Z</time>
      </trkpt>
      <trkpt lat="47.72997" lon="6.52845">
        <ele>320.537</ele>
        <time>2019-09-26T10:47:17Z</time>
      </trkpt>
      <trkpt lat="47.72992" lon="6.5286">
        <ele>321.486</ele>
        <time>2019-09-26T10:47:20Z</time>
      </trkpt>
      <trkpt lat="47.72987" lon="6.52874">
        <ele>322.366</ele>
        <time>2019-09-26T10:47:23Z</time>
      </trkpt>
      <trkpt lat="47.72982" lon="6.52887">
        <ele>322.227</ele>
        <time>2019-09-26T10:47:26Z</time>
      </trkpt>
      <trkpt lat="47.72978" lon="6.529">
        <ele>322.455</ele>
        <time>2019-09-26T10:47:29Z</time>
      </trkpt>
      <trkpt lat="47.72974" lon="6.52914">
        <ele>322.839</ele>
        <time>2019-09-26T10:47:32Z</time>
      </trkpt>
      <trkpt lat="47.7297" lon="6.52928">
        <ele>323.092</ele>
        <time>2019-09-26T10:47:35Z</time>
      </trkpt>
      <trkpt lat="47.72965" lon="6.52941">
        <ele>323.586</ele>
        <time>2019-09-26T10:47:38Z</time>
      </trkpt>
      <trkpt lat="47.72959" lon="6.52951">
        <ele>324.293</ele>
        <time>2019-09-26T10:47:41Z</time>
      </trkpt>
      <trkpt lat="47.7295" lon="6.52958">
        <ele>324.922</ele>
        <time>2019-09-26T10:47:44Z</time>
      </trkpt>
      <trkpt lat="47.72939" lon="6.52966">
        <ele>325.371</ele>
        <time>2019-09-26T10:47:47Z</time>
      </trkpt>
      <trkpt lat="47.72929" lon="6.52974">
        <ele>326.31</ele>
        <time>2019-09-26T10:47:50Z</time>
      </trkpt>
      <trkpt lat="47.72919" lon="6.52981">
        <ele>326.636</ele>
        <time>2019-09-26T10:47:53Z</time>
      </trkpt>
      <trkpt lat="47.7291" lon="6.52987">
        <ele>326.885</ele>
        <time>2019-09-26T10:47:56Z</time>
      </trkpt>
      <trkpt lat="47.72902" lon="6.52993">
        <ele>327.496</ele>
        <time>2019-09-26T10:47:59Z</time>
      </trkpt>
      <trkpt lat="47.72893" lon="6.52999">
        <ele>327.997</ele>
        <time>2019-09-26T10:48:02Z</time>
      </trkpt>
      <trkpt lat="47.72883" lon="6.53005">
        <ele>328.282</ele>
        <time>2019-09-26T10:48:05Z</time>
      </trkpt>
      <trkpt lat="47.72873" lon="6.53012">
        <ele>328.358</ele>
        <time>2019-09-26T10:48:08Z</time>
      </trkpt>
      <trkpt lat="47.72862" lon="6.53018">
        <ele>328.423</ele>
        <time>2019-09-26T10:48:11Z</time>
      </trkpt>
      <trkpt lat="47.7285" lon="6.53023">
        <ele>328.608</ele>
        <time>2019-09-26T10:48:14Z</time>
      </trkpt>
      <trkpt lat="47.72836" lon="6.53026">
        <ele>328.619</ele>
        <time>2019-09-26T10:48:17Z</time>
      </trkpt>
      <trkpt lat="47.72823" lon="6.53029">
        <ele>328.69</ele>
        <time>2019-09-26T10:48:20Z</time>
      </trkpt>
      <trkpt lat="47.72808" lon="6.53033">
        <ele>329.142</ele>
        <time>2019-09-26T10:48:23Z</time>
      </trkpt>
      <trkpt lat="47.72794" lon="6.53035">
        <ele>329.561</ele>
        <time>2019-09-26T10:48:26Z</time>
      </trkpt>
      <trkpt lat="47.72781" lon="6.53037">
        <ele>329.58</ele>
        <time>2019-09-26T10:48:29Z</time>
      </trkpt>
      <trkpt lat="47.72769" lon="6.53042">
        <ele>329.655</ele>
        <time>2019-09-26T10:48:32Z</time>
      </trkpt>
      <trkpt lat="47.72756" lon="6.53046">
        <ele>330.047</ele>
        <time>2019-09-26T10:48:35Z</time>
      </trkpt>
      <trkpt lat="47.72743" lon="6.53049">
        <ele>330.108</ele>
        <time>2019-09-26T10:48:38Z</time>
      </trkpt>
      <trkpt lat="47.72728" lon="6.53053">
        <ele>329.706</ele>
        <time>2019-09-26T10:48:41Z</time>
      </trkpt>
      <trkpt lat="47.7271" lon="6.53059">
        <ele>328.642</ele>
        <time>2019-09-26T10:48:44Z</time>
      </trkpt>
      <trkpt lat="47.72692" lon="6.53064">
        <ele>327.113</ele>
        <time>2019-09-26T10:48:47Z</time>
      </trkpt>
      <trkpt lat="47.72673" lon="6.53072">
        <ele>325.592</ele>
        <time>2019-09-26T10:48:50Z</time>
      </trkpt>
      <trkpt lat="47.72654" lon="6.53083">
        <ele>324.182</ele>
        <time>2019-09-26T10:48:53Z</time>
      </trkpt>
      <trkpt lat="47.72637" lon="6.53096">
        <ele>323.446</ele>
        <time>2019-09-26T10:48:56Z</time>
      </trkpt>
      <trkpt lat="47.72622" lon="6.5311">
        <ele>322.493</ele>
        <time>2019-09-26T10:48:59Z</time>
      </trkpt>
      <trkpt lat="47.7261" lon="6.53122">
        <ele>321.13</ele>
        <time>2019-09-26T10:49:02Z</time>
      </trkpt>
      <trkpt lat="47.72597" lon="6.53134">
        <ele>320.311</ele>
        <time>2019-09-26T10:49:05Z</time>
      </trkpt>
      <trkpt lat="47.72582" lon="6.53142">
        <ele>319.664</ele>
        <time>2019-09-26T10:49:08Z</time>
      </trkpt>
      <trkpt lat="47.72568" lon="6.53149">
        <ele>319.811</ele>
        <time>2019-09-26T10:49:11Z</time>
      </trkpt>
      <trkpt lat="47.72554" lon="6.53154">
        <ele>320.649</ele>
        <time>2019-09-26T10:49:14Z</time>
      </trkpt>
      <trkpt lat="47.72538" lon="6.53157">
        <ele>321.315</ele>
        <time>2019-09-26T10:49:17Z</time>
      </trkpt>
      <trkpt lat="47.72524" lon="6.5316">
        <ele>321.892</ele>
        <time>2019-09-26T10:49:20Z</time>
      </trkpt>
      <trkpt lat="47.7251" lon="6.53161">
        <ele>322.057</ele>
        <time>2019-09-26T10:49:23Z</time>
      </trkpt>
      <trkpt lat="47.72496" lon="6.53164">
        <ele>322.166</ele>
        <time>2019-09-26T10:49:26Z</time>
      </trkpt>
      <trkpt lat="47.7248" lon="6.53166">
        <ele>322.071</ele>
        <time>2019-09-26T10:49:29Z</time>
      </trkpt>
      <trkpt lat="47.72465" lon="6.53168">
        <ele>322.167</ele>
        <time>2019-09-26T10:49:32Z</time>
      </trkpt>
      <trkpt lat="47.7245" lon="6.53173">
        <ele>322.218</ele>
        <time>2019-09-26T10:49:35Z</time>
      </trkpt>
      <trkpt lat="47.72435" lon="6.53177">
        <ele>321.8</ele>
        <time>2019-09-26T10:49:38Z</time>
      </trkpt>
      <trkpt lat="47.72418" lon="6.53181">
        <ele>320.97</ele>
        <time>2019-09-26T10:49:41Z</time>
      </trkpt>
      <trkpt lat="47.72403" lon="6.53185">
        <ele>320.27</ele>
        <time>2019-09-26T10:49:44Z</time>
      </trkpt>
      <trkpt lat="47.72388" lon="6.53189">
        <ele>319.872</ele>
        <time>2019-09-26T10:49:47Z</time>
      </trkpt>
      <trkpt lat="47.72375" lon="6.53193">
        <ele>319.712</ele>
        <time>2019-09-26T10:49:50Z</time>
      </trkpt>
      <trkpt lat="47.72359" lon="6.53197">
        <ele>319.298</ele>
        <time>2019-09-26T10:49:53Z</time>
      </trkpt>
      <trkpt lat="47.72344" lon="6.532">
        <ele>318.699</ele>
        <time>2019-09-26T10:49:56Z</time>
      </trkpt>
      <trkpt lat="47.72329" lon="6.53201">
        <ele>318.184</ele>
        <time>2019-09-26T10:49:59Z</time>
      </trkpt>
      <trkpt lat="47.72314" lon="6.53201">
        <ele>317.443</ele>
        <time>2019-09-26T10:50:02Z</time>
      </trkpt>
      <trkpt lat="47.72299" lon="6.53199">
        <ele>316.748</ele>
        <time>2019-09-26T10:50:05Z</time>
      </trkpt>
      <trkpt lat="47.72284" lon="6.53198">
        <ele>317.041</ele>
        <time>2019-09-26T10:50:08Z</time>
      </trkpt>
      <trkpt lat="47.72273" lon="6.53198">
        <ele>317.318</ele>
        <time>2019-09-26T10:50:11Z</time>
      </trkpt>
      <trkpt lat="47.72264" lon="6.53197">
        <ele>318.197</ele>
        <time>2019-09-26T10:50:14Z</time>
      </trkpt>
      <trkpt lat="47.72255" lon="6.53195">
        <ele>318.109</ele>
        <time>2019-09-26T10:50:17Z</time>
      </trkpt>
      <trkpt lat="47.72247" lon="6.53194">
        <ele>318.729</ele>
        <time>2019-09-26T10:50:20Z</time>
      </trkpt>
      <trkpt lat="47.72233" lon="6.53196">
        <ele>317.856</ele>
        <time>2019-09-26T10:50:23Z</time>
      </trkpt>
      <trkpt lat="47.72218" lon="6.53196">
        <ele>317.542</ele>
        <time>2019-09-26T10:50:26Z</time>
      </trkpt>
      <trkpt lat="47.72203" lon="6.53197">
        <ele>317.632</ele>
        <time>2019-09-26T10:50:29Z</time>
      </trkpt>
      <trkpt lat="47.72188" lon="6.53196">
        <ele>318.195</ele>
        <time>2019-09-26T10:50:32Z</time>
      </trkpt>
      <trkpt lat="47.72179" lon="6.53198">
        <ele>318.408</ele>
        <time>2019-09-26T10:50:35Z</time>
      </trkpt>
      <trkpt lat="47.72165" lon="6.53204">
        <ele>318.949</ele>
        <time>2019-09-26T10:50:38Z</time>
      </trkpt>
      <trkpt lat="47.72149" lon="6.53215">
        <ele>320.826</ele>
        <time>2019-09-26T10:50:41Z</time>
      </trkpt>
      <trkpt lat="47.72138" lon="6.53222">
        <ele>322.26</ele>
        <time>2019-09-26T10:50:44Z</time>
      </trkpt>
      <trkpt lat="47.72123" lon="6.53227">
        <ele>323.893</ele>
        <time>2019-09-26T10:50:47Z</time>
      </trkpt>
      <trkpt lat="47.72107" lon="6.53224">
        <ele>324.605</ele>
        <time>2019-09-26T10:50:50Z</time>
      </trkpt>
      <trkpt lat="47.72087" lon="6.5322">
        <ele>324.643</ele>
        <time>2019-09-26T10:50:53Z</time>
      </trkpt>
      <trkpt lat="47.72061" lon="6.53223">
        <ele>323.666</ele>
        <time>2019-09-26T10:50:56Z</time>
      </trkpt>
      <trkpt lat="47.72035" lon="6.5323">
        <ele>322.317</ele>
        <time>2019-09-26T10:50:59Z</time>
      </trkpt>
      <trkpt lat="47.72008" lon="6.53239">
        <ele>320.593</ele>
        <time>2019-09-26T10:51:02Z</time>
      </trkpt>
      <trkpt lat="47.71984" lon="6.53247">
        <ele>319.204</ele>
        <time>2019-09-26T10:51:05Z</time>
      </trkpt>
      <trkpt lat="47.71959" lon="6.53252">
        <ele>319.058</ele>
        <time>2019-09-26T10:51:08Z</time>
      </trkpt>
      <trkpt lat="47.71936" lon="6.53261">
        <ele>319.119</ele>
        <time>2019-09-26T10:51:11Z</time>
      </trkpt>
      <trkpt lat="47.71915" lon="6.53264">
        <ele>317.071</ele>
        <time>2019-09-26T10:51:14Z</time>
      </trkpt>
      <trkpt lat="47.71894" lon="6.53261">
        <ele>314.331</ele>
        <time>2019-09-26T10:51:17Z</time>
      </trkpt>
      <trkpt lat="47.71877" lon="6.53256">
        <ele>312.129</ele>
        <time>2019-09-26T10:51:20Z</time>
      </trkpt>
      <trkpt lat="47.71861" lon="6.5325">
        <ele>310.202</ele>
        <time>2019-09-26T10:51:23Z</time>
      </trkpt>
      <trkpt lat="47.71847" lon="6.53238">
        <ele>308.106</ele>
        <time>2019-09-26T10:51:26Z</time>
      </trkpt>
      <trkpt lat="47.71834" lon="6.53224">
        <ele>306.59</ele>
        <time>2019-09-26T10:51:29Z</time>
      </trkpt>
      <trkpt lat="47.71822" lon="6.53212">
        <ele>305.318</ele>
        <time>2019-09-26T10:51:32Z</time>
      </trkpt>
      <trkpt lat="47.7181" lon="6.53199">
        <ele>303.85</ele>
        <time>2019-09-26T10:51:35Z</time>
      </trkpt>
      <trkpt lat="47.71797" lon="6.53187">
        <ele>302.984</ele>
        <time>2019-09-26T10:51:38Z</time>
      </trkpt>
      <trkpt lat="47.71785" lon="6.53176">
        <ele>302.33</ele>
        <time>2019-09-26T10:51:41Z</time>
      </trkpt>
      <trkpt lat="47.71772" lon="6.53164">
        <ele>301.892</ele>
        <time>2019-09-26T10:51:44Z</time>
      </trkpt>
      <trkpt lat="47.71759" lon="6.53152">
        <ele>301.129</ele>
        <time>2019-09-26T10:51:47Z</time>
      </trkpt>
      <trkpt lat="47.71747" lon="6.53141">
        <ele>300.739</ele>
        <time>2019-09-26T10:51:50Z</time>
      </trkpt>
      <trkpt lat="47.71734" lon="6.5313">
        <ele>300.772</ele>
        <time>2019-09-26T10:51:53Z</time>
      </trkpt>
      <trkpt lat="47.71722" lon="6.53119">
        <ele>300.606</ele>
        <time>2019-09-26T10:51:56Z</time>
      </trkpt>
      <trkpt lat="47.71709" lon="6.53108">
        <ele>300.307</ele>
        <time>2019-09-26T10:51:59Z</time>
      </trkpt>
      <trkpt lat="47.71696" lon="6.531">
        <ele>301.019</ele>
        <time>2019-09-26T10:52:02Z</time>
      </trkpt>
      <trkpt lat="47.71683" lon="6.53094">
        <ele>301.341</ele>
        <time>2019-09-26T10:52:05Z</time>
      </trkpt>
      <trkpt lat="47.7167" lon="6.5309">
        <ele>301.589</ele>
        <time>2019-09-26T10:52:08Z</time>
      </trkpt>
      <trkpt lat="47.71656" lon="6.53088">
        <ele>302.07</ele>
        <time>2019-09-26T10:52:11Z</time>
      </trkpt>
      <trkpt lat="47.71642" lon="6.53089">
        <ele>302.594</ele>
        <time>2019-09-26T10:52:14Z</time>
      </trkpt>
      <trkpt lat="47.71627" lon="6.53089">
        <ele>303.459</ele>
        <time>2019-09-26T10:52:17Z</time>
      </trkpt>
      <trkpt lat="47.7161" lon="6.53088">
        <ele>304.503</ele>
        <time>2019-09-26T10:52:20Z</time>
      </trkpt>
      <trkpt lat="47.71595" lon="6.53088">
        <ele>305.493</ele>
        <time>2019-09-26T10:52:23Z</time>
      </trkpt>
      <trkpt lat="47.71579" lon="6.53088">
        <ele>306.746</ele>
        <time>2019-09-26T10:52:26Z</time>
      </trkpt>
      <trkpt lat="47.71565" lon="6.53087">
        <ele>307.482</ele>
        <time>2019-09-26T10:52:29Z</time>
      </trkpt>
      <trkpt lat="47.7155" lon="6.53088">
        <ele>307.882</ele>
        <time>2019-09-26T10:52:32Z</time>
      </trkpt>
      <trkpt lat="47.71535" lon="6.53087">
        <ele>308.137</ele>
        <time>2019-09-26T10:52:35Z</time>
      </trkpt>
      <trkpt lat="47.71521" lon="6.53087">
        <ele>308.358</ele>
        <time>2019-09-26T10:52:38Z</time>
      </trkpt>
      <trkpt lat="47.71508" lon="6.53087">
        <ele>308.535</ele>
        <time>2019-09-26T10:52:41Z</time>
      </trkpt>
      <trkpt lat="47.71496" lon="6.53086">
        <ele>309.401</ele>
        <time>2019-09-26T10:52:44Z</time>
      </trkpt>
      <trkpt lat="47.71482" lon="6.53085">
        <ele>310.408</ele>
        <time>2019-09-26T10:52:47Z</time>
      </trkpt>
      <trkpt lat="47.71469" lon="6.53086">
        <ele>311.063</ele>
        <time>2019-09-26T10:52:50Z</time>
      </trkpt>
      <trkpt lat="47.71454" lon="6.53087">
        <ele>311.717</ele>
        <time>2019-09-26T10:52:53Z</time>
      </trkpt>
      <trkpt lat="47.71439" lon="6.53087">
        <ele>311.501</ele>
        <time>2019-09-26T10:52:56Z</time>
      </trkpt>
      <trkpt lat="47.71423" lon="6.53086">
        <ele>310.339</ele>
        <time>2019-09-26T10:52:59Z</time>
      </trkpt>
      <trkpt lat="47.71408" lon="6.53086">
        <ele>309.467</ele>
        <time>2019-09-26T10:53:02Z</time>
      </trkpt>
      <trkpt lat="47.71394" lon="6.53085">
        <ele>309.231</ele>
        <time>2019-09-26T10:53:05Z</time>
      </trkpt>
      <trkpt lat="47.71379" lon="6.53085">
        <ele>309.137</ele>
        <time>2019-09-26T10:53:08Z</time>
      </trkpt>
      <trkpt lat="47.71364" lon="6.53086">
        <ele>309.075</ele>
        <time>2019-09-26T10:53:11Z</time>
      </trkpt>
      <trkpt lat="47.7135" lon="6.53085">
        <ele>308.875</ele>
        <time>2019-09-26T10:53:14Z</time>
      </trkpt>
      <trkpt lat="47.71336" lon="6.53084">
        <ele>308.757</ele>
        <time>2019-09-26T10:53:17Z</time>
      </trkpt>
      <trkpt lat="47.71321" lon="6.53082">
        <ele>308.776</ele>
        <time>2019-09-26T10:53:20Z</time>
      </trkpt>
      <trkpt lat="47.71306" lon="6.53079">
        <ele>308.391</ele>
        <time>2019-09-26T10:53:23Z</time>
      </trkpt>
      <trkpt lat="47.71291" lon="6.53076">
        <ele>307.941</ele>
        <time>2019-09-26T10:53:26Z</time>
      </trkpt>
      <trkpt lat="47.71277" lon="6.53072">
        <ele>307.504</ele>
        <time>2019-09-26T10:53:29Z</time>
      </trkpt>
      <trkpt lat="47.71263" lon="6.53069">
        <ele>307.351</ele>
        <time>2019-09-26T10:53:32Z</time>
      </trkpt>
      <trkpt lat="47.71248" lon="6.53066">
        <ele>306.79</ele>
        <time>2019-09-26T10:53:35Z</time>
      </trkpt>
      <trkpt lat="47.71233" lon="6.53062">
        <ele>306.383</ele>
        <time>2019-09-26T10:53:38Z</time>
      </trkpt>
      <trkpt lat="47.71218" lon="6.53057">
        <ele>306.244</ele>
        <time>2019-09-26T10:53:41Z</time>
      </trkpt>
      <trkpt lat="47.71205" lon="6.53052">
        <ele>306.048</ele>
        <time>2019-09-26T10:53:44Z</time>
      </trkpt>
      <trkpt lat="47.7119" lon="6.53047">
        <ele>305.836</ele>
        <time>2019-09-26T10:53:47Z</time>
      </trkpt>
      <trkpt lat="47.71176" lon="6.53039">
        <ele>306.005</ele>
        <time>2019-09-26T10:53:50Z</time>
      </trkpt>
      <trkpt lat="47.71162" lon="6.53028">
        <ele>305.687</ele>
        <time>2019-09-26T10:53:53Z</time>
      </trkpt>
      <trkpt lat="47.7115" lon="6.53017">
        <ele>304.74</ele>
        <time>2019-09-26T10:53:56Z</time>
      </trkpt>
      <trkpt lat="47.71136" lon="6.53008">
        <ele>304.284</ele>
        <time>2019-09-26T10:53:59Z</time>
      </trkpt>
      <trkpt lat="47.71122" lon="6.53">
        <ele>303.703</ele>
        <time>2019-09-26T10:54:02Z</time>
      </trkpt>
      <trkpt lat="47.71107" lon="6.52998">
        <ele>303.276</ele>
        <time>2019-09-26T10:54:05Z</time>
      </trkpt>
      <trkpt lat="47.71094" lon="6.52998">
        <ele>303.238</ele>
        <time>2019-09-26T10:54:08Z</time>
      </trkpt>
      <trkpt lat="47.71081" lon="6.53003">
        <ele>303.251</ele>
        <time>2019-09-26T10:54:11Z</time>
      </trkpt>
      <trkpt lat="47.71069" lon="6.53011">
        <ele>303.577</ele>
        <time>2019-09-26T10:54:14Z</time>
      </trkpt>
      <trkpt lat="47.71056" lon="6.53019">
        <ele>304.967</ele>
        <time>2019-09-26T10:54:17Z</time>
      </trkpt>
      <trkpt lat="47.71043" lon="6.53026">
        <ele>305.874</ele>
        <time>2019-09-26T10:54:20Z</time>
      </trkpt>
      <trkpt lat="47.71029" lon="6.53031">
        <ele>306.549</ele>
        <time>2019-09-26T10:54:23Z</time>
      </trkpt>
      <trkpt lat="47.71015" lon="6.53036">
        <ele>307.321</ele>
        <time>2019-09-26T10:54:26Z</time>
      </trkpt>
      <trkpt lat="47.71001" lon="6.53038">
        <ele>307.981</ele>
        <time>2019-09-26T10:54:29Z</time>
      </trkpt>
      <trkpt lat="47.70986" lon="6.53036">
        <ele>307.789</ele>
        <time>2019-09-26T10:54:32Z</time>
      </trkpt>
      <trkpt lat="47.70972" lon="6.53028">
        <ele>307.235</ele>
        <time>2019-09-26T10:54:35Z</time>
      </trkpt>
      <trkpt lat="47.70959" lon="6.5302">
        <ele>306.878</ele>
        <time>2019-09-26T10:54:38Z</time>
      </trkpt>
      <trkpt lat="47.70945" lon="6.53014">
        <ele>306.432</ele>
        <time>2019-09-26T10:54:41Z</time>
      </trkpt>
      <trkpt lat="47.70929" lon="6.53008">
        <ele>306.054</ele>
        <time>2019-09-26T10:54:44Z</time>
      </trkpt>
      <trkpt lat="47.70912" lon="6.53004">
        <ele>305.783</ele>
        <time>2019-09-26T10:54:47Z</time>
      </trkpt>
      <trkpt lat="47.70897" lon="6.53002">
        <ele>305.721</ele>
        <time>2019-09-26T10:54:50Z</time>
      </trkpt>
      <trkpt lat="47.70882" lon="6.53">
        <ele>306.083</ele>
        <time>2019-09-26T10:54:53Z</time>
      </trkpt>
      <trkpt lat="47.70866" lon="6.53">
        <ele>306.62</ele>
        <time>2019-09-26T10:54:56Z</time>
      </trkpt>
      <trkpt lat="47.70851" lon="6.53009">
        <ele>306.92</ele>
        <time>2019-09-26T10:54:59Z</time>
      </trkpt>
      <trkpt lat="47.70838" lon="6.53021">
        <ele>307.02</ele>
        <time>2019-09-26T10:55:02Z</time>
      </trkpt>
      <trkpt lat="47.70828" lon="6.53035">
        <ele>307.269</ele>
        <time>2019-09-26T10:55:05Z</time>
      </trkpt>
      <trkpt lat="47.70817" lon="6.53049">
        <ele>307.503</ele>
        <time>2019-09-26T10:55:08Z</time>
      </trkpt>
      <trkpt lat="47.70805" lon="6.53063">
        <ele>308.092</ele>
        <time>2019-09-26T10:55:11Z</time>
      </trkpt>
      <trkpt lat="47.70792" lon="6.53078">
        <ele>308.547</ele>
        <time>2019-09-26T10:55:14Z</time>
      </trkpt>
      <trkpt lat="47.70783" lon="6.53092">
        <ele>308.424</ele>
        <time>2019-09-26T10:55:17Z</time>
      </trkpt>
      <trkpt lat="47.70774" lon="6.53107">
        <ele>307.784</ele>
        <time>2019-09-26T10:55:20Z</time>
      </trkpt>
      <trkpt lat="47.70757" lon="6.53115">
        <ele>307.169</ele>
        <time>2019-09-26T10:55:23Z</time>
      </trkpt>
      <trkpt lat="47.70739" lon="6.53121">
        <ele>306.385</ele>
        <time>2019-09-26T10:55:26Z</time>
      </trkpt>
      <trkpt lat="47.70723" lon="6.53127">
        <ele>306.63</ele>
        <time>2019-09-26T10:55:29Z</time>
      </trkpt>
      <trkpt lat="47.70706" lon="6.53133">
        <ele>307.456</ele>
        <time>2019-09-26T10:55:32Z</time>
      </trkpt>
      <trkpt lat="47.7069" lon="6.53141">
        <ele>308.118</ele>
        <time>2019-09-26T10:55:35Z</time>
      </trkpt>
      <trkpt lat="47.70675" lon="6.53141">
        <ele>308.277</ele>
        <time>2019-09-26T10:55:38Z</time>
      </trkpt>
      <trkpt lat="47.7066" lon="6.5314">
        <ele>308.41</ele>
        <time>2019-09-26T10:55:41Z</time>
      </trkpt>
      <trkpt lat="47.70643" lon="6.53136">
        <ele>308.156</ele>
        <time>2019-09-26T10:55:44Z</time>
      </trkpt>
      <trkpt lat="47.7063" lon="6.5313">
        <ele>306.961</ele>
        <time>2019-09-26T10:55:47Z</time>
      </trkpt>
      <trkpt lat="47.70617" lon="6.53119">
        <ele>304.847</ele>
        <time>2019-09-26T10:55:50Z</time>
      </trkpt>
      <trkpt lat="47.70606" lon="6.53106">
        <ele>303.463</ele>
        <time>2019-09-26T10:55:53Z</time>
      </trkpt>
      <trkpt lat="47.70593" lon="6.53093">
        <ele>302.543</ele>
        <time>2019-09-26T10:55:56Z</time>
      </trkpt>
      <trkpt lat="47.7058" lon="6.53081">
        <ele>301.833</ele>
        <time>2019-09-26T10:55:59Z</time>
      </trkpt>
      <trkpt lat="47.70567" lon="6.53072">
        <ele>301.34</ele>
        <time>2019-09-26T10:56:02Z</time>
      </trkpt>
      <trkpt lat="47.70553" lon="6.53065">
        <ele>300.955</ele>
        <time>2019-09-26T10:56:05Z</time>
      </trkpt>
      <trkpt lat="47.70539" lon="6.5306">
        <ele>301.217</ele>
        <time>2019-09-26T10:56:08Z</time>
      </trkpt>
      <trkpt lat="47.70524" lon="6.53053">
        <ele>301.654</ele>
        <time>2019-09-26T10:56:11Z</time>
      </trkpt>
      <trkpt lat="47.7051" lon="6.53047">
        <ele>302.22</ele>
        <time>2019-09-26T10:56:14Z</time>
      </trkpt>
      <trkpt lat="47.70495" lon="6.53042">
        <ele>302.55</ele>
        <time>2019-09-26T10:56:17Z</time>
      </trkpt>
      <trkpt lat="47.70479" lon="6.53037">
        <ele>302.432</ele>
        <time>2019-09-26T10:56:20Z</time>
      </trkpt>
      <trkpt lat="47.70463" lon="6.53032">
        <ele>302.679</ele>
        <time>2019-09-26T10:56:23Z</time>
      </trkpt>
      <trkpt lat="47.70447" lon="6.53029">
        <ele>302.782</ele>
        <time>2019-09-26T10:56:26Z</time>
      </trkpt>
      <trkpt lat="47.7043" lon="6.53028">
        <ele>303.653</ele>
        <time>2019-09-26T10:56:29Z</time>
      </trkpt>
      <trkpt lat="47.70413" lon="6.53028">
        <ele>304.239</ele>
        <time>2019-09-26T10:56:32Z</time>
      </trkpt>
      <trkpt lat="47.70398" lon="6.53028">
        <ele>304.304</ele>
        <time>2019-09-26T10:56:35Z</time>
      </trkpt>
      <trkpt lat="47.70383" lon="6.53029">
        <ele>304.677</ele>
        <time>2019-09-26T10:56:38Z</time>
      </trkpt>
      <trkpt lat="47.70369" lon="6.53027">
        <ele>305.358</ele>
        <time>2019-09-26T10:56:41Z</time>
      </trkpt>
      <trkpt lat="47.70353" lon="6.53027">
        <ele>305.517</ele>
        <time>2019-09-26T10:56:44Z</time>
      </trkpt>
      <trkpt lat="47.70337" lon="6.53027">
        <ele>305.399</ele>
        <time>2019-09-26T10:56:47Z</time>
      </trkpt>
      <trkpt lat="47.70321" lon="6.53028">
        <ele>305.612</ele>
        <time>2019-09-26T10:56:50Z</time>
      </trkpt>
      <trkpt lat="47.70306" lon="6.53028">
        <ele>305.782</ele>
        <time>2019-09-26T10:56:53Z</time>
      </trkpt>
      <trkpt lat="47.70291" lon="6.53027">
        <ele>306.267</ele>
        <time>2019-09-26T10:56:56Z</time>
      </trkpt>
      <trkpt lat="47.70276" lon="6.53026">
        <ele>306.967</ele>
        <time>2019-09-26T10:56:59Z</time>
      </trkpt>
      <trkpt lat="47.7026" lon="6.53024">
        <ele>307.125</ele>
        <time>2019-09-26T10:57:02Z</time>
      </trkpt>
      <trkpt lat="47.70246" lon="6.53021">
        <ele>307.27</ele>
        <time>2019-09-26T10:57:05Z</time>
      </trkpt>
      <trkpt lat="47.70232" lon="6.53018">
        <ele>306.991</ele>
        <time>2019-09-26T10:57:08Z</time>
      </trkpt>
      <trkpt lat="47.70217" lon="6.53013">
        <ele>306.664</ele>
        <time>2019-09-26T10:57:11Z</time>
      </trkpt>
      <trkpt lat="47.70202" lon="6.53009">
        <ele>305.61</ele>
        <time>2019-09-26T10:57:14Z</time>
      </trkpt>
      <trkpt lat="47.70188" lon="6.53004">
        <ele>304.23</ele>
        <time>2019-09-26T10:57:17Z</time>
      </trkpt>
      <trkpt lat="47.70174" lon="6.52998">
        <ele>303.443</ele>
        <time>2019-09-26T10:57:20Z</time>
      </trkpt>
      <trkpt lat="47.7016" lon="6.52993">
        <ele>302.989</ele>
        <time>2019-09-26T10:57:23Z</time>
      </trkpt>
      <trkpt lat="47.70145" lon="6.52988">
        <ele>302.307</ele>
        <time>2019-09-26T10:57:26Z</time>
      </trkpt>
      <trkpt lat="47.70131" lon="6.52984">
        <ele>301.621</ele>
        <time>2019-09-26T10:57:29Z</time>
      </trkpt>
      <trkpt lat="47.70117" lon="6.52981">
        <ele>301.254</ele>
        <time>2019-09-26T10:57:32Z</time>
      </trkpt>
      <trkpt lat="47.70104" lon="6.52977">
        <ele>300.911</ele>
        <time>2019-09-26T10:57:35Z</time>
      </trkpt>
      <trkpt lat="47.7009" lon="6.52972">
        <ele>300.656</ele>
        <time>2019-09-26T10:57:38Z</time>
      </trkpt>
      <trkpt lat="47.70076" lon="6.52968">
        <ele>300.721</ele>
        <time>2019-09-26T10:57:41Z</time>
      </trkpt>
      <trkpt lat="47.70061" lon="6.52963">
        <ele>300.772</ele>
        <time>2019-09-26T10:57:44Z</time>
      </trkpt>
      <trkpt lat="47.70047" lon="6.52958">
        <ele>300.675</ele>
        <time>2019-09-26T10:57:47Z</time>
      </trkpt>
      <trkpt lat="47.70033" lon="6.52954">
        <ele>300.819</ele>
        <time>2019-09-26T10:57:50Z</time>
      </trkpt>
      <trkpt lat="47.70018" lon="6.52946">
        <ele>301.05</ele>
        <time>2019-09-26T10:57:53Z</time>
      </trkpt>
      <trkpt lat="47.70004" lon="6.52936">
        <ele>301.507</ele>
        <time>2019-09-26T10:57:56Z</time>
      </trkpt>
      <trkpt lat="47.69992" lon="6.52927">
        <ele>301.552</ele>
        <time>2019-09-26T10:57:59Z</time>
      </trkpt>
      <trkpt lat="47.69978" lon="6.5292">
        <ele>301.576</ele>
        <time>2019-09-26T10:58:02Z</time>
      </trkpt>
      <trkpt lat="47.69963" lon="6.52914">
        <ele>300.803</ele>
        <time>2019-09-26T10:58:05Z</time>
      </trkpt>
      <trkpt lat="47.69947" lon="6.52907">
        <ele>300.251</ele>
        <time>2019-09-26T10:58:08Z</time>
      </trkpt>
      <trkpt lat="47.69932" lon="6.529">
        <ele>299.847</ele>
        <time>2019-09-26T10:58:11Z</time>
      </trkpt>
      <trkpt lat="47.69916" lon="6.52893">
        <ele>299.345</ele>
        <time>2019-09-26T10:58:14Z</time>
      </trkpt>
      <trkpt lat="47.69903" lon="6.52887">
        <ele>299.55</ele>
        <time>2019-09-26T10:58:17Z</time>
      </trkpt>
      <trkpt lat="47.6989" lon="6.52881">
        <ele>299.821</ele>
        <time>2019-09-26T10:58:20Z</time>
      </trkpt>
      <trkpt lat="47.69879" lon="6.52875">
        <ele>300.115</ele>
        <time>2019-09-26T10:58:23Z</time>
      </trkpt>
      <trkpt lat="47.69868" lon="6.52862">
        <ele>300.531</ele>
        <time>2019-09-26T10:58:26Z</time>
      </trkpt>
      <trkpt lat="47.69861" lon="6.5285">
        <ele>300.812</ele>
        <time>2019-09-26T10:58:29Z</time>
      </trkpt>
      <trkpt lat="47.69849" lon="6.5284">
        <ele>300.959</ele>
        <time>2019-09-26T10:58:32Z</time>
      </trkpt>
      <trkpt lat="47.69833" lon="6.52837">
        <ele>301.221</ele>
        <time>2019-09-26T10:58:35Z</time>
      </trkpt>
      <trkpt lat="47.69815" lon="6.52833">
        <ele>302.008</ele>
        <time>2019-09-26T10:58:38Z</time>
      </trkpt>
      <trkpt lat="47.69798" lon="6.52829">
        <ele>302.661</ele>
        <time>2019-09-26T10:58:41Z</time>
      </trkpt>
      <trkpt lat="47.69782" lon="6.52826">
        <ele>303.757</ele>
        <time>2019-09-26T10:58:44Z</time>
      </trkpt>
      <trkpt lat="47.69766" lon="6.52823">
        <ele>304.892</ele>
        <time>2019-09-26T10:58:47Z</time>
      </trkpt>
      <trkpt lat="47.6975" lon="6.5282">
        <ele>304.9</ele>
        <time>2019-09-26T10:58:50Z</time>
      </trkpt>
      <trkpt lat="47.69734" lon="6.52817">
        <ele>304.336</ele>
        <time>2019-09-26T10:58:53Z</time>
      </trkpt>
      <trkpt lat="47.69717" lon="6.52813">
        <ele>303.357</ele>
        <time>2019-09-26T10:58:56Z</time>
      </trkpt>
      <trkpt lat="47.69703" lon="6.52809">
        <ele>302.493</ele>
        <time>2019-09-26T10:58:59Z</time>
      </trkpt>
      <trkpt lat="47.69688" lon="6.52803">
        <ele>301.526</ele>
        <time>2019-09-26T10:59:02Z</time>
      </trkpt>
      <trkpt lat="47.69673" lon="6.52799">
        <ele>300.79</ele>
        <time>2019-09-26T10:59:05Z</time>
      </trkpt>
      <trkpt lat="47.69659" lon="6.52795">
        <ele>300.717</ele>
        <time>2019-09-26T10:59:08Z</time>
      </trkpt>
      <trkpt lat="47.69644" lon="6.52792">
        <ele>300.825</ele>
        <time>2019-09-26T10:59:11Z</time>
      </trkpt>
      <trkpt lat="47.6963" lon="6.5279">
        <ele>300.629</ele>
        <time>2019-09-26T10:59:14Z</time>
      </trkpt>
      <trkpt lat="47.69616" lon="6.5279">
        <ele>301.082</ele>
        <time>2019-09-26T10:59:17Z</time>
      </trkpt>
      <trkpt lat="47.69604" lon="6.52792">
        <ele>301.907</ele>
        <time>2019-09-26T10:59:20Z</time>
      </trkpt>
      <trkpt lat="47.69593" lon="6.52794">
        <ele>302.757</ele>
        <time>2019-09-26T10:59:23Z</time>
      </trkpt>
      <trkpt lat="47.69581" lon="6.52794">
        <ele>303.871</ele>
        <time>2019-09-26T10:59:26Z</time>
      </trkpt>
      <trkpt lat="47.69567" lon="6.52795">
        <ele>304.137</ele>
        <time>2019-09-26T10:59:29Z</time>
      </trkpt>
      <trkpt lat="47.69552" lon="6.52795">
        <ele>304.402</ele>
        <time>2019-09-26T10:59:32Z</time>
      </trkpt>
      <trkpt lat="47.69537" lon="6.52792">
        <ele>303.377</ele>
        <time>2019-09-26T10:59:35Z</time>
      </trkpt>
      <trkpt lat="47.6952" lon="6.52789">
        <ele>303.517</ele>
        <time>2019-09-26T10:59:38Z</time>
      </trkpt>
      <trkpt lat="47.69503" lon="6.52784">
        <ele>304.13</ele>
        <time>2019-09-26T10:59:41Z</time>
      </trkpt>
      <trkpt lat="47.69488" lon="6.52781">
        <ele>304.99</ele>
        <time>2019-09-26T10:59:44Z</time>
      </trkpt>
      <trkpt lat="47.69474" lon="6.52777">
        <ele>305.724</ele>
        <time>2019-09-26T10:59:47Z</time>
      </trkpt>
      <trkpt lat="47.6946" lon="6.52775">
        <ele>306.178</ele>
        <time>2019-09-26T10:59:50Z</time>
      </trkpt>
      <trkpt lat="47.69447" lon="6.52772">
        <ele>307.018</ele>
        <time>2019-09-26T10:59:53Z</time>
      </trkpt>
      <trkpt lat="47.69434" lon="6.52768">
        <ele>307.128</ele>
        <time>2019-09-26T10:59:56Z</time>
      </trkpt>
      <trkpt lat="47.69417" lon="6.52759">
        <ele>306.169</ele>
        <time>2019-09-26T10:59:59Z</time>
      </trkpt>
      <trkpt lat="47.69401" lon="6.52748">
        <ele>303.626</ele>
        <time>2019-09-26T11:00:02Z</time>
      </trkpt>
      <trkpt lat="47.69387" lon="6.52737">
        <ele>302.424</ele>
        <time>2019-09-26T11:00:05Z</time>
      </trkpt>
      <trkpt lat="47.69373" lon="6.52728">
        <ele>301.743</ele>
        <time>2019-09-26T11:00:08Z</time>
      </trkpt>
      <trkpt lat="47.69362" lon="6.52716">
        <ele>302.06</ele>
        <time>2019-09-26T11:00:11Z</time>
      </trkpt>
      <trkpt lat="47.69352" lon="6.52705">
        <ele>302.515</ele>
        <time>2019-09-26T11:00:14Z</time>
      </trkpt>
      <trkpt lat="47.69342" lon="6.52692">
        <ele>303.073</ele>
        <time>2019-09-26T11:00:17Z</time>
      </trkpt>
      <trkpt lat="47.69331" lon="6.52681">
        <ele>301.77</ele>
        <time>2019-09-26T11:00:20Z</time>
      </trkpt>
      <trkpt lat="47.69322" lon="6.52669">
        <ele>300.622</ele>
        <time>2019-09-26T11:00:23Z</time>
      </trkpt>
      <trkpt lat="47.69313" lon="6.52656">
        <ele>300.149</ele>
        <time>2019-09-26T11:00:26Z</time>
      </trkpt>
      <trkpt lat="47.69304" lon="6.52643">
        <ele>299.578</ele>
        <time>2019-09-26T11:00:29Z</time>
      </trkpt>
      <trkpt lat="47.69295" lon="6.52628">
        <ele>299.593</ele>
        <time>2019-09-26T11:00:32Z</time>
      </trkpt>
      <trkpt lat="47.69287" lon="6.52614">
        <ele>299.403</ele>
        <time>2019-09-26T11:00:35Z</time>
      </trkpt>
      <trkpt lat="47.69278" lon="6.526">
        <ele>299.107</ele>
        <time>2019-09-26T11:00:38Z</time>
      </trkpt>
      <trkpt lat="47.69269" lon="6.52587">
        <ele>299.313</ele>
        <time>2019-09-26T11:00:41Z</time>
      </trkpt>
      <trkpt lat="47.69261" lon="6.52575">
        <ele>299.768</ele>
        <time>2019-09-26T11:00:44Z</time>
      </trkpt>
      <trkpt lat="47.69254" lon="6.52562">
        <ele>300.156</ele>
        <time>2019-09-26T11:00:47Z</time>
      </trkpt>
      <trkpt lat="47.69247" lon="6.52547">
        <ele>300.719</ele>
        <time>2019-09-26T11:00:50Z</time>
      </trkpt>
      <trkpt lat="47.69238" lon="6.52533">
        <ele>300.851</ele>
        <time>2019-09-26T11:00:53Z</time>
      </trkpt>
      <trkpt lat="47.69229" lon="6.52518">
        <ele>301.47</ele>
        <time>2019-09-26T11:00:56Z</time>
      </trkpt>
      <trkpt lat="47.6922" lon="6.52502">
        <ele>301.965</ele>
        <time>2019-09-26T11:00:59Z</time>
      </trkpt>
      <trkpt lat="47.69209" lon="6.52486">
        <ele>302.336</ele>
        <time>2019-09-26T11:01:02Z</time>
      </trkpt>
      <trkpt lat="47.69198" lon="6.52469">
        <ele>302.699</ele>
        <time>2019-09-26T11:01:05Z</time>
      </trkpt>
      <trkpt lat="47.6919" lon="6.52454">
        <ele>302.971</ele>
        <time>2019-09-26T11:01:08Z</time>
      </trkpt>
      <trkpt lat="47.69181" lon="6.52438">
        <ele>303.148</ele>
        <time>2019-09-26T11:01:11Z</time>
      </trkpt>
      <trkpt lat="47.69171" lon="6.52422">
        <ele>303.672</ele>
        <time>2019-09-26T11:01:14Z</time>
      </trkpt>
      <trkpt lat="47.69161" lon="6.52407">
        <ele>303.984</ele>
        <time>2019-09-26T11:01:17Z</time>
      </trkpt>
      <trkpt lat="47.69149" lon="6.52391">
        <ele>303.725</ele>
        <time>2019-09-26T11:01:20Z</time>
      </trkpt>
      <trkpt lat="47.69134" lon="6.52378">
        <ele>302.674</ele>
        <time>2019-09-26T11:01:23Z</time>
      </trkpt>
      <trkpt lat="47.69117" lon="6.52367">
        <ele>302.127</ele>
        <time>2019-09-26T11:01:26Z</time>
      </trkpt>
      <trkpt lat="47.69098" lon="6.52358">
        <ele>301.323</ele>
        <time>2019-09-26T11:01:29Z</time>
      </trkpt>
      <trkpt lat="47.6908" lon="6.52353">
        <ele>301.121</ele>
        <time>2019-09-26T11:01:32Z</time>
      </trkpt>
      <trkpt lat="47.69064" lon="6.5235">
        <ele>301.34</ele>
        <time>2019-09-26T11:01:35Z</time>
      </trkpt>
      <trkpt lat="47.69048" lon="6.52345">
        <ele>301.722</ele>
        <time>2019-09-26T11:01:38Z</time>
      </trkpt>
      <trkpt lat="47.69034" lon="6.52338">
        <ele>301.8</ele>
        <time>2019-09-26T11:01:41Z</time>
      </trkpt>
      <trkpt lat="47.6902" lon="6.52332">
        <ele>301.463</ele>
        <time>2019-09-26T11:01:44Z</time>
      </trkpt>
      <trkpt lat="47.69005" lon="6.52325">
        <ele>300.846</ele>
        <time>2019-09-26T11:01:47Z</time>
      </trkpt>
      <trkpt lat="47.68992" lon="6.52316">
        <ele>300.457</ele>
        <time>2019-09-26T11:01:50Z</time>
      </trkpt>
      <trkpt lat="47.68978" lon="6.52307">
        <ele>299.858</ele>
        <time>2019-09-26T11:01:53Z</time>
      </trkpt>
      <trkpt lat="47.68964" lon="6.523">
        <ele>299.523</ele>
        <time>2019-09-26T11:01:56Z</time>
      </trkpt>
      <trkpt lat="47.68951" lon="6.52289">
        <ele>299.276</ele>
        <time>2019-09-26T11:01:59Z</time>
      </trkpt>
      <trkpt lat="47.68939" lon="6.52276">
        <ele>299.345</ele>
        <time>2019-09-26T11:02:02Z</time>
      </trkpt>
      <trkpt lat="47.68927" lon="6.52264">
        <ele>299.426</ele>
        <time>2019-09-26T11:02:05Z</time>
      </trkpt>
      <trkpt lat="47.68915" lon="6.5225">
        <ele>299.36</ele>
        <time>2019-09-26T11:02:08Z</time>
      </trkpt>
      <trkpt lat="47.68903" lon="6.52237">
        <ele>299.572</ele>
        <time>2019-09-26T11:02:11Z</time>
      </trkpt>
      <trkpt lat="47.6889" lon="6.52224">
        <ele>299.818</ele>
        <time>2019-09-26T11:02:14Z</time>
      </trkpt>
      <trkpt lat="47.68876" lon="6.52211">
        <ele>300.138</ele>
        <time>2019-09-26T11:02:17Z</time>
      </trkpt>
      <trkpt lat="47.68862" lon="6.52198">
        <ele>300.313</ele>
        <time>2019-09-26T11:02:20Z</time>
      </trkpt>
      <trkpt lat="47.68849" lon="6.52185">
        <ele>300.668</ele>
        <time>2019-09-26T11:02:23Z</time>
      </trkpt>
      <trkpt lat="47.68837" lon="6.52172">
        <ele>300.228</ele>
        <time>2019-09-26T11:02:26Z</time>
      </trkpt>
      <trkpt lat="47.68823" lon="6.5216">
        <ele>299.658</ele>
        <time>2019-09-26T11:02:29Z</time>
      </trkpt>
      <trkpt lat="47.68809" lon="6.52149">
        <ele>299.496</ele>
        <time>2019-09-26T11:02:32Z</time>
      </trkpt>
      <trkpt lat="47.68796" lon="6.52137">
        <ele>299.305</ele>
        <time>2019-09-26T11:02:35Z</time>
      </trkpt>
      <trkpt lat="47.68784" lon="6.52125">
        <ele>298.9</ele>
        <time>2019-09-26T11:02:38Z</time>
      </trkpt>
      <trkpt lat="47.68772" lon="6.52109">
        <ele>298.615</ele>
        <time>2019-09-26T11:02:41Z</time>
      </trkpt>
      <trkpt lat="47.68763" lon="6.52088">
        <ele>298.65</ele>
        <time>2019-09-26T11:02:44Z</time>
      </trkpt>
      <trkpt lat="47.68756" lon="6.52068">
        <ele>298.564</ele>
        <time>2019-09-26T11:02:47Z</time>
      </trkpt>
      <trkpt lat="47.68748" lon="6.52048">
        <ele>298.482</ele>
        <time>2019-09-26T09:02:50.001Z</time>
      </trkpt>
      <trkpt lat="47.6874" lon="6.52028">
        <ele>298.393</ele>
        <time>2019-09-26T09:02:53.001Z</time>
      </trkpt>
      <trkpt lat="47.6873" lon="6.5201">
        <ele>298.648</ele>
        <time>2019-09-26T09:02:56.001Z</time>
      </trkpt>
      <trkpt lat="47.6872" lon="6.51993">
        <ele>299.119</ele>
        <time>2019-09-26T09:02:59.001Z</time>
      </trkpt>
      <trkpt lat="47.68709" lon="6.51979">
        <ele>299.618</ele>
        <time>2019-09-26T11:03:02Z</time>
      </trkpt>
      <trkpt lat="47.68697" lon="6.5197">
        <ele>299.35</ele>
        <time>2019-09-26T09:03:05.001Z</time>
      </trkpt>
      <trkpt lat="47.68682" lon="6.51967">
        <ele>298.971</ele>
        <time>2019-09-26T09:03:08.001Z</time>
      </trkpt>
      <trkpt lat="47.68669" lon="6.51971">
        <ele>299.012</ele>
        <time>2019-09-26T09:03:11.001Z</time>
      </trkpt>
      <trkpt lat="47.68654" lon="6.51973">
        <ele>299.602</ele>
        <time>2019-09-26T09:03:14.001Z</time>
      </trkpt>
      <trkpt lat="47.68639" lon="6.51967">
        <ele>301.252</ele>
        <time>2019-09-26T09:03:17.001Z</time>
      </trkpt>
      <trkpt lat="47.68629" lon="6.51953">
        <ele>302.135</ele>
        <time>2019-09-26T09:03:20.001Z</time>
      </trkpt>
      <trkpt lat="47.68621" lon="6.51936">
        <ele>302.374</ele>
        <time>2019-09-26T09:03:23.001Z</time>
      </trkpt>
      <trkpt lat="47.68612" lon="6.51919">
        <ele>302.016</ele>
        <time>2019-09-26T09:03:26.001Z</time>
      </trkpt>
      <trkpt lat="47.68603" lon="6.51902">
        <ele>301.708</ele>
        <time>2019-09-26T09:03:29.001Z</time>
      </trkpt>
      <trkpt lat="47.68595" lon="6.51885">
        <ele>301.19</ele>
        <time>2019-09-26T09:03:32.001Z</time>
      </trkpt>
      <trkpt lat="47.68586" lon="6.5187">
        <ele>300.065</ele>
        <time>2019-09-26T09:03:35.001Z</time>
      </trkpt>
      <trkpt lat="47.68577" lon="6.51858">
        <ele>298.918</ele>
        <time>2019-09-26T09:03:38.001Z</time>
      </trkpt>
      <trkpt lat="47.68573" lon="6.51852">
        <ele>298.968</ele>
        <time>2019-09-26T09:03:41.001Z</time>
      </trkpt>
      <trkpt lat="47.68564" lon="6.51858">
        <ele>299.939</ele>
        <time>2019-09-26T09:03:47.001Z</time>
      </trkpt>
      <trkpt lat="47.68555" lon="6.51874">
        <ele>300.131</ele>
        <time>2019-09-26T09:03:50.001Z</time>
      </trkpt>
      <trkpt lat="47.68544" lon="6.51891">
        <ele>299.946</ele>
        <time>2019-09-26T09:03:53.001Z</time>
      </trkpt>
      <trkpt lat="47.68532" lon="6.51906">
        <ele>300.148</ele>
        <time>2019-09-26T09:03:56.001Z</time>
      </trkpt>
      <trkpt lat="47.68519" lon="6.51915">
        <ele>300.752</ele>
        <time>2019-09-26T09:03:59.001Z</time>
      </trkpt>
      <trkpt lat="47.68506" lon="6.51919">
        <ele>301.522</ele>
        <time>2019-09-26T11:04:02Z</time>
      </trkpt>
      <trkpt lat="47.68491" lon="6.51923">
        <ele>302.991</ele>
        <time>2019-09-26T09:04:05.001Z</time>
      </trkpt>
      <trkpt lat="47.68476" lon="6.51928">
        <ele>303.912</ele>
        <time>2019-09-26T09:04:08.001Z</time>
      </trkpt>
      <trkpt lat="47.68467" lon="6.51933">
        <ele>304.927</ele>
        <time>2019-09-26T09:04:11.001Z</time>
      </trkpt>
      <trkpt lat="47.6846" lon="6.51932">
        <ele>304.839</ele>
        <time>2019-09-26T09:04:14.001Z</time>
      </trkpt>
      <trkpt lat="47.68449" lon="6.51929">
        <ele>303.288</ele>
        <time>2019-09-26T09:04:17.001Z</time>
      </trkpt>
      <trkpt lat="47.68435" lon="6.51934">
        <ele>302.319</ele>
        <time>2019-09-26T09:04:20.001Z</time>
      </trkpt>
      <trkpt lat="47.6842" lon="6.51938">
        <ele>301.644</ele>
        <time>2019-09-26T09:04:23.001Z</time>
      </trkpt>
      <trkpt lat="47.68407" lon="6.51931">
        <ele>301.463</ele>
        <time>2019-09-26T09:04:26.001Z</time>
      </trkpt>
      <trkpt lat="47.68393" lon="6.51918">
        <ele>301.075</ele>
        <time>2019-09-26T09:04:29.001Z</time>
      </trkpt>
      <trkpt lat="47.68382" lon="6.51906">
        <ele>300.731</ele>
        <time>2019-09-26T09:04:32.001Z</time>
      </trkpt>
      <trkpt lat="47.68371" lon="6.51894">
        <ele>300.958</ele>
        <time>2019-09-26T09:04:35.001Z</time>
      </trkpt>
      <trkpt lat="47.68359" lon="6.51882">
        <ele>300.945</ele>
        <time>2019-09-26T09:04:38.001Z</time>
      </trkpt>
      <trkpt lat="47.68348" lon="6.5187">
        <ele>300.985</ele>
        <time>2019-09-26T09:04:41.001Z</time>
      </trkpt>
      <trkpt lat="47.68338" lon="6.51858">
        <ele>301.491</ele>
        <time>2019-09-26T09:04:44.001Z</time>
      </trkpt>
      <trkpt lat="47.68329" lon="6.51847">
        <ele>301.886</ele>
        <time>2019-09-26T09:04:47.001Z</time>
      </trkpt>
      <trkpt lat="47.6832" lon="6.51836">
        <ele>302.68</ele>
        <time>2019-09-26T09:04:50.001Z</time>
      </trkpt>
      <trkpt lat="47.68311" lon="6.51821">
        <ele>303.569</ele>
        <time>2019-09-26T09:04:53.001Z</time>
      </trkpt>
      <trkpt lat="47.68301" lon="6.51807">
        <ele>304.581</ele>
        <time>2019-09-26T09:04:56.001Z</time>
      </trkpt>
      <trkpt lat="47.6829" lon="6.51794">
        <ele>304.81</ele>
        <time>2019-09-26T09:04:59.001Z</time>
      </trkpt>
      <trkpt lat="47.6828" lon="6.51783">
        <ele>305.711</ele>
        <time>2019-09-26T11:05:02Z</time>
      </trkpt>
      <trkpt lat="47.6827" lon="6.51767">
        <ele>304.8</ele>
        <time>2019-09-26T09:05:05.001Z</time>
      </trkpt>
      <trkpt lat="47.6826" lon="6.51752">
        <ele>303.975</ele>
        <time>2019-09-26T09:05:08.001Z</time>
      </trkpt>
      <trkpt lat="47.68251" lon="6.51737">
        <ele>304.226</ele>
        <time>2019-09-26T09:05:11.001Z</time>
      </trkpt>
      <trkpt lat="47.68241" lon="6.51723">
        <ele>304.122</ele>
        <time>2019-09-26T09:05:14.001Z</time>
      </trkpt>
      <trkpt lat="47.68232" lon="6.51708">
        <ele>304.742</ele>
        <time>2019-09-26T09:05:17.001Z</time>
      </trkpt>
      <trkpt lat="47.68223" lon="6.51693">
        <ele>306.469</ele>
        <time>2019-09-26T09:05:20.001Z</time>
      </trkpt>
      <trkpt lat="47.68212" lon="6.51681">
        <ele>307.287</ele>
        <time>2019-09-26T09:05:23.001Z</time>
      </trkpt>
      <trkpt lat="47.68198" lon="6.51682">
        <ele>307.237</ele>
        <time>2019-09-26T09:05:26.001Z</time>
      </trkpt>
      <trkpt lat="47.68186" lon="6.51688">
        <ele>307.104</ele>
        <time>2019-09-26T09:05:29.001Z</time>
      </trkpt>
      <trkpt lat="47.68171" lon="6.51693">
        <ele>306.633</ele>
        <time>2019-09-26T09:05:32.001Z</time>
      </trkpt>
      <trkpt lat="47.68157" lon="6.51698">
        <ele>306.386</ele>
        <time>2019-09-26T09:05:35.001Z</time>
      </trkpt>
      <trkpt lat="47.68142" lon="6.51704">
        <ele>305.89</ele>
        <time>2019-09-26T09:05:38.001Z</time>
      </trkpt>
      <trkpt lat="47.6813" lon="6.5171">
        <ele>305.143</ele>
        <time>2019-09-26T09:05:41.001Z</time>
      </trkpt>
      <trkpt lat="47.68118" lon="6.51714">
        <ele>304.762</ele>
        <time>2019-09-26T09:05:44.001Z</time>
      </trkpt>
      <trkpt lat="47.68107" lon="6.51719">
        <ele>304.65</ele>
        <time>2019-09-26T09:05:47.001Z</time>
      </trkpt>
      <trkpt lat="47.68095" lon="6.51722">
        <ele>304.185</ele>
        <time>2019-09-26T09:05:50.001Z</time>
      </trkpt>
      <trkpt lat="47.68084" lon="6.51726">
        <ele>303.369</ele>
        <time>2019-09-26T09:05:53.001Z</time>
      </trkpt>
      <trkpt lat="47.68073" lon="6.5173">
        <ele>302.763</ele>
        <time>2019-09-26T09:05:56.001Z</time>
      </trkpt>
      <trkpt lat="47.68061" lon="6.51736">
        <ele>301.977</ele>
        <time>2019-09-26T09:05:59.001Z</time>
      </trkpt>
      <trkpt lat="47.68049" lon="6.5174">
        <ele>301.415</ele>
        <time>2019-09-26T11:06:02Z</time>
      </trkpt>
      <trkpt lat="47.68035" lon="6.51746">
        <ele>301.482</ele>
        <time>2019-09-26T09:06:05.001Z</time>
      </trkpt>
      <trkpt lat="47.68021" lon="6.51751">
        <ele>301.389</ele>
        <time>2019-09-26T09:06:08.001Z</time>
      </trkpt>
      <trkpt lat="47.68009" lon="6.51756">
        <ele>300.919</ele>
        <time>2019-09-26T09:06:11.001Z</time>
      </trkpt>
      <trkpt lat="47.67996" lon="6.51761">
        <ele>300.604</ele>
        <time>2019-09-26T09:06:14.001Z</time>
      </trkpt>
      <trkpt lat="47.67985" lon="6.51766">
        <ele>300.679</ele>
        <time>2019-09-26T09:06:17.001Z</time>
      </trkpt>
      <trkpt lat="47.67974" lon="6.51771">
        <ele>300.33</ele>
        <time>2019-09-26T09:06:20.001Z</time>
      </trkpt>
      <trkpt lat="47.67963" lon="6.51775">
        <ele>299.928</ele>
        <time>2019-09-26T09:06:23.001Z</time>
      </trkpt>
      <trkpt lat="47.6795" lon="6.51781">
        <ele>299.808</ele>
        <time>2019-09-26T09:06:26.001Z</time>
      </trkpt>
      <trkpt lat="47.67937" lon="6.51786">
        <ele>299.916</ele>
        <time>2019-09-26T09:06:29.001Z</time>
      </trkpt>
      <trkpt lat="47.67924" lon="6.5179">
        <ele>300.383</ele>
        <time>2019-09-26T09:06:32.001Z</time>
      </trkpt>
      <trkpt lat="47.67911" lon="6.51795">
        <ele>301.134</ele>
        <time>2019-09-26T09:06:35.001Z</time>
      </trkpt>
      <trkpt lat="47.67899" lon="6.518">
        <ele>301.741</ele>
        <time>2019-09-26T09:06:38.001Z</time>
      </trkpt>
      <trkpt lat="47.67887" lon="6.51805">
        <ele>302.233</ele>
        <time>2019-09-26T09:06:41.001Z</time>
      </trkpt>
      <trkpt lat="47.67874" lon="6.5181">
        <ele>302.313</ele>
        <time>2019-09-26T09:06:44.001Z</time>
      </trkpt>
      <trkpt lat="47.67861" lon="6.51814">
        <ele>302.325</ele>
        <time>2019-09-26T09:06:47.001Z</time>
      </trkpt>
      <trkpt lat="47.67848" lon="6.51819">
        <ele>302.399</ele>
        <time>2019-09-26T09:06:50.001Z</time>
      </trkpt>
      <trkpt lat="47.67836" lon="6.51827">
        <ele>302.411</ele>
        <time>2019-09-26T09:06:53.001Z</time>
      </trkpt>
      <trkpt lat="47.67825" lon="6.51837">
        <ele>302.248</ele>
        <time>2019-09-26T09:06:56.001Z</time>
      </trkpt>
      <trkpt lat="47.67815" lon="6.51848">
        <ele>301.842</ele>
        <time>2019-09-26T09:06:59.001Z</time>
      </trkpt>
      <trkpt lat="47.67805" lon="6.51861">
        <ele>301.714</ele>
        <time>2019-09-26T11:07:02Z</time>
      </trkpt>
      <trkpt lat="47.67797" lon="6.51876">
        <ele>301.923</ele>
        <time>2019-09-26T09:07:05.001Z</time>
      </trkpt>
      <trkpt lat="47.6779" lon="6.51893">
        <ele>301.777</ele>
        <time>2019-09-26T09:07:08.001Z</time>
      </trkpt>
      <trkpt lat="47.67784" lon="6.51912">
        <ele>301.73</ele>
        <time>2019-09-26T09:07:11.001Z</time>
      </trkpt>
      <trkpt lat="47.6778" lon="6.51932">
        <ele>301.686</ele>
        <time>2019-09-26T09:07:14.001Z</time>
      </trkpt>
      <trkpt lat="47.67777" lon="6.51952">
        <ele>301.616</ele>
        <time>2019-09-26T09:07:17.001Z</time>
      </trkpt>
      <trkpt lat="47.67776" lon="6.51973">
        <ele>301.597</ele>
        <time>2019-09-26T09:07:20.001Z</time>
      </trkpt>
      <trkpt lat="47.67776" lon="6.51994">
        <ele>301.31</ele>
        <time>2019-09-26T09:07:23.001Z</time>
      </trkpt>
      <trkpt lat="47.67777" lon="6.52016">
        <ele>301.344</ele>
        <time>2019-09-26T09:07:26.001Z</time>
      </trkpt>
      <trkpt lat="47.6778" lon="6.52039">
        <ele>301.268</ele>
        <time>2019-09-26T09:07:29.001Z</time>
      </trkpt>
      <trkpt lat="47.67784" lon="6.52065">
        <ele>301.063</ele>
        <time>2019-09-26T09:07:32.001Z</time>
      </trkpt>
      <trkpt lat="47.67786" lon="6.52089">
        <ele>300.878</ele>
        <time>2019-09-26T09:07:35.001Z</time>
      </trkpt>
      <trkpt lat="47.67783" lon="6.52111">
        <ele>300.224</ele>
        <time>2019-09-26T09:07:38.001Z</time>
      </trkpt>
      <trkpt lat="47.67777" lon="6.52135">
        <ele>299.734</ele>
        <time>2019-09-26T09:07:41.001Z</time>
      </trkpt>
      <trkpt lat="47.67769" lon="6.52155">
        <ele>299.293</ele>
        <time>2019-09-26T09:07:44.001Z</time>
      </trkpt>
      <trkpt lat="47.67753" lon="6.52165">
        <ele>299.163</ele>
        <time>2019-09-26T09:07:47.001Z</time>
      </trkpt>
      <trkpt lat="47.67739" lon="6.52154">
        <ele>297.24</ele>
        <time>2019-09-26T09:07:50.001Z</time>
      </trkpt>
      <trkpt lat="47.67725" lon="6.52154">
        <ele>297.009</ele>
        <time>2019-09-26T09:07:53.001Z</time>
      </trkpt>
      <trkpt lat="47.67713" lon="6.52168">
        <ele>297.238</ele>
        <time>2019-09-26T09:07:56.001Z</time>
      </trkpt>
      <trkpt lat="47.67707" lon="6.52189">
        <ele>297.706</ele>
        <time>2019-09-26T09:07:59.001Z</time>
      </trkpt>
      <trkpt lat="47.67703" lon="6.52209">
        <ele>298.136</ele>
        <time>2019-09-26T11:08:02Z</time>
      </trkpt>
      <trkpt lat="47.67694" lon="6.52223">
        <ele>298.237</ele>
        <time>2019-09-26T09:08:05.001Z</time>
      </trkpt>
      <trkpt lat="47.67678" lon="6.5223">
        <ele>297.919</ele>
        <time>2019-09-26T09:08:08.001Z</time>
      </trkpt>
      <trkpt lat="47.67665" lon="6.52234">
        <ele>297.729</ele>
        <time>2019-09-26T09:08:11.001Z</time>
      </trkpt>
      <trkpt lat="47.67653" lon="6.52233">
        <ele>297.645</ele>
        <time>2019-09-26T09:08:14.001Z</time>
      </trkpt>
      <trkpt lat="47.67641" lon="6.52232">
        <ele>297.651</ele>
        <time>2019-09-26T09:08:17.001Z</time>
      </trkpt>
      <trkpt lat="47.67633" lon="6.52233">
        <ele>297.713</ele>
        <time>2019-09-26T09:08:20.001Z</time>
      </trkpt>
      <trkpt lat="47.67626" lon="6.52232">
        <ele>297.552</ele>
        <time>2019-09-26T09:08:23.001Z</time>
      </trkpt>
      <trkpt lat="47.67614" lon="6.52221">
        <ele>297.73</ele>
        <time>2019-09-26T09:08:26.001Z</time>
      </trkpt>
      <trkpt lat="47.67602" lon="6.52207">
        <ele>297.438</ele>
        <time>2019-09-26T09:08:29.001Z</time>
      </trkpt>
      <trkpt lat="47.67586" lon="6.52207">
        <ele>297.672</ele>
        <time>2019-09-26T09:08:32.001Z</time>
      </trkpt>
      <trkpt lat="47.67572" lon="6.52222">
        <ele>298.217</ele>
        <time>2019-09-26T09:08:35.001Z</time>
      </trkpt>
      <trkpt lat="47.67565" lon="6.52244">
        <ele>298.935</ele>
        <time>2019-09-26T09:08:38.001Z</time>
      </trkpt>
      <trkpt lat="47.67565" lon="6.52267">
        <ele>298.998</ele>
        <time>2019-09-26T09:08:41.001Z</time>
      </trkpt>
      <trkpt lat="47.67565" lon="6.52292">
        <ele>298.933</ele>
        <time>2019-09-26T09:08:44.001Z</time>
      </trkpt>
      <trkpt lat="47.67562" lon="6.52318">
        <ele>298.901</ele>
        <time>2019-09-26T09:08:47.001Z</time>
      </trkpt>
      <trkpt lat="47.67563" lon="6.52343">
        <ele>298.759</ele>
        <time>2019-09-26T09:08:50.001Z</time>
      </trkpt>
      <trkpt lat="47.67567" lon="6.52369">
        <ele>298.173</ele>
        <time>2019-09-26T09:08:53.001Z</time>
      </trkpt>
      <trkpt lat="47.6757" lon="6.52394">
        <ele>297.658</ele>
        <time>2019-09-26T09:08:56.001Z</time>
      </trkpt>
      <trkpt lat="47.67573" lon="6.52419">
        <ele>297.488</ele>
        <time>2019-09-26T09:08:59.001Z</time>
      </trkpt>
      <trkpt lat="47.67573" lon="6.52443">
        <ele>297.777</ele>
        <time>2019-09-26T11:09:02Z</time>
      </trkpt>
      <trkpt lat="47.67572" lon="6.52467">
        <ele>298.562</ele>
        <time>2019-09-26T09:09:05.001Z</time>
      </trkpt>
      <trkpt lat="47.67568" lon="6.52486">
        <ele>298.903</ele>
        <time>2019-09-26T09:09:08.001Z</time>
      </trkpt>
      <trkpt lat="47.67566" lon="6.52505">
        <ele>299.49</ele>
        <time>2019-09-26T09:09:11.001Z</time>
      </trkpt>
      <trkpt lat="47.67562" lon="6.52524">
        <ele>300.168</ele>
        <time>2019-09-26T09:09:14.001Z</time>
      </trkpt>
      <trkpt lat="47.67559" lon="6.52545">
        <ele>300.715</ele>
        <time>2019-09-26T09:09:17.001Z</time>
      </trkpt>
      <trkpt lat="47.67556" lon="6.52566">
        <ele>300.974</ele>
        <time>2019-09-26T09:09:20.001Z</time>
      </trkpt>
      <trkpt lat="47.67552" lon="6.52586">
        <ele>301.361</ele>
        <time>2019-09-26T09:09:23.001Z</time>
      </trkpt>
      <trkpt lat="47.67548" lon="6.52605">
        <ele>301.49</ele>
        <time>2019-09-26T09:09:26.001Z</time>
      </trkpt>
      <trkpt lat="47.67545" lon="6.52624">
        <ele>301.71</ele>
        <time>2019-09-26T09:09:29.001Z</time>
      </trkpt>
      <trkpt lat="47.67543" lon="6.52644">
        <ele>301.972</ele>
        <time>2019-09-26T09:09:32.001Z</time>
      </trkpt>
      <trkpt lat="47.67539" lon="6.52663">
        <ele>302.713</ele>
        <time>2019-09-26T09:09:35.001Z</time>
      </trkpt>
      <trkpt lat="47.67535" lon="6.52682">
        <ele>303.644</ele>
        <time>2019-09-26T09:09:38.001Z</time>
      </trkpt>
      <trkpt lat="47.67532" lon="6.52703">
        <ele>304.41</ele>
        <time>2019-09-26T09:09:41.001Z</time>
      </trkpt>
      <trkpt lat="47.67528" lon="6.52723">
        <ele>304.941</ele>
        <time>2019-09-26T09:09:44.001Z</time>
      </trkpt>
      <trkpt lat="47.67526" lon="6.52743">
        <ele>305.008</ele>
        <time>2019-09-26T09:09:47.001Z</time>
      </trkpt>
      <trkpt lat="47.67524" lon="6.52764">
        <ele>305.166</ele>
        <time>2019-09-26T09:09:50.001Z</time>
      </trkpt>
      <trkpt lat="47.67521" lon="6.52786">
        <ele>305.012</ele>
        <time>2019-09-26T09:09:53.001Z</time>
      </trkpt>
      <trkpt lat="47.67517" lon="6.52807">
        <ele>304.895</ele>
        <time>2019-09-26T09:09:56.001Z</time>
      </trkpt>
      <trkpt lat="47.67513" lon="6.52829">
        <ele>304.913</ele>
        <time>2019-09-26T09:09:59.001Z</time>
      </trkpt>
      <trkpt lat="47.67509" lon="6.52851">
        <ele>304.623</ele>
        <time>2019-09-26T11:10:02Z</time>
      </trkpt>
      <trkpt lat="47.67506" lon="6.52873">
        <ele>304.777</ele>
        <time>2019-09-26T09:10:05.001Z</time>
      </trkpt>
      <trkpt lat="47.67503" lon="6.52894">
        <ele>305.024</ele>
        <time>2019-09-26T09:10:08.001Z</time>
      </trkpt>
      <trkpt lat="47.675" lon="6.52915">
        <ele>305.469</ele>
        <time>2019-09-26T09:10:11.001Z</time>
      </trkpt>
      <trkpt lat="47.67497" lon="6.52934">
        <ele>305.258</ele>
        <time>2019-09-26T09:10:14.001Z</time>
      </trkpt>
      <trkpt lat="47.67494" lon="6.52952">
        <ele>304.746</ele>
        <time>2019-09-26T09:10:17.001Z</time>
      </trkpt>
      <trkpt lat="47.67492" lon="6.52971">
        <ele>304.352</ele>
        <time>2019-09-26T09:10:20.001Z</time>
      </trkpt>
      <trkpt lat="47.6749" lon="6.52991">
        <ele>304.084</ele>
        <time>2019-09-26T09:10:23.001Z</time>
      </trkpt>
      <trkpt lat="47.67488" lon="6.53012">
        <ele>304.142</ele>
        <time>2019-09-26T09:10:26.001Z</time>
      </trkpt>
      <trkpt lat="47.67485" lon="6.53033">
        <ele>303.939</ele>
        <time>2019-09-26T09:10:29.001Z</time>
      </trkpt>
      <trkpt lat="47.67482" lon="6.53055">
        <ele>303.627</ele>
        <time>2019-09-26T09:10:32.001Z</time>
      </trkpt>
      <trkpt lat="47.67478" lon="6.53078">
        <ele>303.366</ele>
        <time>2019-09-26T09:10:35.001Z</time>
      </trkpt>
      <trkpt lat="47.67475" lon="6.53099">
        <ele>303.205</ele>
        <time>2019-09-26T09:10:38.001Z</time>
      </trkpt>
      <trkpt lat="47.67471" lon="6.53121">
        <ele>302.834</ele>
        <time>2019-09-26T09:10:41.001Z</time>
      </trkpt>
      <trkpt lat="47.67466" lon="6.53143">
        <ele>302.463</ele>
        <time>2019-09-26T09:10:44.001Z</time>
      </trkpt>
      <trkpt lat="47.67461" lon="6.53163">
        <ele>302.42</ele>
        <time>2019-09-26T09:10:47.001Z</time>
      </trkpt>
      <trkpt lat="47.67454" lon="6.53181">
        <ele>302.02</ele>
        <time>2019-09-26T09:10:50.001Z</time>
      </trkpt>
      <trkpt lat="47.67445" lon="6.53194">
        <ele>301.664</ele>
        <time>2019-09-26T09:10:53.001Z</time>
      </trkpt>
      <trkpt lat="47.67434" lon="6.53207">
        <ele>301.298</ele>
        <time>2019-09-26T09:10:56.001Z</time>
      </trkpt>
      <trkpt lat="47.67422" lon="6.53218">
        <ele>301.061</ele>
        <time>2019-09-26T09:10:59.001Z</time>
      </trkpt>
      <trkpt lat="47.67409" lon="6.53228">
        <ele>300.817</ele>
        <time>2019-09-26T11:11:02Z</time>
      </trkpt>
      <trkpt lat="47.67397" lon="6.5324">
        <ele>300.672</ele>
        <time>2019-09-26T09:11:05.001Z</time>
      </trkpt>
      <trkpt lat="47.67385" lon="6.53253">
        <ele>300.472</ele>
        <time>2019-09-26T09:11:08.001Z</time>
      </trkpt>
      <trkpt lat="47.67377" lon="6.53269">
        <ele>300.262</ele>
        <time>2019-09-26T09:11:11.001Z</time>
      </trkpt>
      <trkpt lat="47.67371" lon="6.53287">
        <ele>300.311</ele>
        <time>2019-09-26T09:11:14.001Z</time>
      </trkpt>
      <trkpt lat="47.67365" lon="6.53307">
        <ele>300.676</ele>
        <time>2019-09-26T09:11:17.001Z</time>
      </trkpt>
      <trkpt lat="47.67361" lon="6.53327">
        <ele>301.097</ele>
        <time>2019-09-26T09:11:20.001Z</time>
      </trkpt>
      <trkpt lat="47.67359" lon="6.53347">
        <ele>302.155</ele>
        <time>2019-09-26T09:11:23.001Z</time>
      </trkpt>
      <trkpt lat="47.67356" lon="6.53366">
        <ele>302.314</ele>
        <time>2019-09-26T09:11:26.001Z</time>
      </trkpt>
      <trkpt lat="47.67354" lon="6.53385">
        <ele>302.721</ele>
        <time>2019-09-26T09:11:29.001Z</time>
      </trkpt>
      <trkpt lat="47.67353" lon="6.53405">
        <ele>303.141</ele>
        <time>2019-09-26T09:11:32.001Z</time>
      </trkpt>
      <trkpt lat="47.67352" lon="6.53426">
        <ele>303.479</ele>
        <time>2019-09-26T09:11:35.001Z</time>
      </trkpt>
      <trkpt lat="47.67351" lon="6.53446">
        <ele>303.819</ele>
        <time>2019-09-26T09:11:38.001Z</time>
      </trkpt>
      <trkpt lat="47.67351" lon="6.53464">
        <ele>304.122</ele>
        <time>2019-09-26T09:11:41.001Z</time>
      </trkpt>
      <trkpt lat="47.67353" lon="6.53484">
        <ele>304.413</ele>
        <time>2019-09-26T09:11:44.001Z</time>
      </trkpt>
      <trkpt lat="47.67353" lon="6.53503">
        <ele>304.285</ele>
        <time>2019-09-26T09:11:47.001Z</time>
      </trkpt>
      <trkpt lat="47.67354" lon="6.53522">
        <ele>303.799</ele>
        <time>2019-09-26T09:11:50.001Z</time>
      </trkpt>
      <trkpt lat="47.67354" lon="6.53541">
        <ele>303.2</ele>
        <time>2019-09-26T09:11:53.001Z</time>
      </trkpt>
      <trkpt lat="47.67353" lon="6.53561">
        <ele>302.522</ele>
        <time>2019-09-26T09:11:56.001Z</time>
      </trkpt>
      <trkpt lat="47.67354" lon="6.53581">
        <ele>301.917</ele>
        <time>2019-09-26T09:11:59.001Z</time>
      </trkpt>
      <trkpt lat="47.67356" lon="6.53602">
        <ele>301.965</ele>
        <time>2019-09-26T11:12:02Z</time>
      </trkpt>
      <trkpt lat="47.67357" lon="6.53621">
        <ele>302.052</ele>
        <time>2019-09-26T09:12:05.001Z</time>
      </trkpt>
      <trkpt lat="47.67356" lon="6.53641">
        <ele>302.258</ele>
        <time>2019-09-26T09:12:08.001Z</time>
      </trkpt>
      <trkpt lat="47.67355" lon="6.53663">
        <ele>302.292</ele>
        <time>2019-09-26T09:12:11.001Z</time>
      </trkpt>
      <trkpt lat="47.67355" lon="6.53683">
        <ele>302.056</ele>
        <time>2019-09-26T09:12:14.001Z</time>
      </trkpt>
      <trkpt lat="47.67354" lon="6.53703">
        <ele>301.913</ele>
        <time>2019-09-26T09:12:17.001Z</time>
      </trkpt>
      <trkpt lat="47.67348" lon="6.53722">
        <ele>301.909</ele>
        <time>2019-09-26T09:12:20.001Z</time>
      </trkpt>
      <trkpt lat="47.67339" lon="6.53737">
        <ele>301.837</ele>
        <time>2019-09-26T09:12:23.001Z</time>
      </trkpt>
      <trkpt lat="47.67331" lon="6.53749">
        <ele>301.921</ele>
        <time>2019-09-26T09:12:26.001Z</time>
      </trkpt>
      <trkpt lat="47.67321" lon="6.53762">
        <ele>301.862</ele>
        <time>2019-09-26T09:12:29.001Z</time>
      </trkpt>
      <trkpt lat="47.6731" lon="6.53775">
        <ele>301.449</ele>
        <time>2019-09-26T09:12:32.001Z</time>
      </trkpt>
      <trkpt lat="47.67298" lon="6.53786">
        <ele>301.385</ele>
        <time>2019-09-26T09:12:35.001Z</time>
      </trkpt>
      <trkpt lat="47.67286" lon="6.53799">
        <ele>301.178</ele>
        <time>2019-09-26T09:12:38.001Z</time>
      </trkpt>
      <trkpt lat="47.67275" lon="6.53812">
        <ele>300.979</ele>
        <time>2019-09-26T09:12:41.001Z</time>
      </trkpt>
      <trkpt lat="47.67264" lon="6.53825">
        <ele>300.663</ele>
        <time>2019-09-26T09:12:44.001Z</time>
      </trkpt>
      <trkpt lat="47.67254" lon="6.53836">
        <ele>300.825</ele>
        <time>2019-09-26T09:12:47.001Z</time>
      </trkpt>
      <trkpt lat="47.67242" lon="6.53848">
        <ele>301.141</ele>
        <time>2019-09-26T09:12:50.001Z</time>
      </trkpt>
      <trkpt lat="47.67231" lon="6.53861">
        <ele>301.514</ele>
        <time>2019-09-26T09:12:53.001Z</time>
      </trkpt>
      <trkpt lat="47.67218" lon="6.53873">
        <ele>301.524</ele>
        <time>2019-09-26T09:12:56.001Z</time>
      </trkpt>
      <trkpt lat="47.67205" lon="6.53885">
        <ele>300.858</ele>
        <time>2019-09-26T09:12:59.001Z</time>
      </trkpt>
      <trkpt lat="47.67193" lon="6.53898">
        <ele>299.922</ele>
        <time>2019-09-26T11:13:02Z</time>
      </trkpt>
      <trkpt lat="47.67181" lon="6.53911">
        <ele>299.386</ele>
        <time>2019-09-26T09:13:05.001Z</time>
      </trkpt>
      <trkpt lat="47.6717" lon="6.53922">
        <ele>299.201</ele>
        <time>2019-09-26T09:13:08.001Z</time>
      </trkpt>
      <trkpt lat="47.67159" lon="6.53934">
        <ele>299.258</ele>
        <time>2019-09-26T09:13:11.001Z</time>
      </trkpt>
      <trkpt lat="47.67149" lon="6.53945">
        <ele>299.324</ele>
        <time>2019-09-26T09:13:14.001Z</time>
      </trkpt>
      <trkpt lat="47.67139" lon="6.53957">
        <ele>299.496</ele>
        <time>2019-09-26T09:13:17.001Z</time>
      </trkpt>
      <trkpt lat="47.67129" lon="6.5397">
        <ele>300.093</ele>
        <time>2019-09-26T09:13:20.001Z</time>
      </trkpt>
      <trkpt lat="47.6712" lon="6.53985">
        <ele>300.5</ele>
        <time>2019-09-26T09:13:23.001Z</time>
      </trkpt>
      <trkpt lat="47.6711" lon="6.54001">
        <ele>300.773</ele>
        <time>2019-09-26T09:13:26.001Z</time>
      </trkpt>
      <trkpt lat="47.67101" lon="6.54016">
        <ele>301.195</ele>
        <time>2019-09-26T09:13:29.001Z</time>
      </trkpt>
      <trkpt lat="47.6709" lon="6.54032">
        <ele>301.374</ele>
        <time>2019-09-26T09:13:32.001Z</time>
      </trkpt>
      <trkpt lat="47.6708" lon="6.54047">
        <ele>302.009</ele>
        <time>2019-09-26T09:13:35.001Z</time>
      </trkpt>
      <trkpt lat="47.67072" lon="6.54062">
        <ele>302.441</ele>
        <time>2019-09-26T09:13:38.001Z</time>
      </trkpt>
      <trkpt lat="47.67063" lon="6.54077">
        <ele>302.338</ele>
        <time>2019-09-26T09:13:41.001Z</time>
      </trkpt>
      <trkpt lat="47.67053" lon="6.54092">
        <ele>302.294</ele>
        <time>2019-09-26T09:13:44.001Z</time>
      </trkpt>
      <trkpt lat="47.67043" lon="6.54106">
        <ele>302.298</ele>
        <time>2019-09-26T09:13:47.001Z</time>
      </trkpt>
      <trkpt lat="47.67033" lon="6.54119">
        <ele>302.619</ele>
        <time>2019-09-26T09:13:50.001Z</time>
      </trkpt>
      <trkpt lat="47.67022" lon="6.54131">
        <ele>303.256</ele>
        <time>2019-09-26T09:13:53.001Z</time>
      </trkpt>
      <trkpt lat="47.6701" lon="6.54141">
        <ele>303.844</ele>
        <time>2019-09-26T09:13:56.001Z</time>
      </trkpt>
      <trkpt lat="47.66998" lon="6.54148">
        <ele>304.626</ele>
        <time>2019-09-26T09:13:59.001Z</time>
      </trkpt>
      <trkpt lat="47.66986" lon="6.54153">
        <ele>305.369</ele>
        <time>2019-09-26T11:14:02Z</time>
      </trkpt>
      <trkpt lat="47.66974" lon="6.54156">
        <ele>305.014</ele>
        <time>2019-09-26T09:14:05.001Z</time>
      </trkpt>
      <trkpt lat="47.6696" lon="6.54162">
        <ele>304.632</ele>
        <time>2019-09-26T09:14:08.001Z</time>
      </trkpt>
      <trkpt lat="47.66945" lon="6.54167">
        <ele>303.957</ele>
        <time>2019-09-26T09:14:11.001Z</time>
      </trkpt>
      <trkpt lat="47.66933" lon="6.54172">
        <ele>303.562</ele>
        <time>2019-09-26T09:14:14.001Z</time>
      </trkpt>
      <trkpt lat="47.66921" lon="6.54178">
        <ele>304.055</ele>
        <time>2019-09-26T09:14:17.001Z</time>
      </trkpt>
      <trkpt lat="47.66909" lon="6.54184">
        <ele>303.895</ele>
        <time>2019-09-26T09:14:20.001Z</time>
      </trkpt>
      <trkpt lat="47.66897" lon="6.54193">
        <ele>303.811</ele>
        <time>2019-09-26T09:14:23.001Z</time>
      </trkpt>
      <trkpt lat="47.66887" lon="6.54203">
        <ele>303.935</ele>
        <time>2019-09-26T09:14:26.001Z</time>
      </trkpt>
      <trkpt lat="47.66877" lon="6.54219">
        <ele>303.417</ele>
        <time>2019-09-26T09:14:29.001Z</time>
      </trkpt>
      <trkpt lat="47.66868" lon="6.54238">
        <ele>302.639</ele>
        <time>2019-09-26T09:14:32.001Z</time>
      </trkpt>
      <trkpt lat="47.6686" lon="6.54256">
        <ele>302.169</ele>
        <time>2019-09-26T09:14:35.001Z</time>
      </trkpt>
      <trkpt lat="47.66853" lon="6.54276">
        <ele>302.122</ele>
        <time>2019-09-26T09:14:38.001Z</time>
      </trkpt>
      <trkpt lat="47.66846" lon="6.54294">
        <ele>302.298</ele>
        <time>2019-09-26T09:14:41.001Z</time>
      </trkpt>
      <trkpt lat="47.66842" lon="6.54313">
        <ele>302.872</ele>
        <time>2019-09-26T09:14:44.001Z</time>
      </trkpt>
      <trkpt lat="47.66834" lon="6.5433">
        <ele>302.583</ele>
        <time>2019-09-26T09:14:47.001Z</time>
      </trkpt>
      <trkpt lat="47.66826" lon="6.5435">
        <ele>301.974</ele>
        <time>2019-09-26T09:14:50.001Z</time>
      </trkpt>
      <trkpt lat="47.66817" lon="6.54369">
        <ele>301.749</ele>
        <time>2019-09-26T09:14:53.001Z</time>
      </trkpt>
      <trkpt lat="47.66806" lon="6.54388">
        <ele>300.844</ele>
        <time>2019-09-26T09:14:56.001Z</time>
      </trkpt>
      <trkpt lat="47.66793" lon="6.54403">
        <ele>300.96</ele>
        <time>2019-09-26T09:14:59.001Z</time>
      </trkpt>
      <trkpt lat="47.66781" lon="6.54416">
        <ele>301.694</ele>
        <time>2019-09-26T11:15:02Z</time>
      </trkpt>
      <trkpt lat="47.66771" lon="6.54429">
        <ele>302.12</ele>
        <time>2019-09-26T09:15:05.001Z</time>
      </trkpt>
      <trkpt lat="47.66759" lon="6.54437">
        <ele>302.333</ele>
        <time>2019-09-26T09:15:08.001Z</time>
      </trkpt>
      <trkpt lat="47.66747" lon="6.54443">
        <ele>302.103</ele>
        <time>2019-09-26T09:15:11.001Z</time>
      </trkpt>
      <trkpt lat="47.66735" lon="6.5445">
        <ele>301.161</ele>
        <time>2019-09-26T09:15:14.001Z</time>
      </trkpt>
      <trkpt lat="47.66725" lon="6.54456">
        <ele>300.265</ele>
        <time>2019-09-26T09:15:17.001Z</time>
      </trkpt>
      <trkpt lat="47.66715" lon="6.5446">
        <ele>299.975</ele>
        <time>2019-09-26T09:15:20.001Z</time>
      </trkpt>
      <trkpt lat="47.66705" lon="6.54464">
        <ele>300.444</ele>
        <time>2019-09-26T09:15:23.001Z</time>
      </trkpt>
      <trkpt lat="47.66697" lon="6.54469">
        <ele>301.611</ele>
        <time>2019-09-26T09:15:26.001Z</time>
      </trkpt>
      <trkpt lat="47.66689" lon="6.54474">
        <ele>302.33</ele>
        <time>2019-09-26T09:15:29.001Z</time>
      </trkpt>
      <trkpt lat="47.66679" lon="6.5448">
        <ele>303.028</ele>
        <time>2019-09-26T09:15:32.001Z</time>
      </trkpt>
      <trkpt lat="47.66669" lon="6.54486">
        <ele>303.282</ele>
        <time>2019-09-26T09:15:35.001Z</time>
      </trkpt>
      <trkpt lat="47.66659" lon="6.54492">
        <ele>303.507</ele>
        <time>2019-09-26T09:15:38.001Z</time>
      </trkpt>
      <trkpt lat="47.66648" lon="6.54497">
        <ele>303.472</ele>
        <time>2019-09-26T09:15:41.001Z</time>
      </trkpt>
      <trkpt lat="47.66638" lon="6.54504">
        <ele>303.185</ele>
        <time>2019-09-26T09:15:44.001Z</time>
      </trkpt>
      <trkpt lat="47.66625" lon="6.5451">
        <ele>302.674</ele>
        <time>2019-09-26T09:15:47.001Z</time>
      </trkpt>
      <trkpt lat="47.66608" lon="6.54517">
        <ele>302.368</ele>
        <time>2019-09-26T09:15:50.001Z</time>
      </trkpt>
      <trkpt lat="47.66593" lon="6.54525">
        <ele>302.089</ele>
        <time>2019-09-26T09:15:53.001Z</time>
      </trkpt>
      <trkpt lat="47.66577" lon="6.54535">
        <ele>302.082</ele>
        <time>2019-09-26T09:15:56.001Z</time>
      </trkpt>
      <trkpt lat="47.66563" lon="6.54545">
        <ele>301.994</ele>
        <time>2019-09-26T09:15:59.001Z</time>
      </trkpt>
      <trkpt lat="47.6655" lon="6.54556">
        <ele>302.1</ele>
        <time>2019-09-26T11:16:02Z</time>
      </trkpt>
      <trkpt lat="47.66539" lon="6.54567">
        <ele>302.26</ele>
        <time>2019-09-26T09:16:05.001Z</time>
      </trkpt>
      <trkpt lat="47.66528" lon="6.54579">
        <ele>302.15</ele>
        <time>2019-09-26T09:16:08.001Z</time>
      </trkpt>
      <trkpt lat="47.66517" lon="6.54592">
        <ele>301.844</ele>
        <time>2019-09-26T09:16:11.001Z</time>
      </trkpt>
      <trkpt lat="47.66508" lon="6.54606">
        <ele>301.359</ele>
        <time>2019-09-26T09:16:14.001Z</time>
      </trkpt>
      <trkpt lat="47.66499" lon="6.5462">
        <ele>301.133</ele>
        <time>2019-09-26T09:16:17.001Z</time>
      </trkpt>
      <trkpt lat="47.66487" lon="6.54635">
        <ele>301.163</ele>
        <time>2019-09-26T09:16:20.001Z</time>
      </trkpt>
      <trkpt lat="47.66476" lon="6.54649">
        <ele>301.14</ele>
        <time>2019-09-26T09:16:23.001Z</time>
      </trkpt>
      <trkpt lat="47.66468" lon="6.54662">
        <ele>301.256</ele>
        <time>2019-09-26T09:16:26.001Z</time>
      </trkpt>
      <trkpt lat="47.66459" lon="6.54673">
        <ele>301.46</ele>
        <time>2019-09-26T09:16:29.001Z</time>
      </trkpt>
      <trkpt lat="47.66448" lon="6.54683">
        <ele>302.033</ele>
        <time>2019-09-26T09:16:32.001Z</time>
      </trkpt>
      <trkpt lat="47.66437" lon="6.54695">
        <ele>302.022</ele>
        <time>2019-09-26T09:16:35.001Z</time>
      </trkpt>
      <trkpt lat="47.66426" lon="6.54707">
        <ele>301.171</ele>
        <time>2019-09-26T09:16:38.001Z</time>
      </trkpt>
      <trkpt lat="47.66415" lon="6.54719">
        <ele>300.547</ele>
        <time>2019-09-26T09:16:41.001Z</time>
      </trkpt>
      <trkpt lat="47.66405" lon="6.54732">
        <ele>300.211</ele>
        <time>2019-09-26T09:16:44.001Z</time>
      </trkpt>
      <trkpt lat="47.66396" lon="6.54744">
        <ele>299.821</ele>
        <time>2019-09-26T09:16:47.001Z</time>
      </trkpt>
      <trkpt lat="47.66387" lon="6.54757">
        <ele>299.66</ele>
        <time>2019-09-26T09:16:50.001Z</time>
      </trkpt>
      <trkpt lat="47.66377" lon="6.54769">
        <ele>299.399</ele>
        <time>2019-09-26T09:16:53.001Z</time>
      </trkpt>
      <trkpt lat="47.66367" lon="6.54782">
        <ele>298.961</ele>
        <time>2019-09-26T09:16:56.001Z</time>
      </trkpt>
      <trkpt lat="47.66357" lon="6.54794">
        <ele>298.944</ele>
        <time>2019-09-26T09:16:59.001Z</time>
      </trkpt>
      <trkpt lat="47.66347" lon="6.54806">
        <ele>299.279</ele>
        <time>2019-09-26T11:17:02Z</time>
      </trkpt>
      <trkpt lat="47.66337" lon="6.54819">
        <ele>299.459</ele>
        <time>2019-09-26T09:17:05.001Z</time>
      </trkpt>
      <trkpt lat="47.66329" lon="6.54836">
        <ele>298.736</ele>
        <time>2019-09-26T09:17:08.001Z</time>
      </trkpt>
      <trkpt lat="47.6632" lon="6.54848">
        <ele>298.321</ele>
        <time>2019-09-26T09:17:11.001Z</time>
      </trkpt>
      <trkpt lat="47.66309" lon="6.54855">
        <ele>298.889</ele>
        <time>2019-09-26T09:17:14.001Z</time>
      </trkpt>
      <trkpt lat="47.66299" lon="6.54861">
        <ele>299.694</ele>
        <time>2019-09-26T09:17:17.001Z</time>
      </trkpt>
      <trkpt lat="47.6629" lon="6.54866">
        <ele>300.016</ele>
        <time>2019-09-26T09:17:20.001Z</time>
      </trkpt>
      <trkpt lat="47.66283" lon="6.54872">
        <ele>300.753</ele>
        <time>2019-09-26T09:17:23.001Z</time>
      </trkpt>
      <trkpt lat="47.66276" lon="6.54877">
        <ele>301.516</ele>
        <time>2019-09-26T09:17:26.001Z</time>
      </trkpt>
      <trkpt lat="47.66269" lon="6.54883">
        <ele>302.462</ele>
        <time>2019-09-26T09:17:29.001Z</time>
      </trkpt>
      <trkpt lat="47.66263" lon="6.54888">
        <ele>303.153</ele>
        <time>2019-09-26T09:17:32.001Z</time>
      </trkpt>
      <trkpt lat="47.66258" lon="6.54894">
        <ele>303.968</ele>
        <time>2019-09-26T09:17:35.001Z</time>
      </trkpt>
      <trkpt lat="47.66251" lon="6.54899">
        <ele>304.897</ele>
        <time>2019-09-26T09:17:38.001Z</time>
      </trkpt>
      <trkpt lat="47.66245" lon="6.54905">
        <ele>305.662</ele>
        <time>2019-09-26T09:17:41.001Z</time>
      </trkpt>
      <trkpt lat="47.66239" lon="6.54911">
        <ele>306.118</ele>
        <time>2019-09-26T09:17:44.001Z</time>
      </trkpt>
      <trkpt lat="47.66231" lon="6.54916">
        <ele>306.511</ele>
        <time>2019-09-26T09:17:47.001Z</time>
      </trkpt>
      <trkpt lat="47.66222" lon="6.54922">
        <ele>306.901</ele>
        <time>2019-09-26T09:17:50.001Z</time>
      </trkpt>
      <trkpt lat="47.66214" lon="6.54928">
        <ele>307.159</ele>
        <time>2019-09-26T09:17:53.001Z</time>
      </trkpt>
      <trkpt lat="47.66205" lon="6.54933">
        <ele>307.286</ele>
        <time>2019-09-26T09:17:56.001Z</time>
      </trkpt>
      <trkpt lat="47.66194" lon="6.54934">
        <ele>307.603</ele>
        <time>2019-09-26T09:17:59.001Z</time>
      </trkpt>
      <trkpt lat="47.66185" lon="6.54925">
        <ele>307.289</ele>
        <time>2019-09-26T11:18:02Z</time>
      </trkpt>
      <trkpt lat="47.66173" lon="6.54913">
        <ele>307.123</ele>
        <time>2019-09-26T09:18:05.001Z</time>
      </trkpt>
      <trkpt lat="47.66164" lon="6.54914">
        <ele>307.321</ele>
        <time>2019-09-26T09:18:08.001Z</time>
      </trkpt>
      <trkpt lat="47.66152" lon="6.54926">
        <ele>307.479</ele>
        <time>2019-09-26T09:18:11.001Z</time>
      </trkpt>
      <trkpt lat="47.66142" lon="6.54937">
        <ele>307.473</ele>
        <time>2019-09-26T09:18:14.001Z</time>
      </trkpt>
      <trkpt lat="47.66133" lon="6.54951">
        <ele>307.453</ele>
        <time>2019-09-26T09:18:17.001Z</time>
      </trkpt>
      <trkpt lat="47.66125" lon="6.54967">
        <ele>307.71</ele>
        <time>2019-09-26T09:18:20.001Z</time>
      </trkpt>
      <trkpt lat="47.66114" lon="6.54983">
        <ele>307.224</ele>
        <time>2019-09-26T09:18:23.001Z</time>
      </trkpt>
      <trkpt lat="47.66101" lon="6.55">
        <ele>306.208</ele>
        <time>2019-09-26T09:18:26.001Z</time>
      </trkpt>
      <trkpt lat="47.6609" lon="6.55016">
        <ele>305.455</ele>
        <time>2019-09-26T09:18:29.001Z</time>
      </trkpt>
      <trkpt lat="47.6608" lon="6.55032">
        <ele>305.295</ele>
        <time>2019-09-26T09:18:32.001Z</time>
      </trkpt>
      <trkpt lat="47.66071" lon="6.55047">
        <ele>305.054</ele>
        <time>2019-09-26T09:18:35.001Z</time>
      </trkpt>
      <trkpt lat="47.66061" lon="6.55062">
        <ele>304.741</ele>
        <time>2019-09-26T09:18:38.001Z</time>
      </trkpt>
      <trkpt lat="47.66052" lon="6.55076">
        <ele>304.209</ele>
        <time>2019-09-26T09:18:41.001Z</time>
      </trkpt>
      <trkpt lat="47.66044" lon="6.5509">
        <ele>303.82</ele>
        <time>2019-09-26T09:18:44.001Z</time>
      </trkpt>
      <trkpt lat="47.66036" lon="6.55104">
        <ele>303.598</ele>
        <time>2019-09-26T09:18:47.001Z</time>
      </trkpt>
      <trkpt lat="47.66027" lon="6.55118">
        <ele>303.633</ele>
        <time>2019-09-26T09:18:50.001Z</time>
      </trkpt>
      <trkpt lat="47.66016" lon="6.5513">
        <ele>304.277</ele>
        <time>2019-09-26T09:18:53.001Z</time>
      </trkpt>
      <trkpt lat="47.66005" lon="6.55138">
        <ele>304.474</ele>
        <time>2019-09-26T09:18:56.001Z</time>
      </trkpt>
      <trkpt lat="47.65995" lon="6.55143">
        <ele>304.665</ele>
        <time>2019-09-26T09:18:59.001Z</time>
      </trkpt>
      <trkpt lat="47.65985" lon="6.55149">
        <ele>304.852</ele>
        <time>2019-09-26T11:19:02Z</time>
      </trkpt>
      <trkpt lat="47.65975" lon="6.55155">
        <ele>305.208</ele>
        <time>2019-09-26T09:19:05.001Z</time>
      </trkpt>
      <trkpt lat="47.65965" lon="6.55165">
        <ele>305.638</ele>
        <time>2019-09-26T09:19:08.001Z</time>
      </trkpt>
      <trkpt lat="47.65954" lon="6.55175">
        <ele>306.336</ele>
        <time>2019-09-26T09:19:11.001Z</time>
      </trkpt>
      <trkpt lat="47.65943" lon="6.55184">
        <ele>306.665</ele>
        <time>2019-09-26T09:19:14.001Z</time>
      </trkpt>
      <trkpt lat="47.65932" lon="6.55194">
        <ele>307.14</ele>
        <time>2019-09-26T09:19:17.001Z</time>
      </trkpt>
      <trkpt lat="47.65922" lon="6.55203">
        <ele>307.652</ele>
        <time>2019-09-26T09:19:20.001Z</time>
      </trkpt>
      <trkpt lat="47.65912" lon="6.55213">
        <ele>308.186</ele>
        <time>2019-09-26T09:19:23.001Z</time>
      </trkpt>
      <trkpt lat="47.65903" lon="6.55222">
        <ele>308.518</ele>
        <time>2019-09-26T09:19:26.001Z</time>
      </trkpt>
      <trkpt lat="47.65893" lon="6.5523">
        <ele>308.736</ele>
        <time>2019-09-26T09:19:29.001Z</time>
      </trkpt>
      <trkpt lat="47.65883" lon="6.55237">
        <ele>309.327</ele>
        <time>2019-09-26T09:19:32.001Z</time>
      </trkpt>
      <trkpt lat="47.65873" lon="6.55242">
        <ele>309.515</ele>
        <time>2019-09-26T09:19:35.001Z</time>
      </trkpt>
      <trkpt lat="47.65862" lon="6.55245">
        <ele>309.841</ele>
        <time>2019-09-26T09:19:38.001Z</time>
      </trkpt>
      <trkpt lat="47.65853" lon="6.55248">
        <ele>310.893</ele>
        <time>2019-09-26T09:19:41.001Z</time>
      </trkpt>
      <trkpt lat="47.65842" lon="6.5525">
        <ele>310.716</ele>
        <time>2019-09-26T09:19:44.001Z</time>
      </trkpt>
      <trkpt lat="47.65831" lon="6.5525">
        <ele>309.185</ele>
        <time>2019-09-26T09:19:47.001Z</time>
      </trkpt>
      <trkpt lat="47.65822" lon="6.55249">
        <ele>308.653</ele>
        <time>2019-09-26T09:19:50.001Z</time>
      </trkpt>
      <trkpt lat="47.65813" lon="6.55248">
        <ele>309.143</ele>
        <time>2019-09-26T09:19:53.001Z</time>
      </trkpt>
      <trkpt lat="47.65804" lon="6.55247">
        <ele>308.988</ele>
        <time>2019-09-26T09:19:56.001Z</time>
      </trkpt>
      <trkpt lat="47.65795" lon="6.55246">
        <ele>308.651</ele>
        <time>2019-09-26T09:19:59.001Z</time>
      </trkpt>
      <trkpt lat="47.65784" lon="6.55243">
        <ele>308.907</ele>
        <time>2019-09-26T11:20:02Z</time>
      </trkpt>
      <trkpt lat="47.65773" lon="6.55242">
        <ele>309.49</ele>
        <time>2019-09-26T09:20:05.001Z</time>
      </trkpt>
      <trkpt lat="47.65763" lon="6.5524">
        <ele>309.417</ele>
        <time>2019-09-26T09:20:08.001Z</time>
      </trkpt>
      <trkpt lat="47.65754" lon="6.55238">
        <ele>309.826</ele>
        <time>2019-09-26T09:20:11.001Z</time>
      </trkpt>
      <trkpt lat="47.65744" lon="6.55237">
        <ele>310.244</ele>
        <time>2019-09-26T09:20:14.001Z</time>
      </trkpt>
      <trkpt lat="47.65735" lon="6.55234">
        <ele>310.193</ele>
        <time>2019-09-26T09:20:17.001Z</time>
      </trkpt>
      <trkpt lat="47.65724" lon="6.55232">
        <ele>310.111</ele>
        <time>2019-09-26T09:20:20.001Z</time>
      </trkpt>
      <trkpt lat="47.65714" lon="6.55231">
        <ele>310.083</ele>
        <time>2019-09-26T09:20:23.001Z</time>
      </trkpt>
      <trkpt lat="47.65705" lon="6.55229">
        <ele>309.448</ele>
        <time>2019-09-26T09:20:26.001Z</time>
      </trkpt>
      <trkpt lat="47.65695" lon="6.55231">
        <ele>308.994</ele>
        <time>2019-09-26T09:20:29.001Z</time>
      </trkpt>
      <trkpt lat="47.65686" lon="6.55232">
        <ele>308.88</ele>
        <time>2019-09-26T09:20:32.001Z</time>
      </trkpt>
      <trkpt lat="47.65676" lon="6.55235">
        <ele>309.101</ele>
        <time>2019-09-26T09:20:35.001Z</time>
      </trkpt>
      <trkpt lat="47.65665" lon="6.5524">
        <ele>309.608</ele>
        <time>2019-09-26T09:20:38.001Z</time>
      </trkpt>
      <trkpt lat="47.65654" lon="6.55248">
        <ele>310.448</ele>
        <time>2019-09-26T09:20:41.001Z</time>
      </trkpt>
      <trkpt lat="47.65644" lon="6.55258">
        <ele>311.202</ele>
        <time>2019-09-26T09:20:44.001Z</time>
      </trkpt>
      <trkpt lat="47.65636" lon="6.55266">
        <ele>311.869</ele>
        <time>2019-09-26T09:20:47.001Z</time>
      </trkpt>
      <trkpt lat="47.65629" lon="6.55275">
        <ele>312.932</ele>
        <time>2019-09-26T09:20:50.001Z</time>
      </trkpt>
      <trkpt lat="47.6562" lon="6.55284">
        <ele>314.181</ele>
        <time>2019-09-26T09:20:53.001Z</time>
      </trkpt>
      <trkpt lat="47.65611" lon="6.55292">
        <ele>314.602</ele>
        <time>2019-09-26T09:20:56.001Z</time>
      </trkpt>
      <trkpt lat="47.65601" lon="6.553">
        <ele>314.648</ele>
        <time>2019-09-26T09:20:59.001Z</time>
      </trkpt>
      <trkpt lat="47.65591" lon="6.55307">
        <ele>314.672</ele>
        <time>2019-09-26T11:21:02Z</time>
      </trkpt>
      <trkpt lat="47.6558" lon="6.55315">
        <ele>314.803</ele>
        <time>2019-09-26T09:21:05.001Z</time>
      </trkpt>
      <trkpt lat="47.65571" lon="6.55321">
        <ele>314.985</ele>
        <time>2019-09-26T09:21:08.001Z</time>
      </trkpt>
      <trkpt lat="47.65563" lon="6.55325">
        <ele>314.473</ele>
        <time>2019-09-26T09:21:11.001Z</time>
      </trkpt>
      <trkpt lat="47.65555" lon="6.55329">
        <ele>314.494</ele>
        <time>2019-09-26T09:21:14.001Z</time>
      </trkpt>
      <trkpt lat="47.65546" lon="6.55334">
        <ele>315.138</ele>
        <time>2019-09-26T09:21:17.001Z</time>
      </trkpt>
      <trkpt lat="47.65538" lon="6.55337">
        <ele>315.456</ele>
        <time>2019-09-26T09:21:20.001Z</time>
      </trkpt>
      <trkpt lat="47.65529" lon="6.5534">
        <ele>315.972</ele>
        <time>2019-09-26T09:21:23.001Z</time>
      </trkpt>
      <trkpt lat="47.6552" lon="6.55341">
        <ele>316.565</ele>
        <time>2019-09-26T09:21:26.001Z</time>
      </trkpt>
      <trkpt lat="47.65511" lon="6.55342">
        <ele>316.513</ele>
        <time>2019-09-26T09:21:29.001Z</time>
      </trkpt>
      <trkpt lat="47.65503" lon="6.55345">
        <ele>315.984</ele>
        <time>2019-09-26T09:21:32.001Z</time>
      </trkpt>
      <trkpt lat="47.65495" lon="6.55345">
        <ele>316.101</ele>
        <time>2019-09-26T09:21:35.001Z</time>
      </trkpt>
      <trkpt lat="47.65487" lon="6.55346">
        <ele>317.188</ele>
        <time>2019-09-26T09:21:38.001Z</time>
      </trkpt>
      <trkpt lat="47.65477" lon="6.55346">
        <ele>317.469</ele>
        <time>2019-09-26T09:21:41.001Z</time>
      </trkpt>
      <trkpt lat="47.65467" lon="6.55346">
        <ele>317.697</ele>
        <time>2019-09-26T09:21:44.001Z</time>
      </trkpt>
      <trkpt lat="47.65458" lon="6.55346">
        <ele>318.761</ele>
        <time>2019-09-26T09:21:47.001Z</time>
      </trkpt>
      <trkpt lat="47.6545" lon="6.55345">
        <ele>318.127</ele>
        <time>2019-09-26T09:21:50.001Z</time>
      </trkpt>
      <trkpt lat="47.65444" lon="6.5535">
        <ele>317.725</ele>
        <time>2019-09-26T09:21:53.001Z</time>
      </trkpt>
      <trkpt lat="47.65439" lon="6.55365">
        <ele>317.635</ele>
        <time>2019-09-26T09:21:56.001Z</time>
      </trkpt>
      <trkpt lat="47.65439" lon="6.55378">
        <ele>318.953</ele>
        <time>2019-09-26T09:21:59.001Z</time>
      </trkpt>
      <trkpt lat="47.65439" lon="6.55393">
        <ele>319.856</ele>
        <time>2019-09-26T11:22:02Z</time>
      </trkpt>
      <trkpt lat="47.65436" lon="6.55408">
        <ele>320.149</ele>
        <time>2019-09-26T09:22:05.001Z</time>
      </trkpt>
      <trkpt lat="47.65432" lon="6.55421">
        <ele>320.249</ele>
        <time>2019-09-26T09:22:08.001Z</time>
      </trkpt>
      <trkpt lat="47.6543" lon="6.55434">
        <ele>320.505</ele>
        <time>2019-09-26T09:22:11.001Z</time>
      </trkpt>
      <trkpt lat="47.65427" lon="6.55447">
        <ele>320.931</ele>
        <time>2019-09-26T09:22:14.001Z</time>
      </trkpt>
      <trkpt lat="47.65427" lon="6.5546">
        <ele>321.92</ele>
        <time>2019-09-26T09:22:17.001Z</time>
      </trkpt>
      <trkpt lat="47.65425" lon="6.55471">
        <ele>322.831</ele>
        <time>2019-09-26T09:22:20.001Z</time>
      </trkpt>
      <trkpt lat="47.65422" lon="6.5548">
        <ele>323.371</ele>
        <time>2019-09-26T09:22:23.001Z</time>
      </trkpt>
      <trkpt lat="47.65417" lon="6.55492">
        <ele>322.666</ele>
        <time>2019-09-26T09:22:26.001Z</time>
      </trkpt>
      <trkpt lat="47.65414" lon="6.55507">
        <ele>323.332</ele>
        <time>2019-09-26T09:22:29.001Z</time>
      </trkpt>
      <trkpt lat="47.65418" lon="6.55513">
        <ele>324.122</ele>
        <time>2019-09-26T09:22:32.001Z</time>
      </trkpt>
      <trkpt lat="47.65422" lon="6.55507">
        <ele>324.067</ele>
        <time>2019-09-26T09:22:35.001Z</time>
      </trkpt>
      <trkpt lat="47.6542" lon="6.55495">
        <ele>324.519</ele>
        <time>2019-09-26T09:22:38.001Z</time>
      </trkpt>
      <trkpt lat="47.65421" lon="6.55483">
        <ele>324.052</ele>
        <time>2019-09-26T09:22:41.001Z</time>
      </trkpt>
      <trkpt lat="47.65424" lon="6.55472">
        <ele>323.702</ele>
        <time>2019-09-26T09:22:44.001Z</time>
      </trkpt>
      <trkpt lat="47.65426" lon="6.5546">
        <ele>323.413</ele>
        <time>2019-09-26T09:22:47.001Z</time>
      </trkpt>
      <trkpt lat="47.6543" lon="6.55444">
        <ele>322.484</ele>
        <time>2019-09-26T09:22:50.001Z</time>
      </trkpt>
      <trkpt lat="47.65434" lon="6.55428">
        <ele>321.095</ele>
        <time>2019-09-26T09:22:53.001Z</time>
      </trkpt>
      <trkpt lat="47.65439" lon="6.5541">
        <ele>319.441</ele>
        <time>2019-09-26T09:22:56.001Z</time>
      </trkpt>
      <trkpt lat="47.65443" lon="6.55392">
        <ele>318.408</ele>
        <time>2019-09-26T09:22:59.001Z</time>
      </trkpt>
      <trkpt lat="47.65443" lon="6.55375">
        <ele>317.77</ele>
        <time>2019-09-26T11:23:02Z</time>
      </trkpt>
      <trkpt lat="47.65442" lon="6.5536">
        <ele>316.794</ele>
        <time>2019-09-26T09:23:05.001Z</time>
      </trkpt>
      <trkpt lat="47.6544" lon="6.5535">
        <ele>316.745</ele>
        <time>2019-09-26T09:23:08.001Z</time>
      </trkpt>
      <trkpt lat="47.65433" lon="6.55344">
        <ele>317.083</ele>
        <time>2019-09-26T09:23:11.001Z</time>
      </trkpt>
      <trkpt lat="47.65424" lon="6.5534">
        <ele>317.63</ele>
        <time>2019-09-26T09:23:14.001Z</time>
      </trkpt>
      <trkpt lat="47.65415" lon="6.55335">
        <ele>317.346</ele>
        <time>2019-09-26T09:23:17.001Z</time>
      </trkpt>
      <trkpt lat="47.65406" lon="6.55329">
        <ele>317.172</ele>
        <time>2019-09-26T09:23:20.001Z</time>
      </trkpt>
      <trkpt lat="47.65397" lon="6.55324">
        <ele>317.469</ele>
        <time>2019-09-26T09:23:23.001Z</time>
      </trkpt>
      <trkpt lat="47.65388" lon="6.55316">
        <ele>317.667</ele>
        <time>2019-09-26T09:23:26.001Z</time>
      </trkpt>
      <trkpt lat="47.65377" lon="6.55307">
        <ele>317.762</ele>
        <time>2019-09-26T09:23:29.001Z</time>
      </trkpt>
      <trkpt lat="47.6537" lon="6.55296">
        <ele>318.447</ele>
        <time>2019-09-26T09:23:32.001Z</time>
      </trkpt>
      <trkpt lat="47.6536" lon="6.5529">
        <ele>318.886</ele>
        <time>2019-09-26T09:23:35.001Z</time>
      </trkpt>
      <trkpt lat="47.65352" lon="6.5529">
        <ele>319.004</ele>
        <time>2019-09-26T09:23:38.001Z</time>
      </trkpt>
      <trkpt lat="47.65343" lon="6.55291">
        <ele>319.919</ele>
        <time>2019-09-26T09:23:41.001Z</time>
      </trkpt>
      <trkpt lat="47.65332" lon="6.5529">
        <ele>321.01</ele>
        <time>2019-09-26T09:23:44.001Z</time>
      </trkpt>
      <trkpt lat="47.65321" lon="6.55295">
        <ele>322.532</ele>
        <time>2019-09-26T09:23:47.001Z</time>
      </trkpt>
      <trkpt lat="47.65307" lon="6.55296">
        <ele>322.591</ele>
        <time>2019-09-26T09:23:50.001Z</time>
      </trkpt>
      <trkpt lat="47.65293" lon="6.55297">
        <ele>321.387</ele>
        <time>2019-09-26T09:23:53.001Z</time>
      </trkpt>
      <trkpt lat="47.65278" lon="6.55299">
        <ele>320.372</ele>
        <time>2019-09-26T09:23:56.001Z</time>
      </trkpt>
      <trkpt lat="47.65264" lon="6.553">
        <ele>318.824</ele>
        <time>2019-09-26T09:23:59.001Z</time>
      </trkpt>
      <trkpt lat="47.65251" lon="6.55299">
        <ele>317.282</ele>
        <time>2019-09-26T11:24:02Z</time>
      </trkpt>
      <trkpt lat="47.65239" lon="6.55297">
        <ele>315.816</ele>
        <time>2019-09-26T09:24:05.001Z</time>
      </trkpt>
      <trkpt lat="47.65225" lon="6.55293">
        <ele>314.511</ele>
        <time>2019-09-26T09:24:08.001Z</time>
      </trkpt>
      <trkpt lat="47.65211" lon="6.55288">
        <ele>312.632</ele>
        <time>2019-09-26T09:24:11.001Z</time>
      </trkpt>
      <trkpt lat="47.65197" lon="6.5528">
        <ele>311.207</ele>
        <time>2019-09-26T09:24:14.001Z</time>
      </trkpt>
      <trkpt lat="47.65183" lon="6.55272">
        <ele>310.287</ele>
        <time>2019-09-26T09:24:17.001Z</time>
      </trkpt>
      <trkpt lat="47.65169" lon="6.55264">
        <ele>309.379</ele>
        <time>2019-09-26T09:24:20.001Z</time>
      </trkpt>
      <trkpt lat="47.65155" lon="6.55257">
        <ele>309.577</ele>
        <time>2019-09-26T09:24:23.001Z</time>
      </trkpt>
      <trkpt lat="47.65141" lon="6.55252">
        <ele>309.414</ele>
        <time>2019-09-26T09:24:26.001Z</time>
      </trkpt>
      <trkpt lat="47.65129" lon="6.55249">
        <ele>308.883</ele>
        <time>2019-09-26T09:24:29.001Z</time>
      </trkpt>
      <trkpt lat="47.65117" lon="6.55247">
        <ele>308.177</ele>
        <time>2019-09-26T09:24:32.001Z</time>
      </trkpt>
      <trkpt lat="47.65106" lon="6.55241">
        <ele>307.703</ele>
        <time>2019-09-26T09:24:35.001Z</time>
      </trkpt>
      <trkpt lat="47.651" lon="6.55239">
        <ele>307.467</ele>
        <time>2019-09-26T09:24:38.001Z</time>
      </trkpt>
      <trkpt lat="47.65094" lon="6.55239">
        <ele>307.535</ele>
        <time>2019-09-26T09:24:41.001Z</time>
      </trkpt>
      <trkpt lat="47.6509" lon="6.55241">
        <ele>308.089</ele>
        <time>2019-09-26T09:24:44.001Z</time>
      </trkpt>
      <trkpt lat="47.6509" lon="6.55241">
        <ele>308.549</ele>
        <time>2019-09-26T09:24:47.001Z</time>
      </trkpt>
      <trkpt lat="47.6509" lon="6.55241">
        <ele>308.233</ele>
        <time>2019-09-26T09:25:53.001Z</time>
      </trkpt>
      <trkpt lat="47.65082" lon="6.55246">
        <ele>308.874</ele>
        <time>2019-09-26T09:25:56.001Z</time>
      </trkpt>
      <trkpt lat="47.65073" lon="6.55252">
        <ele>309.361</ele>
        <time>2019-09-26T09:25:59.001Z</time>
      </trkpt>
      <trkpt lat="47.65062" lon="6.55255">
        <ele>309.554</ele>
        <time>2019-09-26T11:26:02Z</time>
      </trkpt>
      <trkpt lat="47.65047" lon="6.5526">
        <ele>309.26</ele>
        <time>2019-09-26T09:26:05.001Z</time>
      </trkpt>
      <trkpt lat="47.65029" lon="6.55267">
        <ele>308.884</ele>
        <time>2019-09-26T09:26:08.001Z</time>
      </trkpt>
      <trkpt lat="47.65009" lon="6.55273">
        <ele>308.326</ele>
        <time>2019-09-26T09:26:11.001Z</time>
      </trkpt>
      <trkpt lat="47.64988" lon="6.55278">
        <ele>307.316</ele>
        <time>2019-09-26T09:26:14.001Z</time>
      </trkpt>
      <trkpt lat="47.64967" lon="6.55284">
        <ele>306.742</ele>
        <time>2019-09-26T09:26:17.001Z</time>
      </trkpt>
      <trkpt lat="47.64945" lon="6.55289">
        <ele>306.09</ele>
        <time>2019-09-26T09:26:20.001Z</time>
      </trkpt>
      <trkpt lat="47.64925" lon="6.55286">
        <ele>304.856</ele>
        <time>2019-09-26T09:26:23.001Z</time>
      </trkpt>
      <trkpt lat="47.64912" lon="6.55271">
        <ele>304.209</ele>
        <time>2019-09-26T09:26:26.001Z</time>
      </trkpt>
      <trkpt lat="47.64901" lon="6.55259">
        <ele>304.361</ele>
        <time>2019-09-26T09:26:29.001Z</time>
      </trkpt>
      <trkpt lat="47.64889" lon="6.55247">
        <ele>304.598</ele>
        <time>2019-09-26T09:26:32.001Z</time>
      </trkpt>
      <trkpt lat="47.64877" lon="6.55236">
        <ele>305.044</ele>
        <time>2019-09-26T09:26:35.001Z</time>
      </trkpt>
      <trkpt lat="47.64867" lon="6.55226">
        <ele>305.286</ele>
        <time>2019-09-26T09:26:38.001Z</time>
      </trkpt>
      <trkpt lat="47.64858" lon="6.55216">
        <ele>305.785</ele>
        <time>2019-09-26T09:26:41.001Z</time>
      </trkpt>
      <trkpt lat="47.64851" lon="6.55209">
        <ele>306.364</ele>
        <time>2019-09-26T09:26:44.001Z</time>
      </trkpt>
      <trkpt lat="47.64843" lon="6.552">
        <ele>307.5</ele>
        <time>2019-09-26T09:26:47.001Z</time>
      </trkpt>
      <trkpt lat="47.64835" lon="6.55193">
        <ele>308.894</ele>
        <time>2019-09-26T09:26:50.001Z</time>
      </trkpt>
      <trkpt lat="47.64827" lon="6.55185">
        <ele>310.234</ele>
        <time>2019-09-26T09:26:53.001Z</time>
      </trkpt>
      <trkpt lat="47.64819" lon="6.55176">
        <ele>310.689</ele>
        <time>2019-09-26T09:26:56.001Z</time>
      </trkpt>
      <trkpt lat="47.64812" lon="6.55169">
        <ele>310.59</ele>
        <time>2019-09-26T09:26:59.001Z</time>
      </trkpt>
      <trkpt lat="47.64806" lon="6.55163">
        <ele>310.857</ele>
        <time>2019-09-26T11:27:02Z</time>
      </trkpt>
      <trkpt lat="47.648" lon="6.55158">
        <ele>310.806</ele>
        <time>2019-09-26T09:27:05.001Z</time>
      </trkpt>
      <trkpt lat="47.64795" lon="6.55153">
        <ele>310.839</ele>
        <time>2019-09-26T09:27:08.001Z</time>
      </trkpt>
      <trkpt lat="47.64789" lon="6.55148">
        <ele>310.922</ele>
        <time>2019-09-26T09:27:11.001Z</time>
      </trkpt>
      <trkpt lat="47.64783" lon="6.55145">
        <ele>310.538</ele>
        <time>2019-09-26T09:27:14.001Z</time>
      </trkpt>
      <trkpt lat="47.64778" lon="6.55141">
        <ele>310.751</ele>
        <time>2019-09-26T09:27:17.001Z</time>
      </trkpt>
      <trkpt lat="47.64771" lon="6.55139">
        <ele>311.048</ele>
        <time>2019-09-26T09:27:20.001Z</time>
      </trkpt>
      <trkpt lat="47.64765" lon="6.55136">
        <ele>311.142</ele>
        <time>2019-09-26T09:27:23.001Z</time>
      </trkpt>
      <trkpt lat="47.64761" lon="6.55135">
        <ele>312.096</ele>
        <time>2019-09-26T09:27:26.001Z</time>
      </trkpt>
      <trkpt lat="47.64754" lon="6.55132">
        <ele>312.607</ele>
        <time>2019-09-26T09:27:29.001Z</time>
      </trkpt>
      <trkpt lat="47.64747" lon="6.5513">
        <ele>312.773</ele>
        <time>2019-09-26T09:27:32.001Z</time>
      </trkpt>
      <trkpt lat="47.6474" lon="6.55127">
        <ele>312.813</ele>
        <time>2019-09-26T09:27:35.001Z</time>
      </trkpt>
      <trkpt lat="47.64732" lon="6.55124">
        <ele>313.226</ele>
        <time>2019-09-26T09:27:38.001Z</time>
      </trkpt>
      <trkpt lat="47.64727" lon="6.5512">
        <ele>313.328</ele>
        <time>2019-09-26T09:27:41.001Z</time>
      </trkpt>
      <trkpt lat="47.64718" lon="6.55119">
        <ele>313.837</ele>
        <time>2019-09-26T09:27:44.001Z</time>
      </trkpt>
      <trkpt lat="47.64709" lon="6.55117">
        <ele>315.011</ele>
        <time>2019-09-26T09:27:47.001Z</time>
      </trkpt>
      <trkpt lat="47.647" lon="6.55113">
        <ele>315.815</ele>
        <time>2019-09-26T09:27:50.001Z</time>
      </trkpt>
      <trkpt lat="47.64689" lon="6.55109">
        <ele>316.47</ele>
        <time>2019-09-26T09:27:53.001Z</time>
      </trkpt>
      <trkpt lat="47.64677" lon="6.55106">
        <ele>316.878</ele>
        <time>2019-09-26T09:27:56.001Z</time>
      </trkpt>
      <trkpt lat="47.64667" lon="6.55104">
        <ele>316.783</ele>
        <time>2019-09-26T09:27:59.001Z</time>
      </trkpt>
      <trkpt lat="47.6466" lon="6.55104">
        <ele>316.47</ele>
        <time>2019-09-26T11:28:02Z</time>
      </trkpt>
      <trkpt lat="47.64653" lon="6.55103">
        <ele>315.862</ele>
        <time>2019-09-26T09:28:05.001Z</time>
      </trkpt>
      <trkpt lat="47.64642" lon="6.55104">
        <ele>315.486</ele>
        <time>2019-09-26T09:28:08.001Z</time>
      </trkpt>
      <trkpt lat="47.64629" lon="6.55105">
        <ele>314.542</ele>
        <time>2019-09-26T09:28:11.001Z</time>
      </trkpt>
      <trkpt lat="47.64616" lon="6.55105">
        <ele>313.993</ele>
        <time>2019-09-26T09:28:14.001Z</time>
      </trkpt>
      <trkpt lat="47.64602" lon="6.55106">
        <ele>313.585</ele>
        <time>2019-09-26T09:28:17.001Z</time>
      </trkpt>
      <trkpt lat="47.64587" lon="6.55107">
        <ele>313.418</ele>
        <time>2019-09-26T09:28:20.001Z</time>
      </trkpt>
      <trkpt lat="47.64573" lon="6.55108">
        <ele>313.121</ele>
        <time>2019-09-26T09:28:23.001Z</time>
      </trkpt>
      <trkpt lat="47.64558" lon="6.55109">
        <ele>312.324</ele>
        <time>2019-09-26T09:28:26.001Z</time>
      </trkpt>
      <trkpt lat="47.64544" lon="6.55109">
        <ele>311.362</ele>
        <time>2019-09-26T09:28:29.001Z</time>
      </trkpt>
      <trkpt lat="47.64529" lon="6.55109">
        <ele>310.445</ele>
        <time>2019-09-26T09:28:32.001Z</time>
      </trkpt>
      <trkpt lat="47.64513" lon="6.5511">
        <ele>309.506</ele>
        <time>2019-09-26T09:28:35.001Z</time>
      </trkpt>
      <trkpt lat="47.64496" lon="6.5511">
        <ele>308.367</ele>
        <time>2019-09-26T09:28:38.001Z</time>
      </trkpt>
      <trkpt lat="47.64476" lon="6.5511">
        <ele>306.866</ele>
        <time>2019-09-26T09:28:41.001Z</time>
      </trkpt>
      <trkpt lat="47.64455" lon="6.5511">
        <ele>305.555</ele>
        <time>2019-09-26T09:28:44.001Z</time>
      </trkpt>
      <trkpt lat="47.64433" lon="6.55111">
        <ele>304.369</ele>
        <time>2019-09-26T09:28:47.001Z</time>
      </trkpt>
      <trkpt lat="47.64413" lon="6.55112">
        <ele>303.444</ele>
        <time>2019-09-26T09:28:50.001Z</time>
      </trkpt>
      <trkpt lat="47.64397" lon="6.55112">
        <ele>302.515</ele>
        <time>2019-09-26T09:28:53.001Z</time>
      </trkpt>
      <trkpt lat="47.64384" lon="6.55113">
        <ele>302.288</ele>
        <time>2019-09-26T09:28:56.001Z</time>
      </trkpt>
      <trkpt lat="47.64372" lon="6.55113">
        <ele>302.322</ele>
        <time>2019-09-26T09:28:59.001Z</time>
      </trkpt>
      <trkpt lat="47.64361" lon="6.55113">
        <ele>302.478</ele>
        <time>2019-09-26T11:29:02Z</time>
      </trkpt>
      <trkpt lat="47.64351" lon="6.55112">
        <ele>302.163</ele>
        <time>2019-09-26T09:29:05.001Z</time>
      </trkpt>
      <trkpt lat="47.6434" lon="6.55112">
        <ele>302.057</ele>
        <time>2019-09-26T09:29:08.001Z</time>
      </trkpt>
      <trkpt lat="47.6433" lon="6.55113">
        <ele>301.564</ele>
        <time>2019-09-26T09:29:11.001Z</time>
      </trkpt>
      <trkpt lat="47.64319" lon="6.55115">
        <ele>301.106</ele>
        <time>2019-09-26T09:29:14.001Z</time>
      </trkpt>
      <trkpt lat="47.64307" lon="6.55116">
        <ele>301.107</ele>
        <time>2019-09-26T09:29:17.001Z</time>
      </trkpt>
      <trkpt lat="47.64295" lon="6.55118">
        <ele>300.804</ele>
        <time>2019-09-26T09:29:20.001Z</time>
      </trkpt>
      <trkpt lat="47.64284" lon="6.5512">
        <ele>301.146</ele>
        <time>2019-09-26T09:29:23.001Z</time>
      </trkpt>
      <trkpt lat="47.64272" lon="6.55122">
        <ele>301.405</ele>
        <time>2019-09-26T09:29:26.001Z</time>
      </trkpt>
      <trkpt lat="47.64261" lon="6.55124">
        <ele>301.546</ele>
        <time>2019-09-26T09:29:29.001Z</time>
      </trkpt>
      <trkpt lat="47.64249" lon="6.55126">
        <ele>301.557</ele>
        <time>2019-09-26T09:29:32.001Z</time>
      </trkpt>
      <trkpt lat="47.64239" lon="6.55128">
        <ele>301.826</ele>
        <time>2019-09-26T09:29:35.001Z</time>
      </trkpt>
      <trkpt lat="47.64228" lon="6.55129">
        <ele>302.451</ele>
        <time>2019-09-26T09:29:38.001Z</time>
      </trkpt>
      <trkpt lat="47.64218" lon="6.5513">
        <ele>302.65</ele>
        <time>2019-09-26T09:29:41.001Z</time>
      </trkpt>
      <trkpt lat="47.64208" lon="6.55131">
        <ele>303.051</ele>
        <time>2019-09-26T09:29:44.001Z</time>
      </trkpt>
      <trkpt lat="47.64201" lon="6.55133">
        <ele>303.934</ele>
        <time>2019-09-26T09:29:47.001Z</time>
      </trkpt>
      <trkpt lat="47.64193" lon="6.55134">
        <ele>304.965</ele>
        <time>2019-09-26T09:29:50.001Z</time>
      </trkpt>
      <trkpt lat="47.64184" lon="6.55134">
        <ele>305.466</ele>
        <time>2019-09-26T09:29:53.001Z</time>
      </trkpt>
      <trkpt lat="47.64175" lon="6.55135">
        <ele>306.258</ele>
        <time>2019-09-26T09:29:56.001Z</time>
      </trkpt>
      <trkpt lat="47.64165" lon="6.55134">
        <ele>306.859</ele>
        <time>2019-09-26T09:29:59.001Z</time>
      </trkpt>
      <trkpt lat="47.64154" lon="6.55134">
        <ele>306.781</ele>
        <time>2019-09-26T11:30:02Z</time>
      </trkpt>
      <trkpt lat="47.64142" lon="6.55133">
        <ele>306.459</ele>
        <time>2019-09-26T09:30:05.001Z</time>
      </trkpt>
      <trkpt lat="47.64127" lon="6.5513">
        <ele>306.29</ele>
        <time>2019-09-26T09:30:08.001Z</time>
      </trkpt>
      <trkpt lat="47.64111" lon="6.55128">
        <ele>305.92</ele>
        <time>2019-09-26T09:30:11.001Z</time>
      </trkpt>
      <trkpt lat="47.64094" lon="6.55127">
        <ele>305.304</ele>
        <time>2019-09-26T09:30:14.001Z</time>
      </trkpt>
      <trkpt lat="47.64077" lon="6.55125">
        <ele>304.305</ele>
        <time>2019-09-26T09:30:17.001Z</time>
      </trkpt>
      <trkpt lat="47.64061" lon="6.55122">
        <ele>304.061</ele>
        <time>2019-09-26T09:30:20.001Z</time>
      </trkpt>
      <trkpt lat="47.64047" lon="6.55119">
        <ele>303.807</ele>
        <time>2019-09-26T09:30:23.001Z</time>
      </trkpt>
      <trkpt lat="47.64034" lon="6.55118">
        <ele>303.22</ele>
        <time>2019-09-26T09:30:26.001Z</time>
      </trkpt>
      <trkpt lat="47.64022" lon="6.55116">
        <ele>302.875</ele>
        <time>2019-09-26T09:30:29.001Z</time>
      </trkpt>
      <trkpt lat="47.64009" lon="6.55115">
        <ele>302.575</ele>
        <time>2019-09-26T09:30:32.001Z</time>
      </trkpt>
      <trkpt lat="47.63997" lon="6.55113">
        <ele>302.109</ele>
        <time>2019-09-26T09:30:35.001Z</time>
      </trkpt>
      <trkpt lat="47.63986" lon="6.55111">
        <ele>301.987</ele>
        <time>2019-09-26T09:30:38.001Z</time>
      </trkpt>
      <trkpt lat="47.63974" lon="6.55111">
        <ele>301.875</ele>
        <time>2019-09-26T09:30:41.001Z</time>
      </trkpt>
      <trkpt lat="47.63964" lon="6.5511">
        <ele>302.383</ele>
        <time>2019-09-26T09:30:44.001Z</time>
      </trkpt>
      <trkpt lat="47.63953" lon="6.55107">
        <ele>302.479</ele>
        <time>2019-09-26T09:30:47.001Z</time>
      </trkpt>
      <trkpt lat="47.63942" lon="6.55103">
        <ele>302.669</ele>
        <time>2019-09-26T09:30:50.001Z</time>
      </trkpt>
      <trkpt lat="47.63933" lon="6.551">
        <ele>302.932</ele>
        <time>2019-09-26T09:30:53.001Z</time>
      </trkpt>
      <trkpt lat="47.63922" lon="6.55094">
        <ele>302.836</ele>
        <time>2019-09-26T09:30:56.001Z</time>
      </trkpt>
      <trkpt lat="47.63911" lon="6.55088">
        <ele>303.131</ele>
        <time>2019-09-26T09:30:59.001Z</time>
      </trkpt>
      <trkpt lat="47.63899" lon="6.5508">
        <ele>303.3</ele>
        <time>2019-09-26T11:31:02Z</time>
      </trkpt>
      <trkpt lat="47.63889" lon="6.55074">
        <ele>303.158</ele>
        <time>2019-09-26T09:31:05.001Z</time>
      </trkpt>
      <trkpt lat="47.63876" lon="6.55067">
        <ele>302.962</ele>
        <time>2019-09-26T09:31:08.001Z</time>
      </trkpt>
      <trkpt lat="47.63861" lon="6.55059">
        <ele>302.251</ele>
        <time>2019-09-26T09:31:11.001Z</time>
      </trkpt>
      <trkpt lat="47.63844" lon="6.55049">
        <ele>301.614</ele>
        <time>2019-09-26T09:31:14.001Z</time>
      </trkpt>
      <trkpt lat="47.63825" lon="6.55039">
        <ele>300.37</ele>
        <time>2019-09-26T09:31:17.001Z</time>
      </trkpt>
      <trkpt lat="47.63806" lon="6.55029">
        <ele>299.364</ele>
        <time>2019-09-26T09:31:20.001Z</time>
      </trkpt>
      <trkpt lat="47.63788" lon="6.5502">
        <ele>298.223</ele>
        <time>2019-09-26T09:31:23.001Z</time>
      </trkpt>
      <trkpt lat="47.6377" lon="6.55012">
        <ele>296.912</ele>
        <time>2019-09-26T09:31:26.001Z</time>
      </trkpt>
      <trkpt lat="47.63754" lon="6.55003">
        <ele>295.421</ele>
        <time>2019-09-26T09:31:29.001Z</time>
      </trkpt>
      <trkpt lat="47.63739" lon="6.55">
        <ele>296.115</ele>
        <time>2019-09-26T09:31:32.001Z</time>
      </trkpt>
      <trkpt lat="47.63723" lon="6.55001">
        <ele>296.341</ele>
        <time>2019-09-26T09:31:35.001Z</time>
      </trkpt>
      <trkpt lat="47.63709" lon="6.55002">
        <ele>296.294</ele>
        <time>2019-09-26T09:31:38.001Z</time>
      </trkpt>
      <trkpt lat="47.63694" lon="6.55002">
        <ele>296.335</ele>
        <time>2019-09-26T09:31:41.001Z</time>
      </trkpt>
      <trkpt lat="47.63679" lon="6.55005">
        <ele>296.79</ele>
        <time>2019-09-26T09:31:44.001Z</time>
      </trkpt>
      <trkpt lat="47.63664" lon="6.55009">
        <ele>296.903</ele>
        <time>2019-09-26T09:31:47.001Z</time>
      </trkpt>
      <trkpt lat="47.6365" lon="6.55013">
        <ele>296.75</ele>
        <time>2019-09-26T09:31:50.001Z</time>
      </trkpt>
      <trkpt lat="47.63635" lon="6.55016">
        <ele>296.183</ele>
        <time>2019-09-26T09:31:53.001Z</time>
      </trkpt>
      <trkpt lat="47.63621" lon="6.55017">
        <ele>295.429</ele>
        <time>2019-09-26T09:31:56.001Z</time>
      </trkpt>
      <trkpt lat="47.63606" lon="6.55015">
        <ele>294.427</ele>
        <time>2019-09-26T09:31:59.001Z</time>
      </trkpt>
      <trkpt lat="47.63593" lon="6.5501">
        <ele>293.724</ele>
        <time>2019-09-26T11:32:02Z</time>
      </trkpt>
      <trkpt lat="47.63579" lon="6.55006">
        <ele>292.865</ele>
        <time>2019-09-26T09:32:05.001Z</time>
      </trkpt>
      <trkpt lat="47.63563" lon="6.55005">
        <ele>292.117</ele>
        <time>2019-09-26T09:32:08.001Z</time>
      </trkpt>
      <trkpt lat="47.63546" lon="6.55009">
        <ele>291.57</ele>
        <time>2019-09-26T09:32:11.001Z</time>
      </trkpt>
      <trkpt lat="47.63527" lon="6.55018">
        <ele>291.225</ele>
        <time>2019-09-26T09:32:14.001Z</time>
      </trkpt>
      <trkpt lat="47.63508" lon="6.55029">
        <ele>290.858</ele>
        <time>2019-09-26T09:32:17.001Z</time>
      </trkpt>
      <trkpt lat="47.6349" lon="6.55039">
        <ele>291.167</ele>
        <time>2019-09-26T09:32:20.001Z</time>
      </trkpt>
      <trkpt lat="47.63474" lon="6.55049">
        <ele>291.484</ele>
        <time>2019-09-26T09:32:23.001Z</time>
      </trkpt>
      <trkpt lat="47.63459" lon="6.55059">
        <ele>292.157</ele>
        <time>2019-09-26T09:32:26.001Z</time>
      </trkpt>
      <trkpt lat="47.63445" lon="6.55069">
        <ele>292.89</ele>
        <time>2019-09-26T09:32:29.001Z</time>
      </trkpt>
      <trkpt lat="47.6343" lon="6.55078">
        <ele>293.181</ele>
        <time>2019-09-26T09:32:32.001Z</time>
      </trkpt>
      <trkpt lat="47.63416" lon="6.55087">
        <ele>293.067</ele>
        <time>2019-09-26T09:32:35.001Z</time>
      </trkpt>
      <trkpt lat="47.63398" lon="6.55099">
        <ele>293</ele>
        <time>2019-09-26T09:32:38.001Z</time>
      </trkpt>
      <trkpt lat="47.6338" lon="6.55112">
        <ele>292.923</ele>
        <time>2019-09-26T09:32:41.001Z</time>
      </trkpt>
      <trkpt lat="47.63361" lon="6.55123">
        <ele>292.611</ele>
        <time>2019-09-26T09:32:44.001Z</time>
      </trkpt>
      <trkpt lat="47.63345" lon="6.55134">
        <ele>292.499</ele>
        <time>2019-09-26T09:32:47.001Z</time>
      </trkpt>
      <trkpt lat="47.63329" lon="6.55144">
        <ele>292.005</ele>
        <time>2019-09-26T09:32:50.001Z</time>
      </trkpt>
      <trkpt lat="47.63314" lon="6.55153">
        <ele>291.749</ele>
        <time>2019-09-26T09:32:53.001Z</time>
      </trkpt>
      <trkpt lat="47.63301" lon="6.5516">
        <ele>291.625</ele>
        <time>2019-09-26T09:32:56.001Z</time>
      </trkpt>
      <trkpt lat="47.6329" lon="6.55167">
        <ele>292.16</ele>
        <time>2019-09-26T09:32:59.001Z</time>
      </trkpt>
      <trkpt lat="47.63281" lon="6.55173">
        <ele>292.263</ele>
        <time>2019-09-26T11:33:02Z</time>
      </trkpt>
      <trkpt lat="47.6327" lon="6.55179">
        <ele>291.75</ele>
        <time>2019-09-26T09:33:05.001Z</time>
      </trkpt>
      <trkpt lat="47.63257" lon="6.55188">
        <ele>290.511</ele>
        <time>2019-09-26T09:33:08.001Z</time>
      </trkpt>
      <trkpt lat="47.63239" lon="6.55201">
        <ele>289.541</ele>
        <time>2019-09-26T09:33:11.001Z</time>
      </trkpt>
      <trkpt lat="47.63221" lon="6.55213">
        <ele>288.625</ele>
        <time>2019-09-26T09:33:14.001Z</time>
      </trkpt>
      <trkpt lat="47.63205" lon="6.55222">
        <ele>288.656</ele>
        <time>2019-09-26T09:33:17.001Z</time>
      </trkpt>
      <trkpt lat="47.63188" lon="6.55229">
        <ele>288.658</ele>
        <time>2019-09-26T09:33:20.001Z</time>
      </trkpt>
      <trkpt lat="47.63171" lon="6.55234">
        <ele>288.645</ele>
        <time>2019-09-26T09:33:23.001Z</time>
      </trkpt>
      <trkpt lat="47.63156" lon="6.55238">
        <ele>288.467</ele>
        <time>2019-09-26T09:33:26.001Z</time>
      </trkpt>
      <trkpt lat="47.63141" lon="6.55238">
        <ele>288.893</ele>
        <time>2019-09-26T09:33:29.001Z</time>
      </trkpt>
      <trkpt lat="47.63128" lon="6.55238">
        <ele>289.923</ele>
        <time>2019-09-26T09:33:32.001Z</time>
      </trkpt>
      <trkpt lat="47.63117" lon="6.55236">
        <ele>290.592</ele>
        <time>2019-09-26T09:33:35.001Z</time>
      </trkpt>
      <trkpt lat="47.63107" lon="6.55235">
        <ele>290.808</ele>
        <time>2019-09-26T09:33:38.001Z</time>
      </trkpt>
      <trkpt lat="47.63096" lon="6.55234">
        <ele>291.252</ele>
        <time>2019-09-26T09:33:41.001Z</time>
      </trkpt>
      <trkpt lat="47.63086" lon="6.55233">
        <ele>291.474</ele>
        <time>2019-09-26T09:33:44.001Z</time>
      </trkpt>
      <trkpt lat="47.63074" lon="6.55233">
        <ele>291.465</ele>
        <time>2019-09-26T09:33:47.001Z</time>
      </trkpt>
      <trkpt lat="47.63063" lon="6.55233">
        <ele>291.31</ele>
        <time>2019-09-26T09:33:50.001Z</time>
      </trkpt>
      <trkpt lat="47.63052" lon="6.55234">
        <ele>292.085</ele>
        <time>2019-09-26T09:33:53.001Z</time>
      </trkpt>
      <trkpt lat="47.63042" lon="6.55234">
        <ele>292.513</ele>
        <time>2019-09-26T09:33:56.001Z</time>
      </trkpt>
      <trkpt lat="47.6303" lon="6.55233">
        <ele>293.361</ele>
        <time>2019-09-26T09:33:59.001Z</time>
      </trkpt>
      <trkpt lat="47.63018" lon="6.55233">
        <ele>294.162</ele>
        <time>2019-09-26T11:34:02Z</time>
      </trkpt>
      <trkpt lat="47.63006" lon="6.55232">
        <ele>294.737</ele>
        <time>2019-09-26T09:34:05.001Z</time>
      </trkpt>
      <trkpt lat="47.62994" lon="6.55232">
        <ele>295.122</ele>
        <time>2019-09-26T09:34:08.001Z</time>
      </trkpt>
      <trkpt lat="47.62982" lon="6.55229">
        <ele>295.264</ele>
        <time>2019-09-26T09:34:11.001Z</time>
      </trkpt>
      <trkpt lat="47.62973" lon="6.55221">
        <ele>295.902</ele>
        <time>2019-09-26T09:34:14.001Z</time>
      </trkpt>
      <trkpt lat="47.62968" lon="6.55212">
        <ele>296.97</ele>
        <time>2019-09-26T09:34:17.001Z</time>
      </trkpt>
      <trkpt lat="47.62963" lon="6.55205">
        <ele>297.756</ele>
        <time>2019-09-26T09:34:20.001Z</time>
      </trkpt>
      <trkpt lat="47.62958" lon="6.55197">
        <ele>298.879</ele>
        <time>2019-09-26T09:34:23.001Z</time>
      </trkpt>
      <trkpt lat="47.62953" lon="6.55191">
        <ele>300.174</ele>
        <time>2019-09-26T09:34:26.001Z</time>
      </trkpt>
      <trkpt lat="47.62948" lon="6.55183">
        <ele>300.88</ele>
        <time>2019-09-26T09:34:29.001Z</time>
      </trkpt>
      <trkpt lat="47.62943" lon="6.55176">
        <ele>301.526</ele>
        <time>2019-09-26T09:34:32.001Z</time>
      </trkpt>
      <trkpt lat="47.62939" lon="6.5517">
        <ele>301.848</ele>
        <time>2019-09-26T09:34:35.001Z</time>
      </trkpt>
      <trkpt lat="47.62934" lon="6.55164">
        <ele>302.52</ele>
        <time>2019-09-26T09:34:38.001Z</time>
      </trkpt>
      <trkpt lat="47.62928" lon="6.55158">
        <ele>302.598</ele>
        <time>2019-09-26T09:34:41.001Z</time>
      </trkpt>
      <trkpt lat="47.62924" lon="6.55152">
        <ele>302.614</ele>
        <time>2019-09-26T09:34:44.001Z</time>
      </trkpt>
      <trkpt lat="47.6292" lon="6.55147">
        <ele>304.129</ele>
        <time>2019-09-26T09:34:47.001Z</time>
      </trkpt>
      <trkpt lat="47.62915" lon="6.55139">
        <ele>306.467</ele>
        <time>2019-09-26T09:34:50.001Z</time>
      </trkpt>
      <trkpt lat="47.62912" lon="6.55132">
        <ele>306.804</ele>
        <time>2019-09-26T09:34:53.001Z</time>
      </trkpt>
      <trkpt lat="47.6291" lon="6.55123">
        <ele>306.769</ele>
        <time>2019-09-26T09:34:56.001Z</time>
      </trkpt>
      <trkpt lat="47.62908" lon="6.55115">
        <ele>307.055</ele>
        <time>2019-09-26T09:34:59.001Z</time>
      </trkpt>
      <trkpt lat="47.62907" lon="6.55108">
        <ele>307.057</ele>
        <time>2019-09-26T11:35:02Z</time>
      </trkpt>
      <trkpt lat="47.62906" lon="6.55101">
        <ele>307.136</ele>
        <time>2019-09-26T09:35:05.001Z</time>
      </trkpt>
      <trkpt lat="47.62902" lon="6.55093">
        <ele>307.892</ele>
        <time>2019-09-26T09:35:08.001Z</time>
      </trkpt>
      <trkpt lat="47.62898" lon="6.55085">
        <ele>308.578</ele>
        <time>2019-09-26T09:35:11.001Z</time>
      </trkpt>
      <trkpt lat="47.62895" lon="6.5508">
        <ele>308.756</ele>
        <time>2019-09-26T09:35:14.001Z</time>
      </trkpt>
      <trkpt lat="47.62893" lon="6.55072">
        <ele>308.921</ele>
        <time>2019-09-26T09:35:17.001Z</time>
      </trkpt>
      <trkpt lat="47.6289" lon="6.55067">
        <ele>309.464</ele>
        <time>2019-09-26T09:35:20.001Z</time>
      </trkpt>
      <trkpt lat="47.62886" lon="6.55062">
        <ele>310.05</ele>
        <time>2019-09-26T09:35:23.001Z</time>
      </trkpt>
      <trkpt lat="47.62881" lon="6.55059">
        <ele>310.994</ele>
        <time>2019-09-26T09:35:26.001Z</time>
      </trkpt>
      <trkpt lat="47.62876" lon="6.55055">
        <ele>311.569</ele>
        <time>2019-09-26T09:35:29.001Z</time>
      </trkpt>
      <trkpt lat="47.62871" lon="6.55052">
        <ele>310.592</ele>
        <time>2019-09-26T09:35:32.001Z</time>
      </trkpt>
      <trkpt lat="47.62865" lon="6.55052">
        <ele>310.83</ele>
        <time>2019-09-26T09:35:35.002Z</time>
      </trkpt>
      <trkpt lat="47.62858" lon="6.55053">
        <ele>311.286</ele>
        <time>2019-09-26T09:35:38.001Z</time>
      </trkpt>
      <trkpt lat="47.62852" lon="6.55055">
        <ele>311.153</ele>
        <time>2019-09-26T09:35:41.001Z</time>
      </trkpt>
      <trkpt lat="47.62846" lon="6.55057">
        <ele>311.231</ele>
        <time>2019-09-26T09:35:44.001Z</time>
      </trkpt>
      <trkpt lat="47.62841" lon="6.55058">
        <ele>311.794</ele>
        <time>2019-09-26T09:35:47.001Z</time>
      </trkpt>
      <trkpt lat="47.62836" lon="6.55057">
        <ele>312.627</ele>
        <time>2019-09-26T09:35:50.001Z</time>
      </trkpt>
      <trkpt lat="47.62829" lon="6.55055">
        <ele>312.996</ele>
        <time>2019-09-26T09:35:53.001Z</time>
      </trkpt>
      <trkpt lat="47.62822" lon="6.55055">
        <ele>313.774</ele>
        <time>2019-09-26T09:35:56.001Z</time>
      </trkpt>
      <trkpt lat="47.62815" lon="6.55054">
        <ele>314.423</ele>
        <time>2019-09-26T09:35:59.001Z</time>
      </trkpt>
      <trkpt lat="47.62808" lon="6.55051">
        <ele>314.446</ele>
        <time>2019-09-26T11:36:02Z</time>
      </trkpt>
      <trkpt lat="47.628" lon="6.55048">
        <ele>314.836</ele>
        <time>2019-09-26T09:36:05.001Z</time>
      </trkpt>
      <trkpt lat="47.62792" lon="6.55044">
        <ele>315.126</ele>
        <time>2019-09-26T09:36:08.001Z</time>
      </trkpt>
      <trkpt lat="47.62785" lon="6.55041">
        <ele>315.047</ele>
        <time>2019-09-26T09:36:11.001Z</time>
      </trkpt>
      <trkpt lat="47.62777" lon="6.55035">
        <ele>315.095</ele>
        <time>2019-09-26T09:36:14.001Z</time>
      </trkpt>
      <trkpt lat="47.62769" lon="6.55032">
        <ele>315.973</ele>
        <time>2019-09-26T09:36:17.001Z</time>
      </trkpt>
      <trkpt lat="47.62761" lon="6.55029">
        <ele>316.499</ele>
        <time>2019-09-26T09:36:20.001Z</time>
      </trkpt>
      <trkpt lat="47.62753" lon="6.55025">
        <ele>317.46</ele>
        <time>2019-09-26T09:36:23.001Z</time>
      </trkpt>
      <trkpt lat="47.62746" lon="6.5502">
        <ele>318.664</ele>
        <time>2019-09-26T09:36:26.001Z</time>
      </trkpt>
      <trkpt lat="47.62738" lon="6.55016">
        <ele>318.781</ele>
        <time>2019-09-26T09:36:29.001Z</time>
      </trkpt>
      <trkpt lat="47.62729" lon="6.55011">
        <ele>318.555</ele>
        <time>2019-09-26T09:36:32.001Z</time>
      </trkpt>
      <trkpt lat="47.62721" lon="6.55005">
        <ele>319.081</ele>
        <time>2019-09-26T09:36:35.001Z</time>
      </trkpt>
      <trkpt lat="47.62714" lon="6.54999">
        <ele>318.689</ele>
        <time>2019-09-26T09:36:38.001Z</time>
      </trkpt>
      <trkpt lat="47.62708" lon="6.54995">
        <ele>317.534</ele>
        <time>2019-09-26T09:36:41.001Z</time>
      </trkpt>
      <trkpt lat="47.62702" lon="6.54988">
        <ele>316.694</ele>
        <time>2019-09-26T09:36:44.001Z</time>
      </trkpt>
      <trkpt lat="47.62696" lon="6.54983">
        <ele>315.392</ele>
        <time>2019-09-26T09:36:47.001Z</time>
      </trkpt>
      <trkpt lat="47.62691" lon="6.54977">
        <ele>315.014</ele>
        <time>2019-09-26T09:36:50.001Z</time>
      </trkpt>
      <trkpt lat="47.62685" lon="6.54971">
        <ele>314.934</ele>
        <time>2019-09-26T09:36:53.001Z</time>
      </trkpt>
      <trkpt lat="47.6268" lon="6.54967">
        <ele>315.237</ele>
        <time>2019-09-26T09:36:56.001Z</time>
      </trkpt>
      <trkpt lat="47.62674" lon="6.54962">
        <ele>315.749</ele>
        <time>2019-09-26T09:36:59.001Z</time>
      </trkpt>
      <trkpt lat="47.62668" lon="6.54957">
        <ele>316.133</ele>
        <time>2019-09-26T11:37:02Z</time>
      </trkpt>
      <trkpt lat="47.62661" lon="6.54952">
        <ele>316.708</ele>
        <time>2019-09-26T09:37:05.001Z</time>
      </trkpt>
      <trkpt lat="47.62655" lon="6.54946">
        <ele>317.266</ele>
        <time>2019-09-26T09:37:08.001Z</time>
      </trkpt>
      <trkpt lat="47.6265" lon="6.5494">
        <ele>317.585</ele>
        <time>2019-09-26T09:37:11.001Z</time>
      </trkpt>
      <trkpt lat="47.62645" lon="6.54934">
        <ele>316.824</ele>
        <time>2019-09-26T09:37:14.001Z</time>
      </trkpt>
      <trkpt lat="47.62638" lon="6.54927">
        <ele>316.785</ele>
        <time>2019-09-26T09:37:17.001Z</time>
      </trkpt>
      <trkpt lat="47.62632" lon="6.54922">
        <ele>316.445</ele>
        <time>2019-09-26T09:37:20.001Z</time>
      </trkpt>
      <trkpt lat="47.62627" lon="6.54918">
        <ele>316.15</ele>
        <time>2019-09-26T09:37:23.001Z</time>
      </trkpt>
      <trkpt lat="47.62621" lon="6.54913">
        <ele>316.208</ele>
        <time>2019-09-26T09:37:26.001Z</time>
      </trkpt>
      <trkpt lat="47.62615" lon="6.54907">
        <ele>316.711</ele>
        <time>2019-09-26T09:37:29.001Z</time>
      </trkpt>
      <trkpt lat="47.62609" lon="6.54901">
        <ele>316.652</ele>
        <time>2019-09-26T09:37:32.001Z</time>
      </trkpt>
      <trkpt lat="47.62602" lon="6.54895">
        <ele>316.746</ele>
        <time>2019-09-26T09:37:35.001Z</time>
      </trkpt>
      <trkpt lat="47.62596" lon="6.54889">
        <ele>317.295</ele>
        <time>2019-09-26T09:37:38.001Z</time>
      </trkpt>
      <trkpt lat="47.6259" lon="6.54884">
        <ele>317.736</ele>
        <time>2019-09-26T09:37:41.001Z</time>
      </trkpt>
      <trkpt lat="47.62583" lon="6.5488">
        <ele>318.762</ele>
        <time>2019-09-26T09:37:44.001Z</time>
      </trkpt>
      <trkpt lat="47.62577" lon="6.54874">
        <ele>319.457</ele>
        <time>2019-09-26T09:37:47.001Z</time>
      </trkpt>
      <trkpt lat="47.62572" lon="6.54869">
        <ele>320.166</ele>
        <time>2019-09-26T09:37:50.001Z</time>
      </trkpt>
      <trkpt lat="47.62565" lon="6.54864">
        <ele>320.386</ele>
        <time>2019-09-26T09:37:53.001Z</time>
      </trkpt>
      <trkpt lat="47.6256" lon="6.54858">
        <ele>321.513</ele>
        <time>2019-09-26T09:37:56.001Z</time>
      </trkpt>
      <trkpt lat="47.62554" lon="6.54852">
        <ele>321.916</ele>
        <time>2019-09-26T09:37:59.001Z</time>
      </trkpt>
      <trkpt lat="47.62548" lon="6.54846">
        <ele>322.643</ele>
        <time>2019-09-26T11:38:02Z</time>
      </trkpt>
      <trkpt lat="47.62543" lon="6.5484">
        <ele>323.077</ele>
        <time>2019-09-26T09:38:05.001Z</time>
      </trkpt>
      <trkpt lat="47.62536" lon="6.54834">
        <ele>323.222</ele>
        <time>2019-09-26T09:38:08.001Z</time>
      </trkpt>
      <trkpt lat="47.62531" lon="6.54828">
        <ele>323.03</ele>
        <time>2019-09-26T09:38:11.001Z</time>
      </trkpt>
      <trkpt lat="47.62525" lon="6.54822">
        <ele>324.25</ele>
        <time>2019-09-26T09:38:14.001Z</time>
      </trkpt>
      <trkpt lat="47.62519" lon="6.54814">
        <ele>325.479</ele>
        <time>2019-09-26T09:38:17.001Z</time>
      </trkpt>
      <trkpt lat="47.62514" lon="6.54807">
        <ele>326.148</ele>
        <time>2019-09-26T09:38:20.001Z</time>
      </trkpt>
      <trkpt lat="47.6251" lon="6.54799">
        <ele>326.719</ele>
        <time>2019-09-26T09:38:23.001Z</time>
      </trkpt>
      <trkpt lat="47.62506" lon="6.54791">
        <ele>327.146</ele>
        <time>2019-09-26T09:38:26.001Z</time>
      </trkpt>
      <trkpt lat="47.62502" lon="6.54782">
        <ele>327.436</ele>
        <time>2019-09-26T09:38:29.001Z</time>
      </trkpt>
      <trkpt lat="47.62497" lon="6.54771">
        <ele>327.461</ele>
        <time>2019-09-26T09:38:32.001Z</time>
      </trkpt>
      <trkpt lat="47.62492" lon="6.54759">
        <ele>327.249</ele>
        <time>2019-09-26T09:38:35.001Z</time>
      </trkpt>
      <trkpt lat="47.62487" lon="6.54749">
        <ele>327.305</ele>
        <time>2019-09-26T09:38:38.001Z</time>
      </trkpt>
      <trkpt lat="47.6248" lon="6.54739">
        <ele>326.788</ele>
        <time>2019-09-26T09:38:41.001Z</time>
      </trkpt>
      <trkpt lat="47.62474" lon="6.54729">
        <ele>326.849</ele>
        <time>2019-09-26T09:38:44.001Z</time>
      </trkpt>
      <trkpt lat="47.62467" lon="6.54719">
        <ele>326.697</ele>
        <time>2019-09-26T09:38:47.001Z</time>
      </trkpt>
      <trkpt lat="47.62461" lon="6.54708">
        <ele>326.131</ele>
        <time>2019-09-26T09:38:50.001Z</time>
      </trkpt>
      <trkpt lat="47.62455" lon="6.54695">
        <ele>326.134</ele>
        <time>2019-09-26T09:38:53.001Z</time>
      </trkpt>
      <trkpt lat="47.62447" lon="6.54681">
        <ele>326.1</ele>
        <time>2019-09-26T09:38:56.001Z</time>
      </trkpt>
      <trkpt lat="47.62439" lon="6.54667">
        <ele>325.699</ele>
        <time>2019-09-26T09:38:59.001Z</time>
      </trkpt>
      <trkpt lat="47.62431" lon="6.54652">
        <ele>325.398</ele>
        <time>2019-09-26T11:39:02Z</time>
      </trkpt>
      <trkpt lat="47.62421" lon="6.54636">
        <ele>325.433</ele>
        <time>2019-09-26T09:39:05.001Z</time>
      </trkpt>
      <trkpt lat="47.62411" lon="6.5462">
        <ele>324.754</ele>
        <time>2019-09-26T09:39:08.001Z</time>
      </trkpt>
      <trkpt lat="47.62401" lon="6.54603">
        <ele>324.204</ele>
        <time>2019-09-26T09:39:11.001Z</time>
      </trkpt>
      <trkpt lat="47.62391" lon="6.54586">
        <ele>322.573</ele>
        <time>2019-09-26T09:39:14.001Z</time>
      </trkpt>
      <trkpt lat="47.62381" lon="6.54569">
        <ele>320.928</ele>
        <time>2019-09-26T09:39:17.001Z</time>
      </trkpt>
      <trkpt lat="47.6237" lon="6.54552">
        <ele>319.844</ele>
        <time>2019-09-26T09:39:20.001Z</time>
      </trkpt>
      <trkpt lat="47.6236" lon="6.54534">
        <ele>319.539</ele>
        <time>2019-09-26T09:39:23.001Z</time>
      </trkpt>
      <trkpt lat="47.62351" lon="6.54517">
        <ele>319.069</ele>
        <time>2019-09-26T09:39:26.001Z</time>
      </trkpt>
      <trkpt lat="47.62341" lon="6.54499">
        <ele>318.793</ele>
        <time>2019-09-26T09:39:29.001Z</time>
      </trkpt>
      <trkpt lat="47.62332" lon="6.54483">
        <ele>317.973</ele>
        <time>2019-09-26T09:39:32.001Z</time>
      </trkpt>
      <trkpt lat="47.62323" lon="6.54465">
        <ele>316.843</ele>
        <time>2019-09-26T09:39:35.001Z</time>
      </trkpt>
      <trkpt lat="47.62313" lon="6.54448">
        <ele>315.846</ele>
        <time>2019-09-26T09:39:38.001Z</time>
      </trkpt>
      <trkpt lat="47.62302" lon="6.5443">
        <ele>314.803</ele>
        <time>2019-09-26T09:39:41.001Z</time>
      </trkpt>
      <trkpt lat="47.62291" lon="6.54412">
        <ele>314.456</ele>
        <time>2019-09-26T09:39:44.001Z</time>
      </trkpt>
      <trkpt lat="47.6228" lon="6.54392">
        <ele>314.133</ele>
        <time>2019-09-26T09:39:47.001Z</time>
      </trkpt>
      <trkpt lat="47.62268" lon="6.54372">
        <ele>313.531</ele>
        <time>2019-09-26T09:39:50.001Z</time>
      </trkpt>
      <trkpt lat="47.62256" lon="6.54351">
        <ele>313.913</ele>
        <time>2019-09-26T09:39:53.001Z</time>
      </trkpt>
      <trkpt lat="47.62243" lon="6.54329">
        <ele>313.848</ele>
        <time>2019-09-26T09:39:56.001Z</time>
      </trkpt>
      <trkpt lat="47.6223" lon="6.54306">
        <ele>313.449</ele>
        <time>2019-09-26T09:39:59.001Z</time>
      </trkpt>
      <trkpt lat="47.62217" lon="6.54284">
        <ele>313.356</ele>
        <time>2019-09-26T11:40:02Z</time>
      </trkpt>
      <trkpt lat="47.62203" lon="6.54261">
        <ele>313.349</ele>
        <time>2019-09-26T09:40:05.001Z</time>
      </trkpt>
      <trkpt lat="47.62188" lon="6.54239">
        <ele>313.111</ele>
        <time>2019-09-26T09:40:08.001Z</time>
      </trkpt>
      <trkpt lat="47.62173" lon="6.54217">
        <ele>313.215</ele>
        <time>2019-09-26T09:40:11.001Z</time>
      </trkpt>
      <trkpt lat="47.62158" lon="6.54194">
        <ele>313.239</ele>
        <time>2019-09-26T09:40:14.001Z</time>
      </trkpt>
      <trkpt lat="47.62145" lon="6.54167">
        <ele>312.529</ele>
        <time>2019-09-26T09:40:17.001Z</time>
      </trkpt>
      <trkpt lat="47.62131" lon="6.54139">
        <ele>311.578</ele>
        <time>2019-09-26T09:40:20.001Z</time>
      </trkpt>
      <trkpt lat="47.62116" lon="6.54112">
        <ele>310.709</ele>
        <time>2019-09-26T09:40:23.001Z</time>
      </trkpt>
      <trkpt lat="47.621" lon="6.54087">
        <ele>309.578</ele>
        <time>2019-09-26T09:40:26.001Z</time>
      </trkpt>
      <trkpt lat="47.62085" lon="6.54062">
        <ele>308.526</ele>
        <time>2019-09-26T09:40:29.001Z</time>
      </trkpt>
      <trkpt lat="47.62069" lon="6.5404">
        <ele>307.645</ele>
        <time>2019-09-26T09:40:32.001Z</time>
      </trkpt>
      <trkpt lat="47.62053" lon="6.54017">
        <ele>306.952</ele>
        <time>2019-09-26T09:40:35.001Z</time>
      </trkpt>
      <trkpt lat="47.62037" lon="6.53993">
        <ele>306.779</ele>
        <time>2019-09-26T09:40:38.001Z</time>
      </trkpt>
      <trkpt lat="47.62022" lon="6.53971">
        <ele>306.013</ele>
        <time>2019-09-26T09:40:41.001Z</time>
      </trkpt>
      <trkpt lat="47.62006" lon="6.53949">
        <ele>304.838</ele>
        <time>2019-09-26T09:40:44.001Z</time>
      </trkpt>
      <trkpt lat="47.6199" lon="6.53926">
        <ele>304.308</ele>
        <time>2019-09-26T09:40:47.001Z</time>
      </trkpt>
      <trkpt lat="47.61975" lon="6.53901">
        <ele>304.336</ele>
        <time>2019-09-26T09:40:50.001Z</time>
      </trkpt>
      <trkpt lat="47.61958" lon="6.53875">
        <ele>304.574</ele>
        <time>2019-09-26T09:40:53.001Z</time>
      </trkpt>
      <trkpt lat="47.6194" lon="6.5385">
        <ele>304.48</ele>
        <time>2019-09-26T09:40:56.001Z</time>
      </trkpt>
      <trkpt lat="47.61923" lon="6.53825">
        <ele>303.988</ele>
        <time>2019-09-26T09:40:59.001Z</time>
      </trkpt>
      <trkpt lat="47.61905" lon="6.53801">
        <ele>303.072</ele>
        <time>2019-09-26T11:41:02Z</time>
      </trkpt>
      <trkpt lat="47.61888" lon="6.53777">
        <ele>301.711</ele>
        <time>2019-09-26T09:41:05.001Z</time>
      </trkpt>
      <trkpt lat="47.61873" lon="6.53754">
        <ele>300.793</ele>
        <time>2019-09-26T09:41:08.001Z</time>
      </trkpt>
      <trkpt lat="47.6186" lon="6.53734">
        <ele>300.153</ele>
        <time>2019-09-26T09:41:11.001Z</time>
      </trkpt>
      <trkpt lat="47.61846" lon="6.53715">
        <ele>299.538</ele>
        <time>2019-09-26T09:41:14.001Z</time>
      </trkpt>
      <trkpt lat="47.61834" lon="6.53696">
        <ele>299.019</ele>
        <time>2019-09-26T09:41:17.001Z</time>
      </trkpt>
      <trkpt lat="47.61821" lon="6.53677">
        <ele>298.911</ele>
        <time>2019-09-26T09:41:20.001Z</time>
      </trkpt>
      <trkpt lat="47.61807" lon="6.53658">
        <ele>299.287</ele>
        <time>2019-09-26T09:41:23.001Z</time>
      </trkpt>
      <trkpt lat="47.61794" lon="6.53638">
        <ele>299.015</ele>
        <time>2019-09-26T09:41:26.001Z</time>
      </trkpt>
      <trkpt lat="47.61781" lon="6.53619">
        <ele>298.525</ele>
        <time>2019-09-26T09:41:29.001Z</time>
      </trkpt>
      <trkpt lat="47.61768" lon="6.536">
        <ele>298.071</ele>
        <time>2019-09-26T09:41:32.001Z</time>
      </trkpt>
      <trkpt lat="47.61755" lon="6.5358">
        <ele>297.767</ele>
        <time>2019-09-26T09:41:35.001Z</time>
      </trkpt>
      <trkpt lat="47.61742" lon="6.5356">
        <ele>297.695</ele>
        <time>2019-09-26T09:41:38.001Z</time>
      </trkpt>
      <trkpt lat="47.61729" lon="6.53539">
        <ele>297.656</ele>
        <time>2019-09-26T09:41:41.001Z</time>
      </trkpt>
      <trkpt lat="47.61716" lon="6.53519">
        <ele>298.353</ele>
        <time>2019-09-26T09:41:44.001Z</time>
      </trkpt>
      <trkpt lat="47.61702" lon="6.53499">
        <ele>297.953</ele>
        <time>2019-09-26T09:41:47.001Z</time>
      </trkpt>
      <trkpt lat="47.61687" lon="6.53478">
        <ele>297.365</ele>
        <time>2019-09-26T09:41:50.001Z</time>
      </trkpt>
      <trkpt lat="47.61673" lon="6.53457">
        <ele>296.104</ele>
        <time>2019-09-26T09:41:53.001Z</time>
      </trkpt>
      <trkpt lat="47.61659" lon="6.53437">
        <ele>295.556</ele>
        <time>2019-09-26T09:41:56.001Z</time>
      </trkpt>
      <trkpt lat="47.61645" lon="6.53416">
        <ele>295.495</ele>
        <time>2019-09-26T09:41:59.001Z</time>
      </trkpt>
      <trkpt lat="47.61629" lon="6.53392">
        <ele>295.491</ele>
        <time>2019-09-26T11:42:02Z</time>
      </trkpt>
      <trkpt lat="47.61613" lon="6.53373">
        <ele>294.918</ele>
        <time>2019-09-26T09:42:05.001Z</time>
      </trkpt>
      <trkpt lat="47.61594" lon="6.53356">
        <ele>294.067</ele>
        <time>2019-09-26T09:42:08.001Z</time>
      </trkpt>
      <trkpt lat="47.61574" lon="6.5334">
        <ele>293.118</ele>
        <time>2019-09-26T09:42:11.001Z</time>
      </trkpt>
      <trkpt lat="47.61553" lon="6.53324">
        <ele>292.236</ele>
        <time>2019-09-26T09:42:14.001Z</time>
      </trkpt>
      <trkpt lat="47.61533" lon="6.53307">
        <ele>291.683</ele>
        <time>2019-09-26T09:42:17.001Z</time>
      </trkpt>
      <trkpt lat="47.61513" lon="6.5329">
        <ele>291.306</ele>
        <time>2019-09-26T09:42:20.001Z</time>
      </trkpt>
      <trkpt lat="47.61494" lon="6.53275">
        <ele>291.266</ele>
        <time>2019-09-26T09:42:23.001Z</time>
      </trkpt>
      <trkpt lat="47.61476" lon="6.53261">
        <ele>291.354</ele>
        <time>2019-09-26T09:42:26.001Z</time>
      </trkpt>
      <trkpt lat="47.61456" lon="6.53244">
        <ele>290.989</ele>
        <time>2019-09-26T09:42:29.001Z</time>
      </trkpt>
      <trkpt lat="47.61435" lon="6.53227">
        <ele>290.78</ele>
        <time>2019-09-26T09:42:32.001Z</time>
      </trkpt>
      <trkpt lat="47.61415" lon="6.5321">
        <ele>291.08</ele>
        <time>2019-09-26T09:42:35.001Z</time>
      </trkpt>
      <trkpt lat="47.61398" lon="6.53192">
        <ele>291.15</ele>
        <time>2019-09-26T09:42:38.001Z</time>
      </trkpt>
      <trkpt lat="47.61383" lon="6.5317">
        <ele>290.209</ele>
        <time>2019-09-26T09:42:41.001Z</time>
      </trkpt>
      <trkpt lat="47.61372" lon="6.53141">
        <ele>287.716</ele>
        <time>2019-09-26T09:42:44.001Z</time>
      </trkpt>
      <trkpt lat="47.61363" lon="6.53114">
        <ele>285.045</ele>
        <time>2019-09-26T09:42:47.001Z</time>
      </trkpt>
      <trkpt lat="47.61354" lon="6.53088">
        <ele>282.848</ele>
        <time>2019-09-26T09:42:50.001Z</time>
      </trkpt>
      <trkpt lat="47.61348" lon="6.53065">
        <ele>281.448</ele>
        <time>2019-09-26T09:42:53.001Z</time>
      </trkpt>
      <trkpt lat="47.61344" lon="6.53044">
        <ele>280.769</ele>
        <time>2019-09-26T09:42:56.001Z</time>
      </trkpt>
      <trkpt lat="47.61342" lon="6.53024">
        <ele>279.416</ele>
        <time>2019-09-26T09:42:59.001Z</time>
      </trkpt>
      <trkpt lat="47.61341" lon="6.53006">
        <ele>278.074</ele>
        <time>2019-09-26T11:43:02Z</time>
      </trkpt>
      <trkpt lat="47.61342" lon="6.5299">
        <ele>277.577</ele>
        <time>2019-09-26T09:43:05.001Z</time>
      </trkpt>
      <trkpt lat="47.61342" lon="6.52973">
        <ele>278.179</ele>
        <time>2019-09-26T09:43:08.001Z</time>
      </trkpt>
      <trkpt lat="47.61342" lon="6.52956">
        <ele>278.731</ele>
        <time>2019-09-26T09:43:11.001Z</time>
      </trkpt>
      <trkpt lat="47.61343" lon="6.5294">
        <ele>279.379</ele>
        <time>2019-09-26T09:43:14.001Z</time>
      </trkpt>
      <trkpt lat="47.61343" lon="6.52922">
        <ele>280.6</ele>
        <time>2019-09-26T09:43:17.001Z</time>
      </trkpt>
      <trkpt lat="47.61343" lon="6.52904">
        <ele>281.704</ele>
        <time>2019-09-26T09:43:20.001Z</time>
      </trkpt>
      <trkpt lat="47.61343" lon="6.52888">
        <ele>281.766</ele>
        <time>2019-09-26T09:43:23.001Z</time>
      </trkpt>
      <trkpt lat="47.61343" lon="6.5287">
        <ele>282.124</ele>
        <time>2019-09-26T09:43:26.001Z</time>
      </trkpt>
      <trkpt lat="47.61343" lon="6.5285">
        <ele>282.638</ele>
        <time>2019-09-26T09:43:29.001Z</time>
      </trkpt>
      <trkpt lat="47.61343" lon="6.5283">
        <ele>282.809</ele>
        <time>2019-09-26T09:43:32.001Z</time>
      </trkpt>
      <trkpt lat="47.61344" lon="6.52808">
        <ele>282.747</ele>
        <time>2019-09-26T09:43:35.001Z</time>
      </trkpt>
      <trkpt lat="47.61345" lon="6.52788">
        <ele>282.461</ele>
        <time>2019-09-26T09:43:38.001Z</time>
      </trkpt>
      <trkpt lat="47.61345" lon="6.52768">
        <ele>282.039</ele>
        <time>2019-09-26T09:43:41.001Z</time>
      </trkpt>
      <trkpt lat="47.61344" lon="6.52749">
        <ele>282.158</ele>
        <time>2019-09-26T09:43:44.001Z</time>
      </trkpt>
      <trkpt lat="47.61343" lon="6.52729">
        <ele>281.77</ele>
        <time>2019-09-26T09:43:47.001Z</time>
      </trkpt>
      <trkpt lat="47.6134" lon="6.5271">
        <ele>281.1</ele>
        <time>2019-09-26T09:43:50.001Z</time>
      </trkpt>
      <trkpt lat="47.61337" lon="6.5269">
        <ele>280.642</ele>
        <time>2019-09-26T09:43:53.001Z</time>
      </trkpt>
      <trkpt lat="47.61333" lon="6.52669">
        <ele>280.272</ele>
        <time>2019-09-26T09:43:56.001Z</time>
      </trkpt>
      <trkpt lat="47.61328" lon="6.52646">
        <ele>279.842</ele>
        <time>2019-09-26T09:43:59.001Z</time>
      </trkpt>
      <trkpt lat="47.61322" lon="6.52622">
        <ele>279.597</ele>
        <time>2019-09-26T11:44:02Z</time>
      </trkpt>
      <trkpt lat="47.61313" lon="6.526">
        <ele>279.864</ele>
        <time>2019-09-26T09:44:05.001Z</time>
      </trkpt>
      <trkpt lat="47.61302" lon="6.5258">
        <ele>280.315</ele>
        <time>2019-09-26T09:44:08.001Z</time>
      </trkpt>
      <trkpt lat="47.6129" lon="6.5256">
        <ele>280.396</ele>
        <time>2019-09-26T09:44:11.001Z</time>
      </trkpt>
      <trkpt lat="47.6128" lon="6.52541">
        <ele>280.68</ele>
        <time>2019-09-26T09:44:14.001Z</time>
      </trkpt>
      <trkpt lat="47.6127" lon="6.52524">
        <ele>280.699</ele>
        <time>2019-09-26T09:44:17.001Z</time>
      </trkpt>
      <trkpt lat="47.61261" lon="6.52505">
        <ele>280.849</ele>
        <time>2019-09-26T09:44:20.001Z</time>
      </trkpt>
      <trkpt lat="47.61254" lon="6.52485">
        <ele>281.375</ele>
        <time>2019-09-26T09:44:23.001Z</time>
      </trkpt>
      <trkpt lat="47.61245" lon="6.52468">
        <ele>280.405</ele>
        <time>2019-09-26T09:44:26.001Z</time>
      </trkpt>
      <trkpt lat="47.61235" lon="6.52455">
        <ele>280.001</ele>
        <time>2019-09-26T09:44:29.001Z</time>
      </trkpt>
      <trkpt lat="47.61223" lon="6.52446">
        <ele>279.69</ele>
        <time>2019-09-26T09:44:32.001Z</time>
      </trkpt>
      <trkpt lat="47.61212" lon="6.52439">
        <ele>280.259</ele>
        <time>2019-09-26T09:44:35.001Z</time>
      </trkpt>
      <trkpt lat="47.61201" lon="6.52435">
        <ele>280.198</ele>
        <time>2019-09-26T09:44:38.001Z</time>
      </trkpt>
      <trkpt lat="47.61187" lon="6.52431">
        <ele>279.799</ele>
        <time>2019-09-26T09:44:41.001Z</time>
      </trkpt>
      <trkpt lat="47.61172" lon="6.52425">
        <ele>280.013</ele>
        <time>2019-09-26T09:44:44.001Z</time>
      </trkpt>
      <trkpt lat="47.61159" lon="6.52417">
        <ele>281.219</ele>
        <time>2019-09-26T09:44:47.001Z</time>
      </trkpt>
      <trkpt lat="47.61147" lon="6.52408">
        <ele>282.36</ele>
        <time>2019-09-26T09:44:50.001Z</time>
      </trkpt>
      <trkpt lat="47.61135" lon="6.52397">
        <ele>282.743</ele>
        <time>2019-09-26T09:44:53.001Z</time>
      </trkpt>
      <trkpt lat="47.61124" lon="6.52389">
        <ele>283.334</ele>
        <time>2019-09-26T09:44:56.001Z</time>
      </trkpt>
      <trkpt lat="47.61112" lon="6.52382">
        <ele>283.189</ele>
        <time>2019-09-26T09:44:59.001Z</time>
      </trkpt>
      <trkpt lat="47.61098" lon="6.52376">
        <ele>283.246</ele>
        <time>2019-09-26T11:45:02Z</time>
      </trkpt>
      <trkpt lat="47.61085" lon="6.52369">
        <ele>284.666</ele>
        <time>2019-09-26T09:45:05.001Z</time>
      </trkpt>
      <trkpt lat="47.61072" lon="6.52362">
        <ele>285.144</ele>
        <time>2019-09-26T09:45:08.001Z</time>
      </trkpt>
      <trkpt lat="47.6106" lon="6.52357">
        <ele>286.138</ele>
        <time>2019-09-26T09:45:11.001Z</time>
      </trkpt>
      <trkpt lat="47.61052" lon="6.52352">
        <ele>286.419</ele>
        <time>2019-09-26T09:45:14.001Z</time>
      </trkpt>
      <trkpt lat="47.61044" lon="6.52347">
        <ele>287.114</ele>
        <time>2019-09-26T09:45:17.001Z</time>
      </trkpt>
      <trkpt lat="47.61037" lon="6.52344">
        <ele>287.861</ele>
        <time>2019-09-26T09:45:20.001Z</time>
      </trkpt>
      <trkpt lat="47.6103" lon="6.5234">
        <ele>288.094</ele>
        <time>2019-09-26T09:45:23.001Z</time>
      </trkpt>
      <trkpt lat="47.61022" lon="6.52337">
        <ele>288.636</ele>
        <time>2019-09-26T09:45:26.001Z</time>
      </trkpt>
      <trkpt lat="47.61015" lon="6.52332">
        <ele>289.39</ele>
        <time>2019-09-26T09:45:29.001Z</time>
      </trkpt>
      <trkpt lat="47.61008" lon="6.5233">
        <ele>289.62</ele>
        <time>2019-09-26T09:45:32.001Z</time>
      </trkpt>
      <trkpt lat="47.61002" lon="6.52327">
        <ele>289.587</ele>
        <time>2019-09-26T09:45:35.001Z</time>
      </trkpt>
      <trkpt lat="47.60994" lon="6.52324">
        <ele>290.116</ele>
        <time>2019-09-26T09:45:38.001Z</time>
      </trkpt>
      <trkpt lat="47.60986" lon="6.52321">
        <ele>290.447</ele>
        <time>2019-09-26T09:45:41.001Z</time>
      </trkpt>
      <trkpt lat="47.60978" lon="6.52317">
        <ele>290.617</ele>
        <time>2019-09-26T09:45:44.001Z</time>
      </trkpt>
      <trkpt lat="47.60972" lon="6.52312">
        <ele>292.078</ele>
        <time>2019-09-26T09:45:47.001Z</time>
      </trkpt>
      <trkpt lat="47.60966" lon="6.52308">
        <ele>293.004</ele>
        <time>2019-09-26T09:45:50.001Z</time>
      </trkpt>
      <trkpt lat="47.6096" lon="6.52305">
        <ele>294.092</ele>
        <time>2019-09-26T09:45:53.001Z</time>
      </trkpt>
      <trkpt lat="47.60955" lon="6.52301">
        <ele>294.459</ele>
        <time>2019-09-26T09:45:56.001Z</time>
      </trkpt>
      <trkpt lat="47.60949" lon="6.52297">
        <ele>294.225</ele>
        <time>2019-09-26T09:45:59.001Z</time>
      </trkpt>
      <trkpt lat="47.60942" lon="6.52293">
        <ele>294.15</ele>
        <time>2019-09-26T11:46:02Z</time>
      </trkpt>
      <trkpt lat="47.60936" lon="6.52289">
        <ele>293.952</ele>
        <time>2019-09-26T09:46:05.001Z</time>
      </trkpt>
      <trkpt lat="47.60931" lon="6.52285">
        <ele>293.253</ele>
        <time>2019-09-26T09:46:08.001Z</time>
      </trkpt>
      <trkpt lat="47.60926" lon="6.52281">
        <ele>294.327</ele>
        <time>2019-09-26T09:46:11.001Z</time>
      </trkpt>
      <trkpt lat="47.6092" lon="6.52278">
        <ele>295.669</ele>
        <time>2019-09-26T09:46:14.001Z</time>
      </trkpt>
      <trkpt lat="47.60915" lon="6.52273">
        <ele>296.466</ele>
        <time>2019-09-26T09:46:17.001Z</time>
      </trkpt>
      <trkpt lat="47.6091" lon="6.5227">
        <ele>298.179</ele>
        <time>2019-09-26T09:46:20.001Z</time>
      </trkpt>
      <trkpt lat="47.60905" lon="6.52268">
        <ele>298.998</ele>
        <time>2019-09-26T09:46:23.001Z</time>
      </trkpt>
      <trkpt lat="47.609" lon="6.52265">
        <ele>298.504</ele>
        <time>2019-09-26T09:46:26.001Z</time>
      </trkpt>
      <trkpt lat="47.60894" lon="6.52262">
        <ele>298.312</ele>
        <time>2019-09-26T09:46:29.001Z</time>
      </trkpt>
      <trkpt lat="47.60889" lon="6.52259">
        <ele>298.931</ele>
        <time>2019-09-26T09:46:32.001Z</time>
      </trkpt>
      <trkpt lat="47.60885" lon="6.52256">
        <ele>298.731</ele>
        <time>2019-09-26T09:46:35.001Z</time>
      </trkpt>
      <trkpt lat="47.6088" lon="6.52253">
        <ele>298.759</ele>
        <time>2019-09-26T09:46:38.001Z</time>
      </trkpt>
      <trkpt lat="47.60875" lon="6.52251">
        <ele>298.416</ele>
        <time>2019-09-26T09:46:41.001Z</time>
      </trkpt>
      <trkpt lat="47.60871" lon="6.52249">
        <ele>299.035</ele>
        <time>2019-09-26T09:46:44.001Z</time>
      </trkpt>
      <trkpt lat="47.60865" lon="6.52248">
        <ele>299.725</ele>
        <time>2019-09-26T09:46:47.001Z</time>
      </trkpt>
      <trkpt lat="47.60859" lon="6.52247">
        <ele>299.782</ele>
        <time>2019-09-26T09:46:50.001Z</time>
      </trkpt>
      <trkpt lat="47.60854" lon="6.52245">
        <ele>300.261</ele>
        <time>2019-09-26T09:46:53.001Z</time>
      </trkpt>
      <trkpt lat="47.60849" lon="6.52244">
        <ele>300.848</ele>
        <time>2019-09-26T09:46:56.001Z</time>
      </trkpt>
      <trkpt lat="47.60843" lon="6.52244">
        <ele>301.335</ele>
        <time>2019-09-26T09:46:59.001Z</time>
      </trkpt>
      <trkpt lat="47.60837" lon="6.52243">
        <ele>301.661</ele>
        <time>2019-09-26T11:47:02Z</time>
      </trkpt>
      <trkpt lat="47.6083" lon="6.5224">
        <ele>303.01</ele>
        <time>2019-09-26T09:47:05.001Z</time>
      </trkpt>
      <trkpt lat="47.60823" lon="6.52238">
        <ele>303.794</ele>
        <time>2019-09-26T09:47:08.001Z</time>
      </trkpt>
      <trkpt lat="47.60816" lon="6.52236">
        <ele>303.955</ele>
        <time>2019-09-26T09:47:11.001Z</time>
      </trkpt>
      <trkpt lat="47.60808" lon="6.52234">
        <ele>303.716</ele>
        <time>2019-09-26T09:47:14.001Z</time>
      </trkpt>
      <trkpt lat="47.60801" lon="6.52231">
        <ele>304.414</ele>
        <time>2019-09-26T09:47:17.001Z</time>
      </trkpt>
      <trkpt lat="47.60793" lon="6.52229">
        <ele>304.452</ele>
        <time>2019-09-26T09:47:20.001Z</time>
      </trkpt>
      <trkpt lat="47.60787" lon="6.52225">
        <ele>305.033</ele>
        <time>2019-09-26T09:47:23.001Z</time>
      </trkpt>
      <trkpt lat="47.60779" lon="6.52222">
        <ele>305.338</ele>
        <time>2019-09-26T09:47:26.001Z</time>
      </trkpt>
      <trkpt lat="47.60771" lon="6.52218">
        <ele>305.462</ele>
        <time>2019-09-26T09:47:29.001Z</time>
      </trkpt>
      <trkpt lat="47.60762" lon="6.52212">
        <ele>306.008</ele>
        <time>2019-09-26T09:47:32.001Z</time>
      </trkpt>
      <trkpt lat="47.6075" lon="6.52205">
        <ele>306.781</ele>
        <time>2019-09-26T09:47:35.001Z</time>
      </trkpt>
      <trkpt lat="47.60734" lon="6.52198">
        <ele>307.336</ele>
        <time>2019-09-26T09:47:38.001Z</time>
      </trkpt>
      <trkpt lat="47.60714" lon="6.5219">
        <ele>307.125</ele>
        <time>2019-09-26T09:47:41.001Z</time>
      </trkpt>
      <trkpt lat="47.60692" lon="6.52184">
        <ele>306.198</ele>
        <time>2019-09-26T09:47:44.001Z</time>
      </trkpt>
      <trkpt lat="47.60666" lon="6.5218">
        <ele>304.423</ele>
        <time>2019-09-26T09:47:47.001Z</time>
      </trkpt>
      <trkpt lat="47.60636" lon="6.52178">
        <ele>302.702</ele>
        <time>2019-09-26T09:47:50.001Z</time>
      </trkpt>
      <trkpt lat="47.60608" lon="6.52181">
        <ele>300.294</ele>
        <time>2019-09-26T09:47:53.001Z</time>
      </trkpt>
      <trkpt lat="47.60587" lon="6.52183">
        <ele>297.747</ele>
        <time>2019-09-26T09:47:56.001Z</time>
      </trkpt>
      <trkpt lat="47.60564" lon="6.52177">
        <ele>295.251</ele>
        <time>2019-09-26T09:47:59.001Z</time>
      </trkpt>
      <trkpt lat="47.60544" lon="6.5216">
        <ele>293.522</ele>
        <time>2019-09-26T11:48:02Z</time>
      </trkpt>
      <trkpt lat="47.60528" lon="6.52141">
        <ele>291.33</ele>
        <time>2019-09-26T09:48:05.001Z</time>
      </trkpt>
      <trkpt lat="47.60513" lon="6.52123">
        <ele>289.474</ele>
        <time>2019-09-26T09:48:08.001Z</time>
      </trkpt>
      <trkpt lat="47.60501" lon="6.52105">
        <ele>288.738</ele>
        <time>2019-09-26T09:48:11.001Z</time>
      </trkpt>
      <trkpt lat="47.6049" lon="6.52087">
        <ele>288.08</ele>
        <time>2019-09-26T09:48:14.001Z</time>
      </trkpt>
      <trkpt lat="47.60482" lon="6.52068">
        <ele>287.549</ele>
        <time>2019-09-26T09:48:17.001Z</time>
      </trkpt>
      <trkpt lat="47.60476" lon="6.52051">
        <ele>287.709</ele>
        <time>2019-09-26T09:48:20.001Z</time>
      </trkpt>
      <trkpt lat="47.60472" lon="6.52041">
        <ele>287.457</ele>
        <time>2019-09-26T09:48:23.001Z</time>
      </trkpt>
      <trkpt lat="47.60468" lon="6.52031">
        <ele>287.065</ele>
        <time>2019-09-26T09:48:26.001Z</time>
      </trkpt>
      <trkpt lat="47.60465" lon="6.5202">
        <ele>287.151</ele>
        <time>2019-09-26T09:48:29.001Z</time>
      </trkpt>
      <trkpt lat="47.60461" lon="6.5201">
        <ele>287.399</ele>
        <time>2019-09-26T09:48:32.001Z</time>
      </trkpt>
      <trkpt lat="47.60458" lon="6.51999">
        <ele>287.909</ele>
        <time>2019-09-26T09:48:35.001Z</time>
      </trkpt>
      <trkpt lat="47.60453" lon="6.51988">
        <ele>288.667</ele>
        <time>2019-09-26T09:48:38.001Z</time>
      </trkpt>
      <trkpt lat="47.60449" lon="6.51977">
        <ele>288.774</ele>
        <time>2019-09-26T09:48:41.001Z</time>
      </trkpt>
      <trkpt lat="47.60444" lon="6.51967">
        <ele>289.147</ele>
        <time>2019-09-26T09:48:44.001Z</time>
      </trkpt>
      <trkpt lat="47.60438" lon="6.51953">
        <ele>289.178</ele>
        <time>2019-09-26T09:48:47.001Z</time>
      </trkpt>
      <trkpt lat="47.60433" lon="6.5194">
        <ele>289.563</ele>
        <time>2019-09-26T09:48:50.001Z</time>
      </trkpt>
      <trkpt lat="47.60428" lon="6.51928">
        <ele>289.142</ele>
        <time>2019-09-26T09:48:53.001Z</time>
      </trkpt>
      <trkpt lat="47.60422" lon="6.51917">
        <ele>289.25</ele>
        <time>2019-09-26T09:48:56.001Z</time>
      </trkpt>
      <trkpt lat="47.60416" lon="6.51904">
        <ele>288.845</ele>
        <time>2019-09-26T09:48:59.001Z</time>
      </trkpt>
      <trkpt lat="47.60409" lon="6.5189">
        <ele>288.499</ele>
        <time>2019-09-26T11:49:02Z</time>
      </trkpt>
      <trkpt lat="47.60403" lon="6.51877">
        <ele>288.276</ele>
        <time>2019-09-26T09:49:05.001Z</time>
      </trkpt>
      <trkpt lat="47.60397" lon="6.51865">
        <ele>288.336</ele>
        <time>2019-09-26T09:49:08.001Z</time>
      </trkpt>
      <trkpt lat="47.60391" lon="6.51853">
        <ele>288.476</ele>
        <time>2019-09-26T09:49:11.001Z</time>
      </trkpt>
      <trkpt lat="47.60386" lon="6.51843">
        <ele>288.487</ele>
        <time>2019-09-26T09:49:14.001Z</time>
      </trkpt>
      <trkpt lat="47.60381" lon="6.51833">
        <ele>288.67</ele>
        <time>2019-09-26T09:49:17.001Z</time>
      </trkpt>
      <trkpt lat="47.60375" lon="6.51822">
        <ele>288.709</ele>
        <time>2019-09-26T09:49:20.001Z</time>
      </trkpt>
      <trkpt lat="47.60369" lon="6.51811">
        <ele>288.766</ele>
        <time>2019-09-26T09:49:23.001Z</time>
      </trkpt>
      <trkpt lat="47.60363" lon="6.518">
        <ele>288.756</ele>
        <time>2019-09-26T09:49:26.001Z</time>
      </trkpt>
      <trkpt lat="47.60358" lon="6.51789">
        <ele>288.859</ele>
        <time>2019-09-26T09:49:29.001Z</time>
      </trkpt>
      <trkpt lat="47.60352" lon="6.51778">
        <ele>289.007</ele>
        <time>2019-09-26T09:49:32.001Z</time>
      </trkpt>
      <trkpt lat="47.60346" lon="6.51766">
        <ele>288.763</ele>
        <time>2019-09-26T09:49:35.001Z</time>
      </trkpt>
      <trkpt lat="47.6034" lon="6.51755">
        <ele>289.05</ele>
        <time>2019-09-26T09:49:38.001Z</time>
      </trkpt>
      <trkpt lat="47.60333" lon="6.51745">
        <ele>290.03</ele>
        <time>2019-09-26T09:49:41.001Z</time>
      </trkpt>
      <trkpt lat="47.60325" lon="6.51736">
        <ele>289.92</ele>
        <time>2019-09-26T09:49:44.001Z</time>
      </trkpt>
      <trkpt lat="47.60317" lon="6.51728">
        <ele>290.074</ele>
        <time>2019-09-26T09:49:47.001Z</time>
      </trkpt>
      <trkpt lat="47.60308" lon="6.51721">
        <ele>290.558</ele>
        <time>2019-09-26T09:49:50.001Z</time>
      </trkpt>
      <trkpt lat="47.60299" lon="6.51714">
        <ele>290.825</ele>
        <time>2019-09-26T09:49:53.001Z</time>
      </trkpt>
      <trkpt lat="47.60291" lon="6.51708">
        <ele>291.228</ele>
        <time>2019-09-26T09:49:56.001Z</time>
      </trkpt>
      <trkpt lat="47.60283" lon="6.51701">
        <ele>291.247</ele>
        <time>2019-09-26T09:49:59.001Z</time>
      </trkpt>
      <trkpt lat="47.60275" lon="6.51695">
        <ele>291.118</ele>
        <time>2019-09-26T11:50:02Z</time>
      </trkpt>
      <trkpt lat="47.60266" lon="6.51688">
        <ele>291.204</ele>
        <time>2019-09-26T09:50:05.001Z</time>
      </trkpt>
      <trkpt lat="47.60258" lon="6.51681">
        <ele>291.279</ele>
        <time>2019-09-26T09:50:08.001Z</time>
      </trkpt>
      <trkpt lat="47.6025" lon="6.51674">
        <ele>291.611</ele>
        <time>2019-09-26T09:50:11.001Z</time>
      </trkpt>
      <trkpt lat="47.60242" lon="6.51667">
        <ele>291.712</ele>
        <time>2019-09-26T09:50:14.001Z</time>
      </trkpt>
      <trkpt lat="47.60234" lon="6.51661">
        <ele>291.816</ele>
        <time>2019-09-26T09:50:17.001Z</time>
      </trkpt>
      <trkpt lat="47.60226" lon="6.51654">
        <ele>292.255</ele>
        <time>2019-09-26T09:50:20.001Z</time>
      </trkpt>
      <trkpt lat="47.60219" lon="6.51646">
        <ele>292.206</ele>
        <time>2019-09-26T09:50:23.001Z</time>
      </trkpt>
      <trkpt lat="47.60212" lon="6.51638">
        <ele>292.384</ele>
        <time>2019-09-26T09:50:26.001Z</time>
      </trkpt>
      <trkpt lat="47.60205" lon="6.5163">
        <ele>292.515</ele>
        <time>2019-09-26T09:50:29.001Z</time>
      </trkpt>
      <trkpt lat="47.60198" lon="6.51622">
        <ele>293.032</ele>
        <time>2019-09-26T09:50:32.001Z</time>
      </trkpt>
      <trkpt lat="47.60191" lon="6.51615">
        <ele>294.069</ele>
        <time>2019-09-26T09:50:35.001Z</time>
      </trkpt>
      <trkpt lat="47.60184" lon="6.51607">
        <ele>294.513</ele>
        <time>2019-09-26T09:50:38.001Z</time>
      </trkpt>
      <trkpt lat="47.60177" lon="6.51601">
        <ele>294.9</ele>
        <time>2019-09-26T09:50:41.001Z</time>
      </trkpt>
      <trkpt lat="47.60169" lon="6.51593">
        <ele>295.407</ele>
        <time>2019-09-26T09:50:44.001Z</time>
      </trkpt>
      <trkpt lat="47.60162" lon="6.51586">
        <ele>296.565</ele>
        <time>2019-09-26T09:50:47.001Z</time>
      </trkpt>
      <trkpt lat="47.60155" lon="6.51578">
        <ele>297.362</ele>
        <time>2019-09-26T09:50:50.001Z</time>
      </trkpt>
      <trkpt lat="47.60147" lon="6.51571">
        <ele>298.234</ele>
        <time>2019-09-26T09:50:53.001Z</time>
      </trkpt>
      <trkpt lat="47.6014" lon="6.51563">
        <ele>299.031</ele>
        <time>2019-09-26T09:50:56.001Z</time>
      </trkpt>
      <trkpt lat="47.60133" lon="6.51556">
        <ele>300.276</ele>
        <time>2019-09-26T09:50:59.001Z</time>
      </trkpt>
      <trkpt lat="47.60124" lon="6.51549">
        <ele>301.525</ele>
        <time>2019-09-26T11:51:02Z</time>
      </trkpt>
      <trkpt lat="47.60117" lon="6.5154">
        <ele>302.421</ele>
        <time>2019-09-26T09:51:05.001Z</time>
      </trkpt>
      <trkpt lat="47.60109" lon="6.51529">
        <ele>303.158</ele>
        <time>2019-09-26T09:51:08.001Z</time>
      </trkpt>
      <trkpt lat="47.60101" lon="6.51521">
        <ele>303.482</ele>
        <time>2019-09-26T09:51:11.001Z</time>
      </trkpt>
      <trkpt lat="47.60094" lon="6.51513">
        <ele>303.52</ele>
        <time>2019-09-26T09:51:14.001Z</time>
      </trkpt>
      <trkpt lat="47.60087" lon="6.51505">
        <ele>303.445</ele>
        <time>2019-09-26T09:51:17.001Z</time>
      </trkpt>
      <trkpt lat="47.6008" lon="6.51497">
        <ele>303.71</ele>
        <time>2019-09-26T09:51:20.001Z</time>
      </trkpt>
      <trkpt lat="47.60072" lon="6.5149">
        <ele>303.898</ele>
        <time>2019-09-26T09:51:23.001Z</time>
      </trkpt>
      <trkpt lat="47.60065" lon="6.51482">
        <ele>303.94</ele>
        <time>2019-09-26T09:51:26.001Z</time>
      </trkpt>
      <trkpt lat="47.60059" lon="6.51476">
        <ele>304.448</ele>
        <time>2019-09-26T09:51:29.001Z</time>
      </trkpt>
      <trkpt lat="47.60051" lon="6.51468">
        <ele>304.571</ele>
        <time>2019-09-26T09:51:32.001Z</time>
      </trkpt>
      <trkpt lat="47.60043" lon="6.51461">
        <ele>304.245</ele>
        <time>2019-09-26T09:51:35.001Z</time>
      </trkpt>
      <trkpt lat="47.60035" lon="6.51453">
        <ele>304.214</ele>
        <time>2019-09-26T09:51:38.001Z</time>
      </trkpt>
      <trkpt lat="47.60027" lon="6.51444">
        <ele>304.675</ele>
        <time>2019-09-26T09:51:41.001Z</time>
      </trkpt>
      <trkpt lat="47.60018" lon="6.51436">
        <ele>304.837</ele>
        <time>2019-09-26T09:51:44.001Z</time>
      </trkpt>
      <trkpt lat="47.6001" lon="6.51427">
        <ele>305.105</ele>
        <time>2019-09-26T09:51:47.001Z</time>
      </trkpt>
      <trkpt lat="47.60002" lon="6.51418">
        <ele>305.216</ele>
        <time>2019-09-26T09:51:50.001Z</time>
      </trkpt>
      <trkpt lat="47.59994" lon="6.51409">
        <ele>305.043</ele>
        <time>2019-09-26T09:51:53.001Z</time>
      </trkpt>
      <trkpt lat="47.59986" lon="6.514">
        <ele>305.301</ele>
        <time>2019-09-26T09:51:56.001Z</time>
      </trkpt>
      <trkpt lat="47.59978" lon="6.51391">
        <ele>305.059</ele>
        <time>2019-09-26T09:51:59.001Z</time>
      </trkpt>
      <trkpt lat="47.5997" lon="6.51383">
        <ele>304.928</ele>
        <time>2019-09-26T11:52:02Z</time>
      </trkpt>
      <trkpt lat="47.59963" lon="6.51374">
        <ele>304.792</ele>
        <time>2019-09-26T09:52:05.001Z</time>
      </trkpt>
      <trkpt lat="47.59955" lon="6.51367">
        <ele>304.457</ele>
        <time>2019-09-26T09:52:08.001Z</time>
      </trkpt>
      <trkpt lat="47.59948" lon="6.5136">
        <ele>304.311</ele>
        <time>2019-09-26T09:52:11.001Z</time>
      </trkpt>
      <trkpt lat="47.59941" lon="6.51352">
        <ele>304.235</ele>
        <time>2019-09-26T09:52:14.001Z</time>
      </trkpt>
      <trkpt lat="47.59933" lon="6.51344">
        <ele>304.417</ele>
        <time>2019-09-26T09:52:17.001Z</time>
      </trkpt>
      <trkpt lat="47.59927" lon="6.51337">
        <ele>304.934</ele>
        <time>2019-09-26T09:52:20.001Z</time>
      </trkpt>
      <trkpt lat="47.5992" lon="6.51329">
        <ele>305.286</ele>
        <time>2019-09-26T09:52:23.001Z</time>
      </trkpt>
      <trkpt lat="47.59912" lon="6.51321">
        <ele>305.76</ele>
        <time>2019-09-26T09:52:26.001Z</time>
      </trkpt>
      <trkpt lat="47.59905" lon="6.51313">
        <ele>306.614</ele>
        <time>2019-09-26T09:52:29.001Z</time>
      </trkpt>
      <trkpt lat="47.59898" lon="6.51304">
        <ele>307.946</ele>
        <time>2019-09-26T09:52:32.001Z</time>
      </trkpt>
      <trkpt lat="47.59891" lon="6.51296">
        <ele>308.615</ele>
        <time>2019-09-26T09:52:35.001Z</time>
      </trkpt>
      <trkpt lat="47.59883" lon="6.51288">
        <ele>308.928</ele>
        <time>2019-09-26T09:52:38.001Z</time>
      </trkpt>
      <trkpt lat="47.59876" lon="6.51282">
        <ele>309.431</ele>
        <time>2019-09-26T09:52:41.001Z</time>
      </trkpt>
      <trkpt lat="47.59869" lon="6.51273">
        <ele>309.613</ele>
        <time>2019-09-26T09:52:44.001Z</time>
      </trkpt>
      <trkpt lat="47.59862" lon="6.51266">
        <ele>309.653</ele>
        <time>2019-09-26T09:52:47.001Z</time>
      </trkpt>
      <trkpt lat="47.59854" lon="6.51259">
        <ele>309.435</ele>
        <time>2019-09-26T09:52:50.001Z</time>
      </trkpt>
      <trkpt lat="47.59847" lon="6.51251">
        <ele>309.875</ele>
        <time>2019-09-26T09:52:53.001Z</time>
      </trkpt>
      <trkpt lat="47.5984" lon="6.51243">
        <ele>310.096</ele>
        <time>2019-09-26T09:52:56.001Z</time>
      </trkpt>
      <trkpt lat="47.59833" lon="6.51235">
        <ele>310.573</ele>
        <time>2019-09-26T09:52:59.001Z</time>
      </trkpt>
      <trkpt lat="47.59826" lon="6.51227">
        <ele>310.38</ele>
        <time>2019-09-26T11:53:02Z</time>
      </trkpt>
      <trkpt lat="47.59818" lon="6.5122">
        <ele>310.234</ele>
        <time>2019-09-26T09:53:05.001Z</time>
      </trkpt>
      <trkpt lat="47.59811" lon="6.51213">
        <ele>310.023</ele>
        <time>2019-09-26T09:53:08.001Z</time>
      </trkpt>
      <trkpt lat="47.59804" lon="6.51205">
        <ele>310.617</ele>
        <time>2019-09-26T09:53:11.001Z</time>
      </trkpt>
      <trkpt lat="47.59796" lon="6.51197">
        <ele>311.209</ele>
        <time>2019-09-26T09:53:14.001Z</time>
      </trkpt>
      <trkpt lat="47.59787" lon="6.51187">
        <ele>311.497</ele>
        <time>2019-09-26T09:53:17.001Z</time>
      </trkpt>
      <trkpt lat="47.59778" lon="6.51179">
        <ele>311.611</ele>
        <time>2019-09-26T09:53:20.001Z</time>
      </trkpt>
      <trkpt lat="47.59769" lon="6.51169">
        <ele>311.49</ele>
        <time>2019-09-26T09:53:23.001Z</time>
      </trkpt>
      <trkpt lat="47.5976" lon="6.51158">
        <ele>311.194</ele>
        <time>2019-09-26T09:53:26.001Z</time>
      </trkpt>
      <trkpt lat="47.59749" lon="6.51146">
        <ele>310.923</ele>
        <time>2019-09-26T09:53:29.001Z</time>
      </trkpt>
      <trkpt lat="47.59741" lon="6.51131">
        <ele>309.995</ele>
        <time>2019-09-26T09:53:32.001Z</time>
      </trkpt>
      <trkpt lat="47.5974" lon="6.51112">
        <ele>308.854</ele>
        <time>2019-09-26T09:53:35.001Z</time>
      </trkpt>
      <trkpt lat="47.59744" lon="6.51095">
        <ele>309.187</ele>
        <time>2019-09-26T09:53:38.001Z</time>
      </trkpt>
      <trkpt lat="47.59748" lon="6.51078">
        <ele>310.159</ele>
        <time>2019-09-26T09:53:41.001Z</time>
      </trkpt>
      <trkpt lat="47.59751" lon="6.5106">
        <ele>310.089</ele>
        <time>2019-09-26T09:53:44.001Z</time>
      </trkpt>
      <trkpt lat="47.59752" lon="6.51041">
        <ele>309.741</ele>
        <time>2019-09-26T09:53:47.001Z</time>
      </trkpt>
      <trkpt lat="47.59751" lon="6.51024">
        <ele>309.607</ele>
        <time>2019-09-26T09:53:50.001Z</time>
      </trkpt>
      <trkpt lat="47.59746" lon="6.51007">
        <ele>308.373</ele>
        <time>2019-09-26T09:53:53.001Z</time>
      </trkpt>
      <trkpt lat="47.59737" lon="6.50992">
        <ele>307.5</ele>
        <time>2019-09-26T09:53:56.001Z</time>
      </trkpt>
      <trkpt lat="47.59726" lon="6.50981">
        <ele>307.106</ele>
        <time>2019-09-26T09:53:59.001Z</time>
      </trkpt>
      <trkpt lat="47.59714" lon="6.50972">
        <ele>306.322</ele>
        <time>2019-09-26T11:54:02Z</time>
      </trkpt>
      <trkpt lat="47.597" lon="6.50963">
        <ele>305.928</ele>
        <time>2019-09-26T09:54:05.001Z</time>
      </trkpt>
      <trkpt lat="47.59689" lon="6.50955">
        <ele>305.504</ele>
        <time>2019-09-26T09:54:08.001Z</time>
      </trkpt>
      <trkpt lat="47.5968" lon="6.50947">
        <ele>304.955</ele>
        <time>2019-09-26T09:54:11.001Z</time>
      </trkpt>
      <trkpt lat="47.5967" lon="6.50937">
        <ele>304.241</ele>
        <time>2019-09-26T09:54:14.001Z</time>
      </trkpt>
      <trkpt lat="47.59659" lon="6.50928">
        <ele>304.241</ele>
        <time>2019-09-26T09:54:17.001Z</time>
      </trkpt>
      <trkpt lat="47.59648" lon="6.50917">
        <ele>304.314</ele>
        <time>2019-09-26T09:54:20.001Z</time>
      </trkpt>
      <trkpt lat="47.59637" lon="6.50907">
        <ele>304.11</ele>
        <time>2019-09-26T09:54:23.001Z</time>
      </trkpt>
      <trkpt lat="47.59626" lon="6.50897">
        <ele>303.957</ele>
        <time>2019-09-26T09:54:26.001Z</time>
      </trkpt>
      <trkpt lat="47.59616" lon="6.50887">
        <ele>303.987</ele>
        <time>2019-09-26T09:54:29.001Z</time>
      </trkpt>
      <trkpt lat="47.59605" lon="6.50877">
        <ele>304.316</ele>
        <time>2019-09-26T09:54:32.001Z</time>
      </trkpt>
      <trkpt lat="47.59595" lon="6.50866">
        <ele>304.02</ele>
        <time>2019-09-26T09:54:35.001Z</time>
      </trkpt>
      <trkpt lat="47.59585" lon="6.50856">
        <ele>304.309</ele>
        <time>2019-09-26T09:54:38.001Z</time>
      </trkpt>
      <trkpt lat="47.59577" lon="6.50848">
        <ele>304.862</ele>
        <time>2019-09-26T09:54:41.001Z</time>
      </trkpt>
      <trkpt lat="47.59569" lon="6.50841">
        <ele>305.089</ele>
        <time>2019-09-26T09:54:44.001Z</time>
      </trkpt>
      <trkpt lat="47.59563" lon="6.50835">
        <ele>305.034</ele>
        <time>2019-09-26T09:54:47.001Z</time>
      </trkpt>
      <trkpt lat="47.59556" lon="6.50829">
        <ele>304.426</ele>
        <time>2019-09-26T09:54:50.001Z</time>
      </trkpt>
      <trkpt lat="47.5955" lon="6.50822">
        <ele>304.303</ele>
        <time>2019-09-26T09:54:53.001Z</time>
      </trkpt>
      <trkpt lat="47.59543" lon="6.50817">
        <ele>304.408</ele>
        <time>2019-09-26T09:54:56.001Z</time>
      </trkpt>
      <trkpt lat="47.59536" lon="6.50811">
        <ele>303.843</ele>
        <time>2019-09-26T09:54:59.001Z</time>
      </trkpt>
      <trkpt lat="47.59529" lon="6.50804">
        <ele>303.928</ele>
        <time>2019-09-26T11:55:02Z</time>
      </trkpt>
      <trkpt lat="47.59523" lon="6.50796">
        <ele>304.18</ele>
        <time>2019-09-26T09:55:05.001Z</time>
      </trkpt>
      <trkpt lat="47.59518" lon="6.50789">
        <ele>304.902</ele>
        <time>2019-09-26T09:55:08.001Z</time>
      </trkpt>
      <trkpt lat="47.59509" lon="6.50782">
        <ele>304.084</ele>
        <time>2019-09-26T09:55:11.001Z</time>
      </trkpt>
      <trkpt lat="47.59498" lon="6.50783">
        <ele>302.048</ele>
        <time>2019-09-26T09:55:14.001Z</time>
      </trkpt>
      <trkpt lat="47.59485" lon="6.50793">
        <ele>300.611</ele>
        <time>2019-09-26T09:55:17.001Z</time>
      </trkpt>
      <trkpt lat="47.59472" lon="6.50805">
        <ele>300.949</ele>
        <time>2019-09-26T09:55:20.001Z</time>
      </trkpt>
      <trkpt lat="47.59459" lon="6.50816">
        <ele>300.025</ele>
        <time>2019-09-26T09:55:23.001Z</time>
      </trkpt>
      <trkpt lat="47.59445" lon="6.50828">
        <ele>299.044</ele>
        <time>2019-09-26T09:55:26.001Z</time>
      </trkpt>
      <trkpt lat="47.59429" lon="6.50843">
        <ele>297.909</ele>
        <time>2019-09-26T09:55:29.001Z</time>
      </trkpt>
      <trkpt lat="47.59412" lon="6.50858">
        <ele>296.991</ele>
        <time>2019-09-26T09:55:32.001Z</time>
      </trkpt>
      <trkpt lat="47.59394" lon="6.50873">
        <ele>295.781</ele>
        <time>2019-09-26T09:55:35.001Z</time>
      </trkpt>
      <trkpt lat="47.59379" lon="6.50887">
        <ele>295.331</ele>
        <time>2019-09-26T09:55:38.001Z</time>
      </trkpt>
      <trkpt lat="47.59364" lon="6.509">
        <ele>295.032</ele>
        <time>2019-09-26T09:55:41.001Z</time>
      </trkpt>
      <trkpt lat="47.59354" lon="6.50915">
        <ele>294.558</ele>
        <time>2019-09-26T09:55:44.001Z</time>
      </trkpt>
      <trkpt lat="47.59344" lon="6.50931">
        <ele>293.723</ele>
        <time>2019-09-26T09:55:47.001Z</time>
      </trkpt>
      <trkpt lat="47.59334" lon="6.50947">
        <ele>293.485</ele>
        <time>2019-09-26T09:55:50.001Z</time>
      </trkpt>
      <trkpt lat="47.59327" lon="6.50962">
        <ele>292.832</ele>
        <time>2019-09-26T09:55:53.001Z</time>
      </trkpt>
      <trkpt lat="47.59321" lon="6.50978">
        <ele>293.526</ele>
        <time>2019-09-26T09:55:56.001Z</time>
      </trkpt>
      <trkpt lat="47.59315" lon="6.50993">
        <ele>294.328</ele>
        <time>2019-09-26T09:55:59.001Z</time>
      </trkpt>
      <trkpt lat="47.59309" lon="6.51006">
        <ele>295.098</ele>
        <time>2019-09-26T11:56:02Z</time>
      </trkpt>
      <trkpt lat="47.59304" lon="6.51018">
        <ele>296.259</ele>
        <time>2019-09-26T09:56:05.001Z</time>
      </trkpt>
      <trkpt lat="47.59298" lon="6.51031">
        <ele>297.639</ele>
        <time>2019-09-26T09:56:08.001Z</time>
      </trkpt>
      <trkpt lat="47.59293" lon="6.51044">
        <ele>299.003</ele>
        <time>2019-09-26T09:56:11.001Z</time>
      </trkpt>
      <trkpt lat="47.59287" lon="6.51056">
        <ele>300.181</ele>
        <time>2019-09-26T09:56:14.001Z</time>
      </trkpt>
      <trkpt lat="47.59281" lon="6.51069">
        <ele>300.932</ele>
        <time>2019-09-26T09:56:17.001Z</time>
      </trkpt>
      <trkpt lat="47.59275" lon="6.51082">
        <ele>301.897</ele>
        <time>2019-09-26T09:56:20.001Z</time>
      </trkpt>
      <trkpt lat="47.59268" lon="6.51098">
        <ele>302.926</ele>
        <time>2019-09-26T09:56:23.001Z</time>
      </trkpt>
      <trkpt lat="47.5926" lon="6.51113">
        <ele>303.95</ele>
        <time>2019-09-26T09:56:26.001Z</time>
      </trkpt>
      <trkpt lat="47.59252" lon="6.51132">
        <ele>304.721</ele>
        <time>2019-09-26T09:56:29.001Z</time>
      </trkpt>
      <trkpt lat="47.59243" lon="6.51151">
        <ele>305.058</ele>
        <time>2019-09-26T09:56:32.001Z</time>
      </trkpt>
      <trkpt lat="47.59234" lon="6.51169">
        <ele>305.605</ele>
        <time>2019-09-26T09:56:35.001Z</time>
      </trkpt>
      <trkpt lat="47.59225" lon="6.51189">
        <ele>306.483</ele>
        <time>2019-09-26T09:56:38.001Z</time>
      </trkpt>
      <trkpt lat="47.59215" lon="6.51209">
        <ele>306.809</ele>
        <time>2019-09-26T09:56:41.001Z</time>
      </trkpt>
      <trkpt lat="47.59204" lon="6.5123">
        <ele>306.597</ele>
        <time>2019-09-26T09:56:44.001Z</time>
      </trkpt>
      <trkpt lat="47.59194" lon="6.5125">
        <ele>306.406</ele>
        <time>2019-09-26T09:56:47.001Z</time>
      </trkpt>
      <trkpt lat="47.59183" lon="6.5127">
        <ele>306.245</ele>
        <time>2019-09-26T09:56:50.001Z</time>
      </trkpt>
      <trkpt lat="47.59172" lon="6.51292">
        <ele>305.522</ele>
        <time>2019-09-26T09:56:53.001Z</time>
      </trkpt>
      <trkpt lat="47.59162" lon="6.51313">
        <ele>305.312</ele>
        <time>2019-09-26T09:56:56.001Z</time>
      </trkpt>
      <trkpt lat="47.59152" lon="6.51335">
        <ele>304.839</ele>
        <time>2019-09-26T09:56:59.001Z</time>
      </trkpt>
      <trkpt lat="47.59142" lon="6.51358">
        <ele>304.731</ele>
        <time>2019-09-26T11:57:02Z</time>
      </trkpt>
      <trkpt lat="47.59132" lon="6.51382">
        <ele>304.15</ele>
        <time>2019-09-26T09:57:05.001Z</time>
      </trkpt>
      <trkpt lat="47.59122" lon="6.51405">
        <ele>303.205</ele>
        <time>2019-09-26T09:57:08.001Z</time>
      </trkpt>
      <trkpt lat="47.59111" lon="6.51429">
        <ele>302.352</ele>
        <time>2019-09-26T09:57:11.001Z</time>
      </trkpt>
      <trkpt lat="47.591" lon="6.51454">
        <ele>301.333</ele>
        <time>2019-09-26T09:57:14.001Z</time>
      </trkpt>
      <trkpt lat="47.59089" lon="6.5148">
        <ele>300.346</ele>
        <time>2019-09-26T09:57:17.001Z</time>
      </trkpt>
      <trkpt lat="47.59077" lon="6.51506">
        <ele>300.071</ele>
        <time>2019-09-26T09:57:20.001Z</time>
      </trkpt>
      <trkpt lat="47.59064" lon="6.51532">
        <ele>300.23</ele>
        <time>2019-09-26T09:57:23.001Z</time>
      </trkpt>
      <trkpt lat="47.59052" lon="6.5156">
        <ele>300.296</ele>
        <time>2019-09-26T09:57:26.001Z</time>
      </trkpt>
      <trkpt lat="47.5904" lon="6.51589">
        <ele>300.236</ele>
        <time>2019-09-26T09:57:29.001Z</time>
      </trkpt>
      <trkpt lat="47.59026" lon="6.51618">
        <ele>299.576</ele>
        <time>2019-09-26T09:57:32.001Z</time>
      </trkpt>
      <trkpt lat="47.59011" lon="6.51647">
        <ele>298.901</ele>
        <time>2019-09-26T09:57:35.001Z</time>
      </trkpt>
      <trkpt lat="47.58991" lon="6.51674">
        <ele>298.087</ele>
        <time>2019-09-26T09:57:38.001Z</time>
      </trkpt>
      <trkpt lat="47.58969" lon="6.51696">
        <ele>297.359</ele>
        <time>2019-09-26T09:57:41.001Z</time>
      </trkpt>
      <trkpt lat="47.58944" lon="6.51711">
        <ele>296.199</ele>
        <time>2019-09-26T09:57:44.001Z</time>
      </trkpt>
      <trkpt lat="47.58921" lon="6.51725">
        <ele>295.089</ele>
        <time>2019-09-26T09:57:47.001Z</time>
      </trkpt>
      <trkpt lat="47.58897" lon="6.51745">
        <ele>293.402</ele>
        <time>2019-09-26T09:57:50.001Z</time>
      </trkpt>
      <trkpt lat="47.58875" lon="6.51777">
        <ele>291.1</ele>
        <time>2019-09-26T09:57:53.001Z</time>
      </trkpt>
      <trkpt lat="47.58861" lon="6.51817">
        <ele>288.948</ele>
        <time>2019-09-26T09:57:56.001Z</time>
      </trkpt>
      <trkpt lat="47.58849" lon="6.51862">
        <ele>286.806</ele>
        <time>2019-09-26T09:57:59.001Z</time>
      </trkpt>
      <trkpt lat="47.58838" lon="6.51908">
        <ele>285.121</ele>
        <time>2019-09-26T11:58:02Z</time>
      </trkpt>
      <trkpt lat="47.58826" lon="6.51953">
        <ele>283.589</ele>
        <time>2019-09-26T09:58:05.001Z</time>
      </trkpt>
      <trkpt lat="47.5881" lon="6.51995">
        <ele>282.128</ele>
        <time>2019-09-26T09:58:08.001Z</time>
      </trkpt>
      <trkpt lat="47.58794" lon="6.52028">
        <ele>280.669</ele>
        <time>2019-09-26T09:58:11.001Z</time>
      </trkpt>
      <trkpt lat="47.58779" lon="6.52058">
        <ele>277.255</ele>
        <time>2019-09-26T09:58:14.001Z</time>
      </trkpt>
      <trkpt lat="47.58765" lon="6.52085">
        <ele>275.417</ele>
        <time>2019-09-26T09:58:17.001Z</time>
      </trkpt>
      <trkpt lat="47.58753" lon="6.52107">
        <ele>274.317</ele>
        <time>2019-09-26T09:58:20.001Z</time>
      </trkpt>
      <trkpt lat="47.58742" lon="6.52128">
        <ele>274.306</ele>
        <time>2019-09-26T09:58:23.001Z</time>
      </trkpt>
      <trkpt lat="47.58732" lon="6.52148">
        <ele>274.376</ele>
        <time>2019-09-26T09:58:26.001Z</time>
      </trkpt>
      <trkpt lat="47.58723" lon="6.52167">
        <ele>274.482</ele>
        <time>2019-09-26T09:58:29.001Z</time>
      </trkpt>
      <trkpt lat="47.58717" lon="6.52187">
        <ele>274.468</ele>
        <time>2019-09-26T09:58:32.001Z</time>
      </trkpt>
      <trkpt lat="47.58714" lon="6.52209">
        <ele>274.104</ele>
        <time>2019-09-26T09:58:35.001Z</time>
      </trkpt>
      <trkpt lat="47.58718" lon="6.52236">
        <ele>274.301</ele>
        <time>2019-09-26T09:58:38.001Z</time>
      </trkpt>
      <trkpt lat="47.58723" lon="6.5226">
        <ele>275.242</ele>
        <time>2019-09-26T09:58:41.001Z</time>
      </trkpt>
      <trkpt lat="47.5873" lon="6.52278">
        <ele>275.023</ele>
        <time>2019-09-26T09:58:44.001Z</time>
      </trkpt>
      <trkpt lat="47.58736" lon="6.52293">
        <ele>274.968</ele>
        <time>2019-09-26T09:58:47.001Z</time>
      </trkpt>
      <trkpt lat="47.58742" lon="6.52305">
        <ele>275.994</ele>
        <time>2019-09-26T09:58:50.001Z</time>
      </trkpt>
      <trkpt lat="47.5875" lon="6.52317">
        <ele>276.928</ele>
        <time>2019-09-26T09:58:53.001Z</time>
      </trkpt>
      <trkpt lat="47.58755" lon="6.52329">
        <ele>278.168</ele>
        <time>2019-09-26T09:58:56.001Z</time>
      </trkpt>
      <trkpt lat="47.58759" lon="6.52342">
        <ele>279.66</ele>
        <time>2019-09-26T09:58:59.001Z</time>
      </trkpt>
      <trkpt lat="47.58759" lon="6.52355">
        <ele>281.09</ele>
        <time>2019-09-26T11:59:02Z</time>
      </trkpt>
      <trkpt lat="47.5876" lon="6.52368">
        <ele>282.647</ele>
        <time>2019-09-26T09:59:05.001Z</time>
      </trkpt>
      <trkpt lat="47.58761" lon="6.52379">
        <ele>283.938</ele>
        <time>2019-09-26T09:59:08.001Z</time>
      </trkpt>
      <trkpt lat="47.58761" lon="6.52391">
        <ele>285.4</ele>
        <time>2019-09-26T09:59:11.001Z</time>
      </trkpt>
      <trkpt lat="47.58762" lon="6.52402">
        <ele>286.193</ele>
        <time>2019-09-26T09:59:14.001Z</time>
      </trkpt>
      <trkpt lat="47.58763" lon="6.52413">
        <ele>287.171</ele>
        <time>2019-09-26T09:59:17.001Z</time>
      </trkpt>
      <trkpt lat="47.58764" lon="6.52424">
        <ele>288.488</ele>
        <time>2019-09-26T09:59:20.001Z</time>
      </trkpt>
      <trkpt lat="47.58764" lon="6.52435">
        <ele>289.928</ele>
        <time>2019-09-26T09:59:23.001Z</time>
      </trkpt>
      <trkpt lat="47.58764" lon="6.52447">
        <ele>290.773</ele>
        <time>2019-09-26T09:59:26.001Z</time>
      </trkpt>
      <trkpt lat="47.58765" lon="6.52457">
        <ele>292.112</ele>
        <time>2019-09-26T09:59:29.001Z</time>
      </trkpt>
      <trkpt lat="47.58766" lon="6.52467">
        <ele>292.614</ele>
        <time>2019-09-26T09:59:32.001Z</time>
      </trkpt>
      <trkpt lat="47.58766" lon="6.52479">
        <ele>292.747</ele>
        <time>2019-09-26T09:59:35.001Z</time>
      </trkpt>
      <trkpt lat="47.58768" lon="6.5249">
        <ele>293.45</ele>
        <time>2019-09-26T09:59:38.001Z</time>
      </trkpt>
      <trkpt lat="47.58769" lon="6.52503">
        <ele>293.8</ele>
        <time>2019-09-26T09:59:41.001Z</time>
      </trkpt>
      <trkpt lat="47.5877" lon="6.52516">
        <ele>294.131</ele>
        <time>2019-09-26T09:59:44.001Z</time>
      </trkpt>
      <trkpt lat="47.58771" lon="6.5253">
        <ele>294.447</ele>
        <time>2019-09-26T09:59:47.001Z</time>
      </trkpt>
      <trkpt lat="47.58772" lon="6.52542">
        <ele>294.893</ele>
        <time>2019-09-26T09:59:50.001Z</time>
      </trkpt>
      <trkpt lat="47.58772" lon="6.52555">
        <ele>295.663</ele>
        <time>2019-09-26T09:59:53.001Z</time>
      </trkpt>
      <trkpt lat="47.58773" lon="6.52569">
        <ele>295.289</ele>
        <time>2019-09-26T09:59:56.001Z</time>
      </trkpt>
      <trkpt lat="47.58775" lon="6.52583">
        <ele>294.775</ele>
        <time>2019-09-26T09:59:59.001Z</time>
      </trkpt>
      <trkpt lat="47.58775" lon="6.52597">
        <ele>295.035</ele>
        <time>2019-09-26T12:00:02Z</time>
      </trkpt>
      <trkpt lat="47.58774" lon="6.52611">
        <ele>295.299</ele>
        <time>2019-09-26T10:00:05.001Z</time>
      </trkpt>
      <trkpt lat="47.58773" lon="6.52623">
        <ele>296.244</ele>
        <time>2019-09-26T10:00:08.001Z</time>
      </trkpt>
      <trkpt lat="47.58772" lon="6.52635">
        <ele>297.309</ele>
        <time>2019-09-26T10:00:11.001Z</time>
      </trkpt>
      <trkpt lat="47.58771" lon="6.52647">
        <ele>298.342</ele>
        <time>2019-09-26T10:00:14.001Z</time>
      </trkpt>
      <trkpt lat="47.5877" lon="6.5266">
        <ele>298.854</ele>
        <time>2019-09-26T10:00:17.001Z</time>
      </trkpt>
      <trkpt lat="47.5877" lon="6.52673">
        <ele>299.422</ele>
        <time>2019-09-26T10:00:20.001Z</time>
      </trkpt>
      <trkpt lat="47.58769" lon="6.52687">
        <ele>299.678</ele>
        <time>2019-09-26T10:00:23.001Z</time>
      </trkpt>
      <trkpt lat="47.58768" lon="6.52701">
        <ele>299.395</ele>
        <time>2019-09-26T10:00:26.001Z</time>
      </trkpt>
      <trkpt lat="47.58766" lon="6.52713">
        <ele>299.222</ele>
        <time>2019-09-26T10:00:29.001Z</time>
      </trkpt>
      <trkpt lat="47.58765" lon="6.52725">
        <ele>299.043</ele>
        <time>2019-09-26T10:00:32.001Z</time>
      </trkpt>
      <trkpt lat="47.58764" lon="6.52734">
        <ele>298.246</ele>
        <time>2019-09-26T10:00:35.001Z</time>
      </trkpt>
      <trkpt lat="47.58763" lon="6.52744">
        <ele>297.809</ele>
        <time>2019-09-26T10:00:38.001Z</time>
      </trkpt>
      <trkpt lat="47.58761" lon="6.52754">
        <ele>298.34</ele>
        <time>2019-09-26T10:00:41.001Z</time>
      </trkpt>
      <trkpt lat="47.58759" lon="6.52763">
        <ele>297.511</ele>
        <time>2019-09-26T10:00:44.001Z</time>
      </trkpt>
      <trkpt lat="47.58757" lon="6.52771">
        <ele>298.573</ele>
        <time>2019-09-26T10:00:47.001Z</time>
      </trkpt>
      <trkpt lat="47.58754" lon="6.52779">
        <ele>299.308</ele>
        <time>2019-09-26T10:00:50.001Z</time>
      </trkpt>
      <trkpt lat="47.58751" lon="6.52786">
        <ele>299.313</ele>
        <time>2019-09-26T10:00:53.001Z</time>
      </trkpt>
      <trkpt lat="47.58748" lon="6.52794">
        <ele>299.287</ele>
        <time>2019-09-26T10:00:56.001Z</time>
      </trkpt>
      <trkpt lat="47.58745" lon="6.52803">
        <ele>299.586</ele>
        <time>2019-09-26T10:00:59.001Z</time>
      </trkpt>
      <trkpt lat="47.58742" lon="6.5281">
        <ele>299.96</ele>
        <time>2019-09-26T12:01:02Z</time>
      </trkpt>
      <trkpt lat="47.58739" lon="6.52817">
        <ele>300.198</ele>
        <time>2019-09-26T10:01:05.001Z</time>
      </trkpt>
      <trkpt lat="47.58737" lon="6.52823">
        <ele>300.542</ele>
        <time>2019-09-26T10:01:08.001Z</time>
      </trkpt>
      <trkpt lat="47.58734" lon="6.52831">
        <ele>300.92</ele>
        <time>2019-09-26T10:01:11.001Z</time>
      </trkpt>
      <trkpt lat="47.58731" lon="6.52837">
        <ele>301.422</ele>
        <time>2019-09-26T10:01:14.001Z</time>
      </trkpt>
      <trkpt lat="47.58729" lon="6.52844">
        <ele>301.469</ele>
        <time>2019-09-26T10:01:17.001Z</time>
      </trkpt>
      <trkpt lat="47.58727" lon="6.52852">
        <ele>301.539</ele>
        <time>2019-09-26T10:01:20.001Z</time>
      </trkpt>
      <trkpt lat="47.58725" lon="6.5286">
        <ele>302.194</ele>
        <time>2019-09-26T10:01:23.001Z</time>
      </trkpt>
      <trkpt lat="47.58723" lon="6.52867">
        <ele>303.166</ele>
        <time>2019-09-26T10:01:26.001Z</time>
      </trkpt>
      <trkpt lat="47.58721" lon="6.52875">
        <ele>303.801</ele>
        <time>2019-09-26T10:01:29.001Z</time>
      </trkpt>
      <trkpt lat="47.58719" lon="6.52882">
        <ele>304.01</ele>
        <time>2019-09-26T10:01:32.001Z</time>
      </trkpt>
      <trkpt lat="47.58718" lon="6.5289">
        <ele>303.101</ele>
        <time>2019-09-26T10:01:35.001Z</time>
      </trkpt>
      <trkpt lat="47.58717" lon="6.52898">
        <ele>303.166</ele>
        <time>2019-09-26T10:01:38.001Z</time>
      </trkpt>
      <trkpt lat="47.58716" lon="6.52906">
        <ele>303.04</ele>
        <time>2019-09-26T10:01:41.001Z</time>
      </trkpt>
      <trkpt lat="47.58715" lon="6.52914">
        <ele>303.314</ele>
        <time>2019-09-26T10:01:44.001Z</time>
      </trkpt>
      <trkpt lat="47.58715" lon="6.52922">
        <ele>302.994</ele>
        <time>2019-09-26T10:01:47.001Z</time>
      </trkpt>
      <trkpt lat="47.58714" lon="6.52929">
        <ele>303.529</ele>
        <time>2019-09-26T10:01:50.001Z</time>
      </trkpt>
      <trkpt lat="47.58715" lon="6.52937">
        <ele>303.336</ele>
        <time>2019-09-26T10:01:53.001Z</time>
      </trkpt>
      <trkpt lat="47.58715" lon="6.52945">
        <ele>303.23</ele>
        <time>2019-09-26T10:01:56.001Z</time>
      </trkpt>
      <trkpt lat="47.58715" lon="6.52953">
        <ele>303.707</ele>
        <time>2019-09-26T10:01:59.001Z</time>
      </trkpt>
      <trkpt lat="47.58715" lon="6.52962">
        <ele>304.142</ele>
        <time>2019-09-26T12:02:02Z</time>
      </trkpt>
      <trkpt lat="47.58715" lon="6.52972">
        <ele>304.853</ele>
        <time>2019-09-26T10:02:05.001Z</time>
      </trkpt>
      <trkpt lat="47.58714" lon="6.52979">
        <ele>305.652</ele>
        <time>2019-09-26T10:02:08.001Z</time>
      </trkpt>
      <trkpt lat="47.58712" lon="6.52989">
        <ele>305.081</ele>
        <time>2019-09-26T10:02:11.001Z</time>
      </trkpt>
      <trkpt lat="47.58712" lon="6.52999">
        <ele>304.711</ele>
        <time>2019-09-26T10:02:14.001Z</time>
      </trkpt>
      <trkpt lat="47.5871" lon="6.53007">
        <ele>304.775</ele>
        <time>2019-09-26T10:02:17.001Z</time>
      </trkpt>
      <trkpt lat="47.58709" lon="6.53016">
        <ele>304.877</ele>
        <time>2019-09-26T10:02:20.001Z</time>
      </trkpt>
      <trkpt lat="47.58707" lon="6.53025">
        <ele>305.04</ele>
        <time>2019-09-26T10:02:23.001Z</time>
      </trkpt>
      <trkpt lat="47.58704" lon="6.53034">
        <ele>305.192</ele>
        <time>2019-09-26T10:02:26.001Z</time>
      </trkpt>
      <trkpt lat="47.58701" lon="6.53042">
        <ele>305.275</ele>
        <time>2019-09-26T10:02:29.001Z</time>
      </trkpt>
      <trkpt lat="47.58698" lon="6.5305">
        <ele>305.969</ele>
        <time>2019-09-26T10:02:32.001Z</time>
      </trkpt>
      <trkpt lat="47.58694" lon="6.53058">
        <ele>306.51</ele>
        <time>2019-09-26T10:02:35.001Z</time>
      </trkpt>
      <trkpt lat="47.58691" lon="6.53065">
        <ele>307.145</ele>
        <time>2019-09-26T10:02:38.001Z</time>
      </trkpt>
      <trkpt lat="47.58687" lon="6.53073">
        <ele>308.032</ele>
        <time>2019-09-26T10:02:41.001Z</time>
      </trkpt>
      <trkpt lat="47.58682" lon="6.5308">
        <ele>308.484</ele>
        <time>2019-09-26T10:02:44.001Z</time>
      </trkpt>
      <trkpt lat="47.58679" lon="6.53086">
        <ele>308.569</ele>
        <time>2019-09-26T10:02:47.001Z</time>
      </trkpt>
      <trkpt lat="47.58675" lon="6.53093">
        <ele>308.804</ele>
        <time>2019-09-26T10:02:50.001Z</time>
      </trkpt>
      <trkpt lat="47.58671" lon="6.53099">
        <ele>309.283</ele>
        <time>2019-09-26T10:02:53.001Z</time>
      </trkpt>
      <trkpt lat="47.58667" lon="6.53106">
        <ele>309.77</ele>
        <time>2019-09-26T10:02:56.001Z</time>
      </trkpt>
      <trkpt lat="47.58662" lon="6.53112">
        <ele>309.512</ele>
        <time>2019-09-26T10:02:59.001Z</time>
      </trkpt>
      <trkpt lat="47.58657" lon="6.53119">
        <ele>310.271</ele>
        <time>2019-09-26T12:03:02Z</time>
      </trkpt>
      <trkpt lat="47.58653" lon="6.53126">
        <ele>310.281</ele>
        <time>2019-09-26T10:03:05.001Z</time>
      </trkpt>
      <trkpt lat="47.5865" lon="6.53133">
        <ele>310.387</ele>
        <time>2019-09-26T10:03:08.001Z</time>
      </trkpt>
      <trkpt lat="47.58645" lon="6.5314">
        <ele>310.581</ele>
        <time>2019-09-26T10:03:11.001Z</time>
      </trkpt>
      <trkpt lat="47.5864" lon="6.53147">
        <ele>311.039</ele>
        <time>2019-09-26T10:03:14.001Z</time>
      </trkpt>
      <trkpt lat="47.58636" lon="6.53154">
        <ele>311.707</ele>
        <time>2019-09-26T10:03:17.001Z</time>
      </trkpt>
      <trkpt lat="47.58632" lon="6.53162">
        <ele>312.716</ele>
        <time>2019-09-26T10:03:20.001Z</time>
      </trkpt>
      <trkpt lat="47.58628" lon="6.53169">
        <ele>313.023</ele>
        <time>2019-09-26T10:03:23.001Z</time>
      </trkpt>
      <trkpt lat="47.58623" lon="6.53176">
        <ele>313.545</ele>
        <time>2019-09-26T10:03:26.001Z</time>
      </trkpt>
      <trkpt lat="47.58619" lon="6.53184">
        <ele>314.139</ele>
        <time>2019-09-26T10:03:29.001Z</time>
      </trkpt>
      <trkpt lat="47.58615" lon="6.53191">
        <ele>314.638</ele>
        <time>2019-09-26T10:03:32.001Z</time>
      </trkpt>
      <trkpt lat="47.5861" lon="6.53199">
        <ele>314.778</ele>
        <time>2019-09-26T10:03:35.001Z</time>
      </trkpt>
      <trkpt lat="47.58606" lon="6.53206">
        <ele>315.05</ele>
        <time>2019-09-26T10:03:38.001Z</time>
      </trkpt>
      <trkpt lat="47.58601" lon="6.53214">
        <ele>314.914</ele>
        <time>2019-09-26T10:03:41.001Z</time>
      </trkpt>
      <trkpt lat="47.58595" lon="6.53222">
        <ele>315.218</ele>
        <time>2019-09-26T10:03:44.001Z</time>
      </trkpt>
      <trkpt lat="47.5859" lon="6.53229">
        <ele>315.602</ele>
        <time>2019-09-26T10:03:47.001Z</time>
      </trkpt>
      <trkpt lat="47.58585" lon="6.53238">
        <ele>315.095</ele>
        <time>2019-09-26T10:03:50.001Z</time>
      </trkpt>
      <trkpt lat="47.58579" lon="6.53248">
        <ele>315.55</ele>
        <time>2019-09-26T10:03:53.001Z</time>
      </trkpt>
      <trkpt lat="47.58573" lon="6.53257">
        <ele>315.938</ele>
        <time>2019-09-26T10:03:56.001Z</time>
      </trkpt>
      <trkpt lat="47.58567" lon="6.53265">
        <ele>315.739</ele>
        <time>2019-09-26T10:03:59.001Z</time>
      </trkpt>
      <trkpt lat="47.5856" lon="6.53276">
        <ele>315.525</ele>
        <time>2019-09-26T12:04:02Z</time>
      </trkpt>
      <trkpt lat="47.5855" lon="6.53287">
        <ele>315.46</ele>
        <time>2019-09-26T10:04:05.001Z</time>
      </trkpt>
      <trkpt lat="47.58539" lon="6.53301">
        <ele>315.35</ele>
        <time>2019-09-26T10:04:08.001Z</time>
      </trkpt>
      <trkpt lat="47.58525" lon="6.5332">
        <ele>315.034</ele>
        <time>2019-09-26T10:04:11.001Z</time>
      </trkpt>
      <trkpt lat="47.58508" lon="6.53342">
        <ele>313.89</ele>
        <time>2019-09-26T10:04:14.001Z</time>
      </trkpt>
      <trkpt lat="47.58486" lon="6.53367">
        <ele>312.371</ele>
        <time>2019-09-26T10:04:17.001Z</time>
      </trkpt>
      <trkpt lat="47.5846" lon="6.53389">
        <ele>311.004</ele>
        <time>2019-09-26T10:04:20.001Z</time>
      </trkpt>
      <trkpt lat="47.58432" lon="6.53411">
        <ele>309.095</ele>
        <time>2019-09-26T10:04:23.001Z</time>
      </trkpt>
      <trkpt lat="47.58401" lon="6.53434">
        <ele>306.284</ele>
        <time>2019-09-26T10:04:26.001Z</time>
      </trkpt>
      <trkpt lat="47.5837" lon="6.53459">
        <ele>303.958</ele>
        <time>2019-09-26T10:04:29.001Z</time>
      </trkpt>
      <trkpt lat="47.58342" lon="6.53488">
        <ele>301.601</ele>
        <time>2019-09-26T10:04:32.001Z</time>
      </trkpt>
      <trkpt lat="47.58314" lon="6.53521">
        <ele>298.904</ele>
        <time>2019-09-26T10:04:35.001Z</time>
      </trkpt>
      <trkpt lat="47.58288" lon="6.53559">
        <ele>296.326</ele>
        <time>2019-09-26T10:04:38.001Z</time>
      </trkpt>
      <trkpt lat="47.58268" lon="6.53604">
        <ele>294.839</ele>
        <time>2019-09-26T10:04:41.001Z</time>
      </trkpt>
      <trkpt lat="47.58256" lon="6.53646">
        <ele>293.123</ele>
        <time>2019-09-26T10:04:44.001Z</time>
      </trkpt>
      <trkpt lat="47.58246" lon="6.53682">
        <ele>291.695</ele>
        <time>2019-09-26T10:04:47.001Z</time>
      </trkpt>
      <trkpt lat="47.58238" lon="6.53711">
        <ele>290.829</ele>
        <time>2019-09-26T10:04:50.001Z</time>
      </trkpt>
      <trkpt lat="47.5823" lon="6.53734">
        <ele>289.968</ele>
        <time>2019-09-26T10:04:53.001Z</time>
      </trkpt>
      <trkpt lat="47.58224" lon="6.53751">
        <ele>288.565</ele>
        <time>2019-09-26T10:04:56.001Z</time>
      </trkpt>
      <trkpt lat="47.58218" lon="6.53766">
        <ele>287.281</ele>
        <time>2019-09-26T10:04:59.001Z</time>
      </trkpt>
      <trkpt lat="47.58214" lon="6.53778">
        <ele>286.453</ele>
        <time>2019-09-26T12:05:02Z</time>
      </trkpt>
      <trkpt lat="47.5821" lon="6.53789">
        <ele>286.066</ele>
        <time>2019-09-26T10:05:05.001Z</time>
      </trkpt>
      <trkpt lat="47.58206" lon="6.53798">
        <ele>285.828</ele>
        <time>2019-09-26T10:05:08.001Z</time>
      </trkpt>
      <trkpt lat="47.58201" lon="6.53806">
        <ele>285.376</ele>
        <time>2019-09-26T10:05:11.001Z</time>
      </trkpt>
      <trkpt lat="47.58197" lon="6.53815">
        <ele>284.834</ele>
        <time>2019-09-26T10:05:14.001Z</time>
      </trkpt>
      <trkpt lat="47.58192" lon="6.53824">
        <ele>284.863</ele>
        <time>2019-09-26T10:05:17.001Z</time>
      </trkpt>
      <trkpt lat="47.58188" lon="6.53833">
        <ele>285.205</ele>
        <time>2019-09-26T10:05:20.001Z</time>
      </trkpt>
      <trkpt lat="47.58183" lon="6.5384">
        <ele>285.653</ele>
        <time>2019-09-26T10:05:23.001Z</time>
      </trkpt>
      <trkpt lat="47.58178" lon="6.53848">
        <ele>286.182</ele>
        <time>2019-09-26T10:05:26.001Z</time>
      </trkpt>
      <trkpt lat="47.58175" lon="6.53856">
        <ele>287.538</ele>
        <time>2019-09-26T10:05:29.001Z</time>
      </trkpt>
      <trkpt lat="47.58171" lon="6.53865">
        <ele>290.048</ele>
        <time>2019-09-26T10:05:32.001Z</time>
      </trkpt>
      <trkpt lat="47.58166" lon="6.53873">
        <ele>291.631</ele>
        <time>2019-09-26T10:05:35.001Z</time>
      </trkpt>
      <trkpt lat="47.5816" lon="6.53878">
        <ele>292.858</ele>
        <time>2019-09-26T10:05:38.001Z</time>
      </trkpt>
      <trkpt lat="47.58153" lon="6.53884">
        <ele>293.671</ele>
        <time>2019-09-26T10:05:41.001Z</time>
      </trkpt>
      <trkpt lat="47.58147" lon="6.5389">
        <ele>295.017</ele>
        <time>2019-09-26T10:05:44.001Z</time>
      </trkpt>
      <trkpt lat="47.58142" lon="6.53897">
        <ele>295.562</ele>
        <time>2019-09-26T10:05:47.001Z</time>
      </trkpt>
      <trkpt lat="47.58136" lon="6.53904">
        <ele>296.293</ele>
        <time>2019-09-26T10:05:50.001Z</time>
      </trkpt>
      <trkpt lat="47.58131" lon="6.53909">
        <ele>298.108</ele>
        <time>2019-09-26T10:05:53.001Z</time>
      </trkpt>
      <trkpt lat="47.58125" lon="6.53914">
        <ele>299.241</ele>
        <time>2019-09-26T10:05:56.001Z</time>
      </trkpt>
      <trkpt lat="47.5812" lon="6.53921">
        <ele>300.953</ele>
        <time>2019-09-26T10:05:59.001Z</time>
      </trkpt>
      <trkpt lat="47.58114" lon="6.53926">
        <ele>301.391</ele>
        <time>2019-09-26T12:06:02Z</time>
      </trkpt>
      <trkpt lat="47.58109" lon="6.53931">
        <ele>302.743</ele>
        <time>2019-09-26T10:06:05.001Z</time>
      </trkpt>
      <trkpt lat="47.58104" lon="6.53937">
        <ele>304.845</ele>
        <time>2019-09-26T10:06:08.001Z</time>
      </trkpt>
      <trkpt lat="47.58101" lon="6.53945">
        <ele>306.261</ele>
        <time>2019-09-26T10:06:11.001Z</time>
      </trkpt>
      <trkpt lat="47.58098" lon="6.53952">
        <ele>307.156</ele>
        <time>2019-09-26T10:06:14.001Z</time>
      </trkpt>
      <trkpt lat="47.58096" lon="6.53962">
        <ele>306.621</ele>
        <time>2019-09-26T10:06:17.001Z</time>
      </trkpt>
      <trkpt lat="47.58093" lon="6.53971">
        <ele>307.288</ele>
        <time>2019-09-26T10:06:20.001Z</time>
      </trkpt>
      <trkpt lat="47.58091" lon="6.53981">
        <ele>307.352</ele>
        <time>2019-09-26T10:06:23.001Z</time>
      </trkpt>
      <trkpt lat="47.58088" lon="6.5399">
        <ele>307.4</ele>
        <time>2019-09-26T10:06:26.001Z</time>
      </trkpt>
      <trkpt lat="47.58086" lon="6.54003">
        <ele>307.513</ele>
        <time>2019-09-26T10:06:29.001Z</time>
      </trkpt>
      <trkpt lat="47.58084" lon="6.54019">
        <ele>307.474</ele>
        <time>2019-09-26T10:06:32.001Z</time>
      </trkpt>
      <trkpt lat="47.58082" lon="6.54036">
        <ele>307.165</ele>
        <time>2019-09-26T10:06:35.001Z</time>
      </trkpt>
      <trkpt lat="47.5808" lon="6.54053">
        <ele>307.79</ele>
        <time>2019-09-26T10:06:38.001Z</time>
      </trkpt>
      <trkpt lat="47.58078" lon="6.5407">
        <ele>307.998</ele>
        <time>2019-09-26T10:06:41.001Z</time>
      </trkpt>
      <trkpt lat="47.58075" lon="6.54088">
        <ele>307.932</ele>
        <time>2019-09-26T10:06:44.001Z</time>
      </trkpt>
      <trkpt lat="47.5807" lon="6.54107">
        <ele>307.359</ele>
        <time>2019-09-26T10:06:47.001Z</time>
      </trkpt>
      <trkpt lat="47.58061" lon="6.54127">
        <ele>307.203</ele>
        <time>2019-09-26T10:06:50.001Z</time>
      </trkpt>
      <trkpt lat="47.58047" lon="6.54147">
        <ele>306.681</ele>
        <time>2019-09-26T10:06:53.001Z</time>
      </trkpt>
      <trkpt lat="47.58032" lon="6.54168">
        <ele>305.793</ele>
        <time>2019-09-26T10:06:56.001Z</time>
      </trkpt>
      <trkpt lat="47.58014" lon="6.54188">
        <ele>304.884</ele>
        <time>2019-09-26T10:06:59.001Z</time>
      </trkpt>
      <trkpt lat="47.57996" lon="6.54213">
        <ele>303.772</ele>
        <time>2019-09-26T12:07:02Z</time>
      </trkpt>
      <trkpt lat="47.57979" lon="6.54241">
        <ele>302.521</ele>
        <time>2019-09-26T10:07:05.001Z</time>
      </trkpt>
      <trkpt lat="47.57962" lon="6.5427">
        <ele>301.685</ele>
        <time>2019-09-26T10:07:08.001Z</time>
      </trkpt>
      <trkpt lat="47.57943" lon="6.54301">
        <ele>300.74</ele>
        <time>2019-09-26T10:07:11.001Z</time>
      </trkpt>
      <trkpt lat="47.57926" lon="6.54333">
        <ele>299.595</ele>
        <time>2019-09-26T10:07:14.001Z</time>
      </trkpt>
      <trkpt lat="47.57913" lon="6.5437">
        <ele>299.486</ele>
        <time>2019-09-26T10:07:17.001Z</time>
      </trkpt>
      <trkpt lat="47.57904" lon="6.54408">
        <ele>299.162</ele>
        <time>2019-09-26T10:07:20.001Z</time>
      </trkpt>
      <trkpt lat="47.57898" lon="6.54449">
        <ele>298.025</ele>
        <time>2019-09-26T10:07:23.001Z</time>
      </trkpt>
      <trkpt lat="47.57893" lon="6.5449">
        <ele>297.998</ele>
        <time>2019-09-26T10:07:26.001Z</time>
      </trkpt>
      <trkpt lat="47.57889" lon="6.54531">
        <ele>297.838</ele>
        <time>2019-09-26T10:07:29.001Z</time>
      </trkpt>
      <trkpt lat="47.57887" lon="6.54571">
        <ele>296.899</ele>
        <time>2019-09-26T10:07:32.001Z</time>
      </trkpt>
      <trkpt lat="47.57885" lon="6.5461">
        <ele>295.756</ele>
        <time>2019-09-26T10:07:35.001Z</time>
      </trkpt>
      <trkpt lat="47.57883" lon="6.54649">
        <ele>295.164</ele>
        <time>2019-09-26T10:07:38.001Z</time>
      </trkpt>
      <trkpt lat="47.5788" lon="6.54693">
        <ele>293.997</ele>
        <time>2019-09-26T10:07:41.001Z</time>
      </trkpt>
      <trkpt lat="47.57873" lon="6.54737">
        <ele>293.485</ele>
        <time>2019-09-26T10:07:44.001Z</time>
      </trkpt>
      <trkpt lat="47.57858" lon="6.54777">
        <ele>292.646</ele>
        <time>2019-09-26T10:07:47.001Z</time>
      </trkpt>
      <trkpt lat="47.5784" lon="6.54812">
        <ele>292.447</ele>
        <time>2019-09-26T10:07:50.001Z</time>
      </trkpt>
      <trkpt lat="47.57832" lon="6.54843">
        <ele>293.411</ele>
        <time>2019-09-26T10:07:53.001Z</time>
      </trkpt>
      <trkpt lat="47.57841" lon="6.54878">
        <ele>293.375</ele>
        <time>2019-09-26T10:07:56.001Z</time>
      </trkpt>
      <trkpt lat="47.57856" lon="6.54908">
        <ele>291.988</ele>
        <time>2019-09-26T10:07:59.001Z</time>
      </trkpt>
      <trkpt lat="47.57864" lon="6.54935">
        <ele>291.688</ele>
        <time>2019-09-26T12:08:02Z</time>
      </trkpt>
      <trkpt lat="47.57872" lon="6.5496">
        <ele>291.006</ele>
        <time>2019-09-26T10:08:05.001Z</time>
      </trkpt>
      <trkpt lat="47.57879" lon="6.54984">
        <ele>290.782</ele>
        <time>2019-09-26T10:08:08.002Z</time>
      </trkpt>
      <trkpt lat="47.57887" lon="6.55008">
        <ele>289.911</ele>
        <time>2019-09-26T10:08:11.001Z</time>
      </trkpt>
      <trkpt lat="47.57894" lon="6.55031">
        <ele>289.629</ele>
        <time>2019-09-26T10:08:14.001Z</time>
      </trkpt>
      <trkpt lat="47.57905" lon="6.5505">
        <ele>289.003</ele>
        <time>2019-09-26T10:08:17.001Z</time>
      </trkpt>
      <trkpt lat="47.57919" lon="6.55063">
        <ele>288.281</ele>
        <time>2019-09-26T10:08:20.001Z</time>
      </trkpt>
      <trkpt lat="47.57932" lon="6.55079">
        <ele>287.804</ele>
        <time>2019-09-26T10:08:23.001Z</time>
      </trkpt>
      <trkpt lat="47.57943" lon="6.55096">
        <ele>287.638</ele>
        <time>2019-09-26T10:08:26.001Z</time>
      </trkpt>
      <trkpt lat="47.57955" lon="6.5511">
        <ele>288.212</ele>
        <time>2019-09-26T10:08:29.001Z</time>
      </trkpt>
      <trkpt lat="47.57967" lon="6.5512">
        <ele>288.694</ele>
        <time>2019-09-26T10:08:32.001Z</time>
      </trkpt>
      <trkpt lat="47.57982" lon="6.5512">
        <ele>289.445</ele>
        <time>2019-09-26T10:08:35.001Z</time>
      </trkpt>
      <trkpt lat="47.57995" lon="6.55118">
        <ele>290.186</ele>
        <time>2019-09-26T10:08:38.001Z</time>
      </trkpt>
      <trkpt lat="47.58008" lon="6.55115">
        <ele>290.471</ele>
        <time>2019-09-26T10:08:41.001Z</time>
      </trkpt>
      <trkpt lat="47.58022" lon="6.55113">
        <ele>290.544</ele>
        <time>2019-09-26T10:08:44.001Z</time>
      </trkpt>
      <trkpt lat="47.58036" lon="6.55114">
        <ele>290.623</ele>
        <time>2019-09-26T10:08:47.001Z</time>
      </trkpt>
      <trkpt lat="47.58049" lon="6.55124">
        <ele>291.534</ele>
        <time>2019-09-26T10:08:50.001Z</time>
      </trkpt>
      <trkpt lat="47.58059" lon="6.55141">
        <ele>292.707</ele>
        <time>2019-09-26T10:08:53.001Z</time>
      </trkpt>
      <trkpt lat="47.58068" lon="6.55161">
        <ele>292.99</ele>
        <time>2019-09-26T10:08:56.001Z</time>
      </trkpt>
      <trkpt lat="47.58077" lon="6.55178">
        <ele>293.248</ele>
        <time>2019-09-26T10:08:59.001Z</time>
      </trkpt>
      <trkpt lat="47.58085" lon="6.55196">
        <ele>293.279</ele>
        <time>2019-09-26T12:09:02Z</time>
      </trkpt>
      <trkpt lat="47.58094" lon="6.55214">
        <ele>293.025</ele>
        <time>2019-09-26T10:09:05.001Z</time>
      </trkpt>
      <trkpt lat="47.58104" lon="6.55232">
        <ele>291.483</ele>
        <time>2019-09-26T10:09:08.001Z</time>
      </trkpt>
      <trkpt lat="47.58115" lon="6.55247">
        <ele>290.626</ele>
        <time>2019-09-26T10:09:11.001Z</time>
      </trkpt>
      <trkpt lat="47.58125" lon="6.55263">
        <ele>290.258</ele>
        <time>2019-09-26T10:09:14.001Z</time>
      </trkpt>
      <trkpt lat="47.58136" lon="6.55278">
        <ele>290.714</ele>
        <time>2019-09-26T10:09:17.001Z</time>
      </trkpt>
      <trkpt lat="47.58148" lon="6.55292">
        <ele>290.793</ele>
        <time>2019-09-26T10:09:20.001Z</time>
      </trkpt>
      <trkpt lat="47.58158" lon="6.55306">
        <ele>291.014</ele>
        <time>2019-09-26T10:09:23.001Z</time>
      </trkpt>
      <trkpt lat="47.58168" lon="6.5532">
        <ele>290.606</ele>
        <time>2019-09-26T10:09:26.001Z</time>
      </trkpt>
      <trkpt lat="47.58175" lon="6.55333">
        <ele>290.727</ele>
        <time>2019-09-26T10:09:29.001Z</time>
      </trkpt>
      <trkpt lat="47.5818" lon="6.55346">
        <ele>291.909</ele>
        <time>2019-09-26T10:09:32.001Z</time>
      </trkpt>
      <trkpt lat="47.58181" lon="6.55359">
        <ele>292.763</ele>
        <time>2019-09-26T10:09:35.001Z</time>
      </trkpt>
      <trkpt lat="47.58178" lon="6.55369">
        <ele>293.734</ele>
        <time>2019-09-26T10:09:38.001Z</time>
      </trkpt>
      <trkpt lat="47.58178" lon="6.55377">
        <ele>294.663</ele>
        <time>2019-09-26T10:09:41.001Z</time>
      </trkpt>
      <trkpt lat="47.58177" lon="6.55381">
        <ele>294.484</ele>
        <time>2019-09-26T10:09:44.001Z</time>
      </trkpt>
    </trkseg>
  </trk>
</gpx>